[[{"header":{"parameterUnit":"m.s-1","parameterCategory":1,"la1":31.0,"la2":29.5877,"lo1":-88.7671,"lo2":-86.6584,"dy":0.0162,"dx":0.0185,"nx":115,"ny":88,"refTime":"2023-11-02T00:00:00:Z","depth":0,"parameterNumber":2,"parameterNumberName":"U-component_of_WINDS"},"data":[0.0,0.0,0.0,0.0,0.0,0.0,0.0,0.0,0.0,0.0,0.0,0.0,0.0,0.0,0.0,0.0,0.0,0.0,0.0,0.0,0.0,0.0,0.0,0.0,0.0,0.0,0.0,0.0,0.0,0.0,0.0,0.0,0.0,0.0,0.0,0.0,0.0,0.0,0.0,0.0,0.0,0.0,0.0,0.0,0.0,0.0,0.0,0.0,0.0,0.0,0.0,0.0,0.0,0.0,0.0,0.0,0.0,0.0,0.0,0.0,0.0,0.0,0.0,0.0,0.0,0.0,0.0,0.0,0.0,0.0,0.0,0.0,0.0,0.0,0.0,0.0,0.0,0.0,0.0,0.0,0.0,0.0,0.0,0.0,0.0,0.0,0.0,0.0,0.0,0.0,0.0,0.0,0.0,0.0,0.0,0.0,0.0,0.0,0.0,0.0,0.0,0.0,0.0,0.0,0.0,0.0,0.0,0.0,0.0,0.0,0.0,0.0,0.0,0.0,0.0,0.0,0.0,0.0,0.0,0.0,0.0,0.0,0.0,0.0,0.0,0.0,0.0,0.0,0.0,0.0,0.0,0.0,0.0,0.0,0.0,0.0,0.0,0.0,0.0,0.0,0.0,0.0,0.0,0.0,0.0,0.0,0.0,0.0,0.0,0.0,0.0,0.0,0.0,0.0,0.0,0.0,0.0,0.0,0.0,0.0,0.0,0.0,0.0,0.0,0.0,0.0,0.0,0.0,0.0,0.0,0.0,0.0,0.0,0.0,0.0,0.0,0.0,0.0,0.0,0.0,0.0,0.0,0.0,0.0,0.0,0.0,0.0,0.0,0.0,0.0,0.0,0.0,0.0,0.0,0.0,0.0,0.0,0.0,0.0,0.0,0.0,0.0,0.0,0.0,0.0,0.0,0.0,0.0,0.0,0.0,0.0,0.0,0.0,0.0,0.0,0.0,0.0,0.0,0.0,0.0,0.0,0.0,0.0,0.0,0.0,0.0,0.0,0.0,0.0,0.0,0.0,0.0,0.0,0.0,0.0,0.0,0.0,0.0,0.0,0.0,0.0,0.0,0.0,0.0,0.0,0.0,0.0,0.0,0.0,0.0,0.0,0.0,0.0,0.0,0.0,0.0,0.0,0.0,0.0,0.0,0.0,0.0,0.0,0.0,0.0,0.0,0.0,0.0,0.0,0.0,0.0,0.0,0.0,0.0,0.0,0.0,0.0,0.0,0.0,0.0,0.0,0.0,0.0,0.0,0.0,0.0,0.0,0.0,0.0,0.0,0.0,0.0,0.0,0.0,0.0,0.0,0.0,0.0,0.0,0.0,0.0,0.0,0.0,0.0,0.0,0.0,0.0,0.0,0.0,0.0,0.0,0.0,0.0,0.0,0.0,0.0,0.0,0.0,0.0,0.0,0.0,0.0,0.0,0.0,0.0,0.0,0.0,0.0,0.0,0.0,0.0,0.0,0.0,0.0,0.0,0.0,0.0,0.0,0.0,0.0,0.0,0.0,0.0,0.0,0.0,0.0,0.0,0.0,0.0,0.0,0.0,0.0,0.0,0.0,0.0,0.0,0.0,0.0,0.0,0.0,0.0,0.0,0.0,0.0,0.0,0.0,0.0,0.0,0.0,0.0,0.0,0.0,0.0,0.0,0.0,0.0,0.0,0.0,0.0,0.0,0.0,0.0,0.0,0.0,0.0,0.0,0.0,0.0,0.0,0.0,0.0,0.0,0.0,0.0,0.0,0.0,0.0,0.0,0.0,0.0,0.0,0.0,0.0,0.0,0.0,0.0,0.0,0.0,0.0,0.0,0.0,0.0,0.0,0.0,0.0,0.0,0.0,0.0,0.0,0.0,0.0,0.0,0.0,0.0,0.0,0.0,0.0,0.0,0.0,0.0,0.0,0.0,0.0,0.0,0.0,0.0,0.0,0.0,0.0,0.0,0.0,0.0,0.0,0.0,0.0,0.0,0.0,0.0,0.0,0.0,0.0,0.0,0.0,0.0,0.0,0.0,0.0,0.0,0.0,0.0,0.0,0.0,0.0,0.0,0.0,0.0,0.0,0.0,0.0,0.0,0.0,0.0,0.0,0.0,0.0,0.0,0.0,0.0,0.0,0.0,0.0,0.0,0.0,0.0,0.0,0.0,0.0,0.0,0.0,0.0,0.0,0.0,0.0,0.0,0.0,0.0,0.0,0.0,0.0,0.0,0.0,0.0,0.0,0.0,0.0,0.0,0.0,0.0,0.0,0.0,0.0,0.0,0.0,0.0,0.0,0.0,0.0,0.0,0.0,0.0,0.0,0.0,0.0,0.0,0.0,0.0,0.0,0.0,0.0,0.0,0.0,0.0,0.0,0.0,0.0,0.0,0.0,0.0,0.0,0.0,0.0,0.0,0.0,0.0,0.0,0.0,0.0,0.0,0.0,0.0,0.0,0.0,0.0,0.0,0.0,0.0,0.0,0.0,0.0,0.0,0.0,0.0,0.0,0.0,0.0,0.0,0.0,0.0,0.0,0.0,0.0,0.0,0.0,0.0,0.0,0.0,0.0,0.0,0.0,0.0,0.0,0.0,0.0,0.0,0.0,0.0,0.0,0.0,0.0,0.0,0.0,0.0,0.0,0.0,0.0,0.0,0.0,0.0,0.0,0.0,0.0,0.0,0.0,0.0,0.0,0.0,0.0,0.0,0.0,0.0,0.0,0.0,0.0,0.0,0.0,0.0,0.0,0.0,0.0,0.0,0.0,0.0,0.0,0.0,0.0,0.0,0.0,0.0,0.0,0.0,0.0,0.0,0.0,0.0,0.0,0.0,0.0,0.0,0.0,0.0,0.0,0.0,0.0,0.0,0.0,0.0,0.0,0.0,0.0,0.0,0.0,0.0,0.0,0.0,0.0,0.0,0.0,0.0,0.0,0.0,0.0,0.0,0.0,0.0,0.0,0.0,0.0,0.0,0.0,0.0,0.0,0.0,0.0,0.0,0.0,0.0,0.0,0.0,0.0,0.0,0.0,0.0,0.0,0.0,0.0,0.0,0.0,0.0,0.0,0.0,0.0,0.0,0.0,0.0,0.0,0.0,0.0,0.0,0.0,0.0,0.0,0.0,0.0,0.0,0.0,0.0,0.0,0.0,0.0,0.0,0.0,0.0,0.0,0.0,0.0,0.0,0.0,0.0,0.0,0.0,0.0,0.0,0.0,0.0,0.0,0.0,0.0,0.0,0.0,0.0,0.0,0.0,0.0,0.0,0.0,0.0,0.0,0.0,0.0,0.0,0.0,0.0,0.0,0.0,0.0,0.0,0.0,0.0,0.0,0.0,0.0,0.0,0.0,0.0,0.0,0.0,0.0,0.0,0.0,0.0,0.0,0.0,0.0,0.0,0.0,0.0,0.0,0.0,0.0,0.0,0.0,0.0,0.0,0.0,0.0,0.0,0.0,0.0,0.0,0.0,0.0,0.0,0.0,0.0,0.0,0.0,0.0,0.0,0.0,0.0,0.0,0.0,0.0,0.0,0.0,0.0,0.0,0.0,0.0,0.0,0.0,0.0,0.0,0.0,0.0,0.0,0.0,0.0,0.0,0.0,0.0,0.0,0.0,0.0,0.0,0.0,0.0,0.0,0.0,0.0,0.0,0.0,0.0,0.0,0.0,0.0,0.0,0.0,0.0,0.0,0.0,0.0,0.0,0.0,0.0,0.0,0.0,0.0,0.0,0.0,0.0,0.0,0.0,0.0,0.0,0.0,0.0,0.0,0.0,0.0,0.0,0.0,0.0,0.0,0.0,0.0,0.0,0.0,0.0,0.0,0.0,0.0,0.0,0.0,0.0,0.0,0.0,0.0,0.0,0.0,0.0,0.0,0.0,0.0,0.0,0.0,0.0,0.0,0.0,0.0,0.0,0.0,0.0,0.0,0.0,0.0,0.0,0.0,0.0,0.0,0.0,0.0,0.0,0.0,0.0,0.0,0.0,0.0,0.0,0.0,0.0,0.0,0.0,0.0,0.0,0.0,0.0,0.0,0.0,0.0,0.0,0.0,0.0,0.0,0.0,0.0,0.0,0.0,0.0,0.0,0.0,0.0,0.0,0.0,0.0,0.0,0.0,0.0,0.0,0.0,0.0,0.0,0.0,0.0,0.0,0.0,0.0,0.0,0.0,0.0,0.0,0.0,0.0,0.0,0.0,0.0,0.0,0.0,0.0,0.0,0.0,0.0,0.0,0.0,0.0,0.0,0.0,0.0,0.0,0.0,0.0,0.0,0.0,0.0,0.0,0.0,0.7622,0.0,0.0,0.0,0.0,0.0,0.0,0.0,0.0,0.0,0.0,0.0,0.0,0.0,0.0,0.0,0.0,0.0,0.0,0.0,0.0,0.0,0.0,0.0,0.0,0.0,0.0,0.0,0.0,0.0,0.0,0.0,0.0,0.0,0.0,0.0,0.0,0.0,0.0,0.0,0.0,0.0,0.0,0.0,0.0,0.0,0.0,0.0,0.0,0.0,0.0,0.0,0.0,0.0,0.0,0.0,0.0,0.0,0.0,0.0,0.0,0.0,0.0,0.0,0.0,0.0,0.0,0.0,0.0,0.0,0.0,0.0,0.0,0.0,0.0,0.0,0.0,0.0,0.0,0.0,0.0,0.0,0.0,0.0,0.0,0.0,0.0,0.0,0.0,0.0,0.0,0.0,0.0,0.0,0.0,0.0,0.0,0.0,0.0,0.0,0.0,0.0,0.0,0.0,0.0,0.0,0.0,0.0,0.0,0.0,0.0,0.7595,0.7602,0.7602,0.7605,0.7642,0.0,0.0,0.0,0.0,0.0,0.0,0.0,0.0,0.0,0.0,0.0,0.0,0.0,0.0,0.0,0.0,0.0,0.0,0.0,0.0,0.0,0.0,0.0,0.0,0.0,0.0,0.0,0.0,0.0,0.0,0.0,0.0,0.0,0.0,0.0,0.0,0.0,0.0,0.0,0.0,0.0,0.0,0.0,0.0,0.0,0.0,0.0,0.0,0.0,0.0,0.0,0.0,0.0,0.0,0.0,0.0,0.0,0.0,0.0,0.0,0.0,0.0,0.0,0.0,0.0,0.0,0.0,0.0,0.0,0.0,0.0,0.0,0.0,0.0,0.0,0.0,0.0,0.0,0.0,0.0,0.0,0.0,0.0,0.0,0.0,0.0,0.0,0.0,0.0,0.0,0.0,0.0,0.0,0.0,0.0,0.0,0.0,0.0,0.0,0.0,0.0,0.0,0.0,0.0,0.0,0.0,0.0,0.0,0.0,0.0,0.0,0.0,0.7503,0.7494,0.743,0.0,0.0,0.0,0.0,0.0,0.0,0.0,0.0,0.0,0.0,0.0,0.0,0.0,0.0,0.0,0.0,0.0,0.0,0.0,0.0,0.0,0.0,0.0,0.0,0.0,0.0,0.0,0.0,0.0,0.0,0.0,0.0,0.0,0.0,0.0,0.0,0.0,0.0,0.0,0.0,0.0,0.0,0.0,0.0,0.0,0.0,0.0,0.0,0.0,0.0,0.0,0.0,0.0,0.0,0.0,0.0,0.0,0.0,0.0,0.0,0.0,0.0,0.0,0.0,0.0,0.0,0.0,0.0,0.0,0.0,0.0,0.0,0.0,0.0,0.0,0.0,0.0,0.0,0.0,0.0,0.0,0.0,0.0,0.0,0.0,0.0,0.0,0.0,0.0,0.0,0.0,0.0,0.0,0.0,0.0,0.0,0.0,0.0,0.0,0.0,0.0,0.0,0.0,0.0,0.0,0.0,0.0,0.0,0.0,0.0,0.7503,0.7503,0.7503,0.0,0.7003,0.0,0.0,0.0,0.0,0.0,0.0,0.0,0.0,0.0,0.0,0.0,0.0,0.0,0.0,0.0,0.0,0.0,0.0,0.0,0.0,0.0,0.0,0.0,0.0,0.0,0.0,0.0,0.0,0.0,0.0,0.0,0.0,0.0,0.0,0.0,0.0,0.0,0.0,0.0,0.0,0.0,0.0,0.0,0.0,0.0,0.0,0.0,0.0,0.0,0.0,0.0,0.0,0.0,0.0,0.0,0.0,0.0,0.0,0.0,0.0,0.0,0.0,0.0,0.0,0.0,0.0,0.0,0.0,0.0,0.0,0.0,0.0,0.0,0.0,0.0,0.0,0.0,0.0,0.0,0.0,0.0,0.0,0.0,0.0,0.0,0.0,0.0,0.0,0.0,0.0,0.0,0.0,0.0,0.0,0.0,0.0,0.0,0.0,0.0,0.0,0.0,0.0,0.0,0.0,0.0,0.0,0.0,0.0,0.0,0.0,0.7288,0.7333,0.7322,0.6996,0.0,0.0,0.0,0.0,0.0,0.0,0.0,0.0,0.0,0.0,0.0,0.0,0.0,0.0,0.0,0.0,0.0,0.0,0.0,0.0,0.0,0.0,0.0,0.0,0.0,0.0,0.0,0.0,0.0,0.0,0.0,0.0,0.0,0.0,0.0,0.0,0.0,0.0,0.0,0.0,0.0,0.0,0.0,0.0,0.0,0.0,0.0,0.0,0.0,0.0,0.0,0.0,0.0,0.0,0.0,0.0,0.0,0.0,0.0,0.0,0.0,0.0,0.0,0.0,0.0,0.0,0.0,0.0,0.0,0.0,0.0,0.0,0.0,0.0,0.0,0.0,0.0,0.0,0.0,0.0,0.0,0.0,0.0,0.0,0.0,0.0,0.0,0.0,0.0,0.0,0.0,0.0,0.0,0.0,0.0,0.0,0.0,0.0,0.0,0.0,0.0,0.0,0.0,0.0,0.0,0.0,0.0,0.0,0.0,0.0,0.7218,0.7272,0.731,0.7307,0.6868,0.5926,0.0,0.0,0.0,0.0,0.0,0.0,0.0,0.0,0.0,0.0,0.0,0.0,0.0,0.0,0.0,0.0,0.0,0.0,0.0,0.0,0.0,0.0,0.0,0.0,0.0,0.0,0.0,0.0,0.0,0.0,0.0,0.0,0.0,0.0,0.0,0.0,0.0,0.0,0.0,0.0,0.0,0.0,0.0,0.0,0.0,0.0,0.0,0.0,0.0,0.0,0.0,0.0,0.0,0.0,0.0,0.0,0.0,0.0,0.0,0.0,0.0,0.0,0.0,0.0,0.0,0.0,0.0,0.0,0.0,0.0,0.0,0.0,0.0,0.0,0.0,0.0,0.0,0.0,0.0,0.0,0.0,0.0,0.0,0.0,0.0,0.0,0.0,0.0,0.0,0.0,0.0,0.0,0.0,0.0,0.0,0.0,0.0,0.0,0.0,0.0,0.0,0.0,0.0,0.0,0.0,0.0,0.0,0.0,0.7375,0.7516,0.7581,0.7589,0.7581,0.7023,0.0,0.0,0.0,0.0,0.0,0.0,0.0,0.0,0.0,0.0,0.0,0.0,0.0,0.0,0.0,0.0,0.0,0.0,0.0,0.0,0.0,0.0,0.0,0.0,0.0,0.0,0.0,0.0,0.0,0.0,0.0,0.0,0.0,0.0,0.0,0.0,0.0,0.0,0.0,0.0,0.0,0.0,0.0,0.0,0.0,0.0,0.0,0.0,0.0,0.0,0.0,0.0,0.0,0.0,0.0,0.0,0.0,0.0,0.0,0.0,0.0,0.0,0.0,0.0,0.0,0.0,0.0,0.0,0.0,0.0,0.0,0.0,0.0,0.0,0.0,0.0,0.0,0.0,0.0,0.0,0.0,0.0,0.0,0.0,0.0,0.0,0.0,0.0,0.0,0.0,0.0,0.0,0.0,0.0,0.0,0.0,0.0,0.0,0.0,0.0,0.0,0.0,0.0,0.0,0.0,0.0,0.0,0.0,0.0,0.7354,0.7805,0.8022,0.797,0.7698,0.713,0.0,0.0,0.0,0.0,0.0,0.0,0.0,0.0,0.0,0.0,0.0,0.0,0.0,0.0,0.0,0.0,0.0,0.0,0.0,0.0,0.0,0.0,0.0,0.0,0.0,0.0,0.0,0.0,0.0,0.0,0.0,0.0,0.0,0.0,0.0,0.0,0.0,0.0,0.0,0.0,0.0,0.0,0.0,0.0,0.0,0.0,0.0,0.0,0.0,0.0,0.0,0.0,0.0,0.0,0.0,0.0,0.0,0.0,0.0,0.0,0.0,0.0,0.0,0.0,0.0,0.0,0.0,0.0,0.0,0.0,0.0,0.0,0.0,0.0,0.0,0.0,0.0,0.0,0.0,0.0,0.0,0.0,0.0,0.0,0.0,0.0,0.0,0.0,0.0,0.0,0.0,0.0,0.0,0.0,0.0,0.0,0.0,0.0,0.0,0.0,0.0,0.0,0.0,0.0,0.0,0.0,0.0,0.0,0.0,0.7974,0.0,0.8792,0.8667,0.8299,0.7618,0.0,0.0,0.0,0.0,0.0,0.0,0.0,0.0,0.0,0.0,0.0,0.0,0.0,0.0,0.0,0.0,0.0,0.0,0.0,0.0,0.0,0.0,0.0,0.0,0.0,0.0,0.0,0.0,0.0,0.0,0.0,0.0,0.0,0.0,0.0,0.0,0.0,0.0,0.0,0.0,0.0,0.0,0.0,0.0,0.0,0.0,0.0,0.0,0.0,0.0,0.0,0.0,0.0,0.0,0.0,0.0,0.0,0.0,0.0,0.0,0.0,0.0,0.0,0.0,0.0,0.0,0.0,0.0,0.0,0.0,0.0,0.0,0.0,0.0,0.0,0.0,0.0,0.0,0.0,0.0,0.0,0.0,0.0,0.0,0.0,0.0,0.0,0.0,0.0,0.0,0.0,0.0,0.0,0.0,0.0,0.0,0.0,0.0,0.0,0.0,0.0,0.0,0.0,0.0,0.0,0.0,0.0,0.0,0.7874,0.937,0.9902,0.9985,0.9651,0.9487,0.8564,0.0,0.0,0.0,0.0,0.0,0.0,0.0,0.0,0.0,0.0,0.0,0.0,0.0,0.0,0.0,0.0,0.0,0.0,0.0,0.0,0.0,0.0,0.0,0.0,0.0,0.0,0.0,0.0,0.0,0.0,0.0,0.0,0.0,0.0,0.0,0.0,0.0,0.0,0.0,0.0,0.0,0.0,0.0,0.0,0.0,0.0,0.0,0.0,0.0,0.0,0.0,0.0,0.0,0.0,0.0,0.0,0.0,0.0,0.0,0.0,0.0,0.0,0.0,0.0,0.0,0.0,0.0,0.0,0.0,0.0,0.0,0.0,0.0,0.0,0.0,0.0,0.0,0.0,0.0,0.0,0.0,0.0,0.0,0.0,0.0,0.0,0.0,0.0,0.0,0.0,0.0,0.0,0.0,0.0,0.0,0.0,0.0,0.0,0.0,0.0,0.0,0.0,0.0,0.0,0.0,0.0,0.0,0.0,0.0,1.1307,1.1552,1.1672,1.1645,1.0775,0.9602,0.0,0.0,0.0,0.0,0.0,0.0,0.0,0.0,0.0,0.0,0.0,0.0,0.0,0.0,0.0,0.0,0.0,0.0,0.0,0.0,0.0,0.0,0.0,0.0,0.0,0.0,0.0,0.0,0.0,0.0,0.0,0.0,0.0,0.0,0.0,0.0,0.0,0.0,0.0,0.0,0.0,0.0,0.0,0.0,0.0,0.0,0.0,0.0,0.0,0.0,0.0,0.0,0.0,0.0,0.0,0.0,0.0,0.0,0.0,0.0,0.0,0.0,0.0,0.0,0.0,0.0,0.0,0.0,0.0,0.0,0.0,0.0,0.0,0.0,0.0,0.0,0.0,0.0,0.0,0.0,0.0,0.0,0.0,0.0,0.0,0.0,0.0,0.0,0.0,0.0,0.0,0.0,0.0,0.0,0.0,0.0,0.0,0.0,0.0,0.0,0.0,0.0,0.0,0.0,0.0,0.0,0.0,0.0,0.0,1.5146,1.48,1.453,1.4359,1.3291,1.1673,0.9497,0.0,0.0,0.0,0.0,0.0,0.0,0.0,0.0,0.0,0.0,0.0,0.0,0.0,0.0,0.0,0.0,0.0,0.0,0.0,0.0,0.0,0.0,0.0,0.0,0.0,0.0,0.0,0.0,0.0,0.0,0.0,0.0,0.0,0.0,0.0,0.0,0.0,0.0,0.0,0.0,0.0,0.0,0.0,0.0,0.0,0.0,0.0,0.0,0.0,0.0,0.0,0.0,0.0,0.0,0.0,0.0,0.0,0.0,0.0,0.0,0.0,0.0,0.0,0.0,0.0,0.0,0.0,0.0,0.0,0.0,0.0,0.0,0.0,0.0,0.0,0.0,0.0,0.0,0.0,0.0,0.0,0.0,0.0,0.0,0.0,0.0,0.0,0.0,0.0,0.0,0.0,0.0,0.0,0.0,0.0,0.0,0.0,0.0,0.0,0.0,0.0,0.0,0.0,0.0,0.0,0.0,0.0,0.0,2.035,1.9351,1.8411,1.7617,1.6663,1.4491,0.0,0.0,0.0,0.0,0.0,0.0,0.0,0.0,0.0,0.0,0.0,0.0,0.0,0.0,0.0,0.0,0.0,0.0,0.0,0.0,0.0,0.0,0.0,0.0,0.0,0.0,0.0,0.0,0.0,0.0,0.0,0.0,0.0,0.0,0.0,0.0,0.0,0.0,0.0,0.0,0.0,0.0,0.0,0.0,0.0,0.0,0.0,0.0,0.0,0.0,0.0,0.0,0.0,0.0,0.0,0.0,0.0,0.0,0.0,0.0,0.0,0.0,0.0,0.0,0.0,0.0,0.0,0.0,0.0,0.0,0.0,0.0,0.0,0.0,0.0,0.0,0.0,0.0,0.0,0.0,0.0,0.0,0.0,0.0,0.0,0.0,0.0,0.0,0.0,0.0,0.0,0.0,0.0,0.0,0.0,0.0,0.0,0.0,0.0,0.0,0.0,0.0,0.0,0.0,0.0,0.0,0.0,0.0,0.0,2.2671,2.4053,2.367,2.1476,1.8603,1.5824,0.0,0.0,0.0,0.0,0.0,0.0,0.0,0.0,0.0,0.0,0.0,0.0,0.0,0.0,0.0,0.0,0.0,0.0,0.0,0.0,0.0,0.0,0.0,0.0,0.0,0.0,0.0,0.0,0.0,0.0,0.0,0.0,0.0,0.0,0.0,0.0,0.0,0.0,0.0,0.0,0.0,0.0,0.0,0.0,0.0,0.0,0.0,0.0,0.0,0.0,0.0,0.0,0.0,0.0,0.0,0.0,0.0,0.0,0.0,0.0,0.0,0.0,0.0,0.0,0.0,0.0,0.0,0.0,0.0,0.0,0.0,0.0,0.0,0.0,0.0,0.0,0.0,0.0,0.0,0.0,0.0,0.0,0.0,0.0,0.0,0.0,0.0,0.0,0.0,0.0,0.0,0.0,0.0,0.0,0.0,0.0,0.0,0.0,0.0,0.0,0.0,0.0,0.0,0.0,0.0,0.0,0.0,0.0,2.0927,2.3789,2.5812,2.6222,2.4913,2.1326,1.7932,0.0,0.0,0.0,0.0,0.0,0.0,0.0,0.0,0.0,0.0,0.0,0.0,0.0,0.0,0.0,0.0,0.0,0.0,0.0,0.0,0.0,0.0,0.0,0.0,0.0,0.0,0.0,0.0,0.0,0.0,0.0,0.0,0.0,0.0,0.0,0.0,0.0,0.0,0.0,0.0,0.0,0.0,0.0,0.0,0.0,0.0,0.0,0.0,0.0,0.0,0.0,0.0,0.0,0.0,0.0,0.0,0.0,0.0,0.0,0.0,0.0,0.0,0.0,0.0,0.0,0.0,0.0,0.0,0.0,0.0,0.0,0.0,0.0,0.0,0.0,0.0,0.0,0.0,0.0,0.0,0.0,0.0,0.0,0.0,0.0,0.0,0.0,0.0,0.0,0.0,0.0,0.0,0.0,0.0,0.0,0.0,0.0,0.0,0.0,0.0,0.0,0.0,0.0,0.0,0.0,0.0,0.0,0.0,2.1636,2.3983,2.5768,2.6889,2.7276,2.3945,2.0244,0.0,0.0,0.0,0.0,0.0,0.0,0.0,0.0,0.0,0.0,0.0,0.0,0.0,0.0,0.0,0.0,0.0,0.0,0.0,0.0,0.0,0.0,0.0,0.0,0.0,0.0,0.0,0.0,0.0,0.0,0.0,0.0,0.0,0.0,0.0,0.0,0.0,0.0,0.0,0.0,0.0,0.0,0.0,0.0,0.0,0.0,0.0,0.0,0.0,0.0,0.0,0.0,0.0,0.0,0.0,0.0,0.0,0.0,0.0,0.0,0.0,0.0,0.0,0.0,0.0,0.0,0.0,0.0,0.0,0.0,0.0,0.0,0.0,0.0,0.0,0.0,0.0,0.0,0.0,0.0,0.0,0.0,0.0,0.0,0.0,0.0,0.0,0.0,0.0,0.0,0.0,0.0,0.0,0.0,0.0,0.0,0.0,0.0,0.0,0.0,0.0,0.0,0.0,0.0,0.0,0.0,0.0,0.0,2.1952,2.4178,2.5695,2.6323,2.6026,2.3475,2.0819,0.0,0.0,0.0,0.0,0.0,0.0,0.0,0.0,0.0,0.0,0.0,0.0,0.0,0.0,0.0,0.0,0.0,0.0,0.0,0.0,0.0,0.0,0.0,0.0,0.0,0.0,0.0,0.0,0.0,0.0,0.0,0.0,0.0,0.0,0.0,0.0,0.0,0.0,0.0,0.0,0.0,0.0,0.0,0.0,0.0,0.0,0.0,0.0,1.2743,0.0,0.0,0.0,0.0,0.0,0.0,0.0,0.0,0.0,0.0,0.0,0.0,0.0,0.0,0.0,0.0,0.0,0.0,0.0,0.0,0.0,0.0,0.0,0.0,0.0,0.0,0.0,0.0,0.0,0.0,0.0,0.0,0.0,0.0,0.0,0.0,0.0,0.0,0.0,0.0,0.0,0.0,0.0,0.0,0.0,0.0,0.0,0.0,0.0,0.0,0.0,0.0,0.0,0.0,0.0,0.0,0.0,0.0,0.0,2.2173,2.4549,2.5754,2.6105,2.5525,2.3787,2.1521,0.0,0.0,0.0,0.0,0.0,0.0,0.0,0.0,0.0,0.0,0.0,0.0,0.0,0.0,0.0,0.0,0.0,0.0,0.0,0.0,0.0,0.0,0.0,0.0,0.0,0.0,0.0,0.0,0.0,0.0,0.0,0.0,0.0,0.0,0.0,0.0,0.0,0.0,0.0,0.0,0.0,0.0,0.0,0.0,0.0,0.0,0.0,0.0,0.0,0.0,0.0,0.0,0.0,0.0,0.0,0.0,0.0,0.0,0.0,0.0,0.0,0.0,0.0,0.0,0.0,0.0,0.0,0.0,0.0,0.0,0.0,0.0,0.0,0.0,0.0,0.0,0.0,0.0,0.0,0.0,0.0,0.0,0.0,0.0,0.0,0.0,0.0,0.0,0.0,0.0,0.0,0.0,0.0,0.0,0.0,0.0,0.0,0.0,0.0,0.0,0.0,0.0,0.0,0.0,0.0,0.0,0.0,1.9685,2.2306,2.491,2.573,2.5858,2.5345,2.4181,2.1969,1.8659,0.0,0.0,0.0,0.0,0.0,0.0,0.0,0.0,0.0,0.0,0.0,0.0,0.0,0.0,0.0,0.0,0.0,0.0,0.0,0.0,0.0,0.0,0.0,0.0,0.0,0.0,0.0,0.0,0.0,0.0,0.0,0.0,0.0,0.0,0.0,0.0,0.0,0.0,0.9654,1.151,0.0,0.0,0.0,0.0,0.0,0.0,0.0,0.0,1.5201,0.0,0.0,0.0,0.0,0.0,0.0,0.0,0.0,0.0,0.0,0.0,0.0,0.0,0.0,0.0,0.0,0.0,0.0,0.0,0.0,0.0,0.0,0.0,0.0,0.0,0.0,0.0,0.0,0.0,0.0,0.0,0.0,0.0,0.0,0.0,0.0,0.0,0.0,0.0,0.0,0.0,0.0,0.0,0.0,0.0,0.0,0.0,0.0,0.0,0.0,0.0,0.0,0.0,0.0,0.0,0.0,1.7859,2.0065,2.24,2.4931,2.514,2.5057,2.471,2.3478,2.14,1.8453,0.0,0.0,0.0,0.0,0.0,0.0,0.0,0.0,0.0,0.0,0.0,0.0,0.0,0.0,0.0,0.0,0.0,0.0,0.0,0.0,0.0,0.0,0.0,0.0,0.0,0.0,0.0,0.0,0.0,0.0,0.0,0.0,0.0,0.0,0.0,0.0,0.0,0.0,0.0,1.3521,1.4676,0.0,0.0,0.0,0.0,0.0,0.0,0.0,0.0,1.642,0.0,0.0,0.0,0.0,0.0,0.0,0.0,0.0,0.0,0.0,0.0,0.0,0.0,0.0,0.0,0.0,0.0,0.0,0.0,0.0,0.0,0.0,0.0,0.0,0.0,0.0,0.0,0.0,0.0,0.0,0.0,0.0,0.0,0.0,0.0,0.0,0.0,0.0,0.0,0.0,0.0,0.0,0.0,0.0,0.0,0.0,0.0,0.0,0.0,0.0,0.0,0.0,0.0,0.0,0.0,1.837,2.0967,2.3431,2.5726,2.5833,2.5375,2.4407,2.336,2.1155,0.0,0.0,0.0,0.0,0.0,0.0,0.0,0.0,0.0,0.0,0.0,0.0,0.0,0.0,0.0,0.0,0.0,0.0,0.0,0.0,0.0,0.0,0.0,0.0,0.0,0.0,0.0,0.0,0.0,0.0,0.0,0.0,0.0,0.0,0.0,0.0,0.0,0.0,0.0,0.0,1.4722,1.6149,1.7086,0.0,0.0,0.0,0.0,0.0,0.0,1.7593,1.7683,0.0,0.0,0.0,0.0,0.0,0.0,0.0,0.0,0.0,0.0,0.0,0.0,0.0,0.0,0.0,0.0,0.0,0.0,0.0,0.0,0.0,0.0,0.0,0.0,0.0,0.0,0.0,0.0,0.0,0.0,0.0,0.0,0.0,0.0,0.0,0.0,0.0,0.0,0.0,0.0,0.0,0.0,0.0,0.0,0.0,0.0,0.0,0.0,0.0,0.0,0.0,0.0,0.0,0.0,0.0,1.8638,2.1638,2.4059,2.5873,2.5981,2.5317,2.3867,2.28,2.0546,0.0,0.0,0.0,0.0,0.0,0.0,0.0,0.0,0.0,0.0,0.0,0.0,0.0,0.0,0.0,0.0,0.0,0.0,0.0,0.0,0.0,0.0,0.0,0.0,0.0,0.0,0.0,0.0,0.0,0.0,0.0,0.0,0.0,0.0,0.0,0.0,0.0,0.0,0.0,0.0,0.0,1.7349,1.8159,1.8564,0.0,0.0,0.0,0.0,1.794,1.8814,0.0,0.0,0.0,0.0,0.0,0.0,0.0,0.0,0.0,0.0,0.0,0.0,0.0,0.0,0.0,0.0,0.0,0.0,0.0,0.0,0.0,0.0,0.0,0.0,0.0,0.0,0.0,0.0,0.0,0.0,0.0,0.0,0.0,0.0,0.0,0.0,0.0,0.0,0.0,0.0,0.0,0.0,0.0,0.0,0.0,0.0,0.0,0.0,0.0,0.0,0.0,0.0,0.0,0.0,0.0,0.0,1.8237,2.1189,2.3056,2.3825,2.3929,2.3536,2.2615,2.0819,1.8781,0.0,0.0,0.0,0.0,0.0,0.0,0.0,0.0,0.0,0.0,0.0,0.0,0.0,0.0,0.0,0.0,0.0,0.0,0.0,0.0,0.0,0.0,0.0,0.0,0.0,0.0,0.0,0.0,0.0,0.0,0.0,0.0,0.0,0.0,0.0,0.0,0.0,0.0,0.0,0.0,0.0,1.7937,1.9067,1.9516,1.9614,0.0,0.0,1.923,1.9699,2.021,0.0,0.0,0.0,0.0,0.0,0.0,0.0,0.0,0.0,0.0,0.0,0.0,0.0,0.0,0.0,0.0,0.0,0.0,0.0,0.0,0.0,0.0,0.0,0.0,0.0,0.0,0.0,0.0,0.0,0.0,0.0,0.0,0.0,0.0,0.0,0.0,0.0,0.0,0.0,0.0,0.0,0.0,0.0,0.0,0.0,0.0,0.0,0.0,0.0,0.0,0.0,0.0,0.0,0.0,0.0,1.5141,1.81,2.0781,2.249,2.3224,2.3088,2.2421,2.1241,1.9848,1.7988,0.0,0.0,0.0,0.0,0.0,0.0,0.0,0.0,0.0,0.0,0.0,0.0,0.0,0.0,0.0,0.0,0.0,0.0,0.0,0.0,0.0,0.0,0.0,0.0,0.0,0.0,0.0,0.0,0.0,0.0,0.0,0.0,0.0,0.0,0.0,0.0,0.0,0.0,0.0,0.0,0.0,0.0,1.8588,1.9742,0.0,0.0,0.0,2.0342,2.0722,0.0,0.0,0.0,0.0,0.0,0.0,0.0,0.0,0.0,0.0,0.0,0.0,0.0,0.0,0.0,0.0,0.0,0.0,0.0,0.0,0.0,0.0,0.0,0.0,0.0,0.0,0.0,0.0,0.0,0.0,0.0,0.0,0.0,0.0,0.0,0.0,0.0,0.0,0.0,0.0,0.0,0.0,0.0,0.0,0.0,0.0,0.0,0.0,0.0,0.0,0.0,0.0,0.0,0.0,0.0,0.0,0.0,1.7801,2.0332,2.1935,2.2478,2.2212,2.144,2.0145,1.9105,0.0,0.0,0.0,0.0,0.0,0.0,0.0,0.0,0.0,0.0,0.0,0.0,0.0,0.0,0.0,0.0,0.0,0.0,0.0,0.0,0.0,0.0,0.0,0.0,0.0,0.0,0.0,0.0,0.0,0.0,0.0,0.0,0.0,0.0,0.0,0.0,0.0,0.0,0.0,0.0,0.0,0.0,1.7681,1.842,1.9889,2.0822,0.0,0.0,2.1172,2.1421,2.1542,2.1494,0.0,0.0,0.0,0.0,0.0,0.0,0.0,0.0,0.0,0.0,0.0,0.0,0.0,0.0,0.0,0.0,0.0,0.0,0.0,0.0,0.0,0.0,0.0,0.0,0.0,0.0,0.0,0.0,0.0,0.0,0.0,0.0,0.0,0.0,0.0,0.0,0.0,0.0,0.0,0.0,0.0,0.0,0.0,0.0,0.0,0.0,0.0,0.0,0.0,0.0,0.0,0.0,0.0,0.0,0.0,1.709,1.9819,2.1125,2.0866,2.0887,2.0476,1.9579,1.8273,1.682,0.0,0.0,0.0,0.0,0.0,0.0,0.0,0.0,0.0,0.0,0.0,0.0,0.0,0.0,0.0,0.0,0.0,0.0,0.0,0.0,0.0,0.0,0.0,0.0,0.0,0.0,0.0,0.0,0.0,0.0,0.0,0.0,0.0,0.0,0.0,0.0,0.0,0.0,0.0,0.0,0.0,1.8145,1.9165,2.0137,2.0786,0.0,0.0,2.1512,2.189,2.2476,2.2824,2.2662,0.0,0.0,0.0,0.0,0.0,0.0,0.0,0.0,0.0,0.0,0.0,0.0,0.0,0.0,0.0,0.0,0.0,0.0,0.0,0.0,0.0,0.0,0.0,0.0,0.0,0.0,0.0,0.0,0.0,0.0,0.0,0.0,0.0,0.0,0.0,0.0,0.0,0.0,0.0,0.0,0.0,0.0,0.0,0.0,0.0,0.0,0.0,0.0,0.0,0.0,0.0,0.0,0.0,1.4977,1.7524,1.9378,2.0691,2.1349,2.1372,2.0877,1.9891,1.8672,1.7372,0.0,0.0,0.0,0.0,0.0,0.0,0.0,0.0,0.0,0.0,0.0,0.0,0.0,0.0,0.0,0.0,0.0,0.0,0.0,0.0,0.0,0.0,0.0,0.0,0.0,0.0,0.0,0.0,1.0318,1.1089,1.1786,0.0,0.0,0.0,0.0,0.0,0.0,0.0,0.0,0.0,0.0,1.7956,1.8891,2.0114,0.0,0.0,2.1636,2.2173,2.2459,2.2931,2.3172,2.2897,2.2599,0.0,0.0,0.0,0.0,0.0,0.0,0.0,0.0,0.0,0.0,0.0,0.0,0.0,0.0,0.0,0.0,0.0,0.0,0.0,0.0,0.0,0.0,0.0,0.0,0.0,0.0,0.0,0.0,0.0,0.0,0.0,0.0,0.0,0.0,0.0,0.0,0.0,0.0,0.0,0.0,0.0,0.0,0.0,0.0,0.0,0.0,0.0,0.0,0.0,0.0,0.0,0.0,1.5514,1.8446,1.9832,2.1176,2.2408,2.2464,2.2023,2.1066,2.0053,1.8754,0.0,0.0,0.0,0.0,0.0,0.0,0.0,0.0,0.0,0.0,0.0,0.0,0.0,0.0,0.0,0.0,0.0,0.0,0.0,0.0,0.0,0.0,0.0,0.0,0.0,0.0,0.0,0.0,1.102,1.1799,1.2608,0.0,0.0,0.0,0.0,0.0,0.0,0.0,0.0,0.0,0.0,1.8088,1.9049,2.0355,2.1228,2.1302,2.2108,2.2787,2.2985,2.326,2.3406,2.337,0.0,0.0,0.0,0.0,0.0,0.0,0.0,0.0,0.0,0.0,0.0,0.0,0.0,0.0,0.0,0.0,0.0,0.0,0.0,0.0,0.0,0.0,0.0,0.0,0.0,0.0,0.0,0.0,0.0,0.0,0.5577,0.0,0.0,0.0,0.0,0.0,0.0,0.0,0.0,0.0,0.0,0.0,0.0,0.0,0.0,0.0,0.0,0.0,0.0,0.0,0.0,0.0,0.0,1.7178,1.9764,2.1474,2.2823,2.3861,2.4134,2.3938,2.3275,2.2447,2.1064,1.9033,0.0,0.0,0.0,0.0,0.0,0.0,0.0,0.0,0.0,0.0,0.0,0.0,0.0,0.0,0.0,0.0,0.0,0.0,0.0,0.0,0.0,0.0,0.0,0.0,0.0,0.0,1.0847,1.1898,1.2758,0.0,0.0,0.0,0.0,0.0,0.0,0.0,0.0,0.0,0.0,1.7979,1.8711,1.9913,2.0881,2.1609,2.178,2.2604,2.3265,2.3487,2.3528,2.3707,0.0,0.0,0.0,0.0,0.0,0.0,0.0,0.0,0.0,0.0,0.0,0.0,0.0,0.0,0.0,0.0,0.0,0.0,0.0,0.0,0.0,0.0,0.0,0.0,0.0,0.0,0.0,0.7311,0.8573,0.0,0.0,0.0,0.0,0.0,0.0,0.0,0.0,0.0,0.0,0.0,1.3831,1.3344,0.0,0.0,0.0,0.0,0.0,0.0,0.0,0.0,0.0,0.0,0.0,0.0,1.9647,2.209,2.4122,2.5616,2.6603,2.6883,2.6743,2.6098,2.5446,2.3892,2.1354,0.0,0.0,0.0,0.0,0.0,0.0,0.0,0.0,0.0,0.0,0.0,0.0,0.0,0.0,0.0,0.0,0.0,0.0,0.0,0.0,0.0,0.0,0.0,0.0,0.0,1.0893,0.0,0.0,0.0,0.0,0.0,0.0,0.0,0.0,0.0,0.0,0.0,1.666,1.7723,1.8844,1.9841,2.0532,2.1624,2.2492,0.0,0.0,0.0,0.0,0.0,0.0,0.0,0.0,0.0,0.0,0.0,0.0,0.0,0.0,2.6013,2.4582,2.4752,2.5214,2.5475,0.0,0.0,0.0,0.0,0.0,0.0,0.0,0.0,0.0,0.0,0.0,0.0,0.0,0.0,0.9791,0.0,1.1071,0.0,0.0,0.0,0.0,0.0,0.0,0.0,0.0,1.6952,1.716,1.6615,1.5909,1.5132,0.0,1.4364,1.3616,0.0,0.0,0.0,0.0,0.0,0.0,0.0,0.0,2.1937,2.4285,2.6387,2.7882,2.8699,2.9001,2.889,2.8408,2.7374,2.5875,2.3937,2.2994,2.1419,0.0,0.0,0.0,0.0,0.0,0.0,0.0,0.0,0.0,0.0,0.0,0.0,0.0,0.0,0.0,0.0,0.0,0.0,0.0,0.0,0.0,0.0,0.0,1.2086,0.0,0.0,0.0,0.0,0.0,0.0,0.0,0.0,0.0,1.6391,1.7054,1.7932,1.8789,1.9995,2.0977,2.1491,0.0,0.0,0.0,0.0,0.0,0.0,0.0,2.6499,2.625,2.6388,2.6629,2.6969,2.7659,2.8199,2.8229,0.0,0.0,2.6866,2.7063,2.758,2.7698,2.8205,2.8778,2.9384,2.9843,3.0281,0.0,0.0,0.0,0.0,0.0,0.0,0.0,0.0,1.1813,1.2301,0.0,1.3018,0.0,0.0,0.0,0.0,0.0,1.6263,0.0,0.0,2.0156,2.0508,1.9112,1.8718,1.8011,1.6999,1.7169,1.7648,1.8164,1.6784,0.0,0.0,0.0,0.0,0.0,0.0,2.4065,2.6321,2.8265,2.953,3.0175,3.0417,3.0417,3.0119,2.8334,2.7188,2.6724,2.5577,2.448,2.3392,2.021,0.0,0.0,0.0,0.0,0.0,0.0,0.0,0.0,0.0,0.0,0.0,0.0,0.0,0.0,0.0,0.0,0.0,0.0,0.0,0.0,1.2689,0.0,0.0,0.0,0.0,0.0,0.0,0.0,0.0,0.0,0.0,1.8223,1.8809,1.9648,2.0527,0.0,0.0,0.0,0.0,2.4589,2.485,2.5858,2.662,2.6662,2.7078,2.744,2.7651,0.0,0.0,2.8715,2.9615,3.0218,3.0381,3.0744,3.0591,2.8844,2.9224,2.9894,3.0275,3.006,3.0116,3.0902,3.1209,3.1422,1.193,0.0,0.0,0.0,0.0,1.0511,1.2,1.4476,1.4387,1.5169,1.6533,1.612,0.0,0.0,0.0,0.0,0.0,0.0,1.8355,1.9123,2.0162,2.026,1.951,1.9281,1.8892,1.8442,1.9228,2.0209,2.1354,2.2609,2.185,1.9325,0.0,0.0,0.0,0.0,2.7396,2.9047,3.0789,3.1766,3.1966,3.1852,3.1633,3.132,3.0775,3.0097,2.9241,2.8594,2.6785,2.3687,2.1195,0.0,0.0,0.0,0.0,0.0,0.0,0.0,0.0,0.0,0.0,0.0,0.0,0.0,0.0,0.0,0.0,0.0,0.0,0.0,1.2557,1.3722,1.4421,0.0,0.0,0.0,0.0,0.0,0.0,0.0,0.0,0.0,2.0742,2.0449,2.0547,0.0,0.0,2.3047,2.3837,2.4634,2.5415,2.6104,2.681,0.0,0.0,2.8524,2.8888,2.9394,2.9766,3.0012,2.9951,3.0708,3.1159,3.0969,3.1487,3.1871,3.1514,3.1116,3.1071,3.1273,3.1549,3.1834,3.2134,3.2475,3.2781,1.58,1.4277,1.2574,1.2417,1.3267,1.3265,1.4566,1.6708,1.6484,1.7024,1.802,1.7638,1.7086,1.6472,1.6227,0.0,0.0,0.0,1.9162,1.9954,2.0218,2.039,2.043,2.0139,1.9973,2.0017,2.1023,2.2125,2.3207,2.5297,2.5423,2.3598,0.0,0.0,2.6042,2.7933,2.9486,3.0589,3.1966,3.2641,3.2555,3.2248,3.2018,3.1816,3.1672,3.1379,3.0899,3.0229,2.8694,2.6091,2.2949,1.9696,0.0,0.0,0.0,0.0,0.0,0.0,0.0,0.0,0.0,0.0,0.0,0.8401,0.0,0.0,0.0,0.0,1.2103,1.3084,1.4035,1.4786,0.0,0.0,0.0,0.0,0.0,0.0,0.0,1.9812,2.0952,2.201,2.2773,2.2443,2.2305,2.2812,2.361,2.4391,2.5117,0.0,2.6641,2.7201,2.7889,2.8628,2.9384,2.978,3.0207,3.0721,3.1079,3.1323,3.1308,3.1867,3.2236,3.2127,3.2455,3.2831,3.2905,3.2505,3.2226,3.2346,3.2512,3.2697,3.2894,3.3074,3.3223,1.904,1.8928,1.4965,1.4234,1.5684,1.6002,1.7005,1.8425,1.8152,1.812,1.8213,1.8065,1.7937,1.7866,1.8179,0.0,1.8213,1.9139,1.9898,2.0558,2.0372,2.0729,2.1496,2.1095,2.1107,2.1477,2.2567,2.3444,2.4255,2.5971,2.7287,2.8252,2.8658,2.8804,2.8831,2.9755,3.0562,3.1144,3.2101,3.2449,3.219,3.1903,3.173,3.173,3.1412,3.1412,3.1672,3.0794,2.9989,2.928,2.4844,2.1217,1.8839,0.0,0.0,0.0,0.0,0.0,0.0,0.0,0.0,0.0,0.0,0.0,0.0,0.0,0.0,0.0,1.3826,0.0,1.5565,1.5877,0.0,0.0,0.0,1.7167,1.782,1.9216,2.0467,2.1303,0.0,0.0,2.4473,2.4606,2.4645,2.4742,2.5328,2.5952,2.6465,2.7347,2.8048,2.8127,2.9,2.9868,3.0269,3.0846,3.1308,3.1672,3.1881,3.2096,3.2474,3.2909,3.326,3.3207,3.3347,3.3379,3.3367,3.3301,3.3386,3.332,3.3086,3.2949,3.3262,3.3125,3.3027,1.9731,1.9867,1.8843,1.8345,1.8246,1.8507,1.8801,1.9087,1.9214,1.9268,1.9208,1.8891,1.8567,1.8278,1.836,1.8529,1.8775,1.9035,1.9529,2.0198,2.0178,2.0402,2.0927,2.1016,2.1402,2.2054,2.3197,2.4425,2.5712,2.7621,2.897,2.9761,3.0348,3.05,3.0241,3.0678,3.0862,3.0841,3.1365,3.1498,3.1267,3.1354,3.1325,3.1112,3.1025,3.1025,3.1112,3.0334,2.8925,2.6786,2.3816,2.0799,1.7884,1.5196,0.0,0.0,0.0,0.0,0.0,0.0,0.0,0.0,0.0,1.0786,1.13,0.0,1.2948,0.0,1.5052,1.6096,1.6527,1.6951,0.0,0.0,1.8171,1.8884,1.9414,2.1109,2.2491,2.3044,2.4191,2.5308,2.6269,2.6381,2.6732,2.765,2.6914,2.6646,2.7656,2.8015,2.8459,2.9101,2.9609,3.0091,3.0596,3.1551,3.2247,3.2356,3.2729,3.2959,3.2779,3.3113,3.3297,3.3027,3.3223,3.3347,3.3386,3.3386,3.3386,3.3386,3.3308,3.3269,3.3367,3.3308,3.3301,2.0181,2.0428,2.0431,2.0182,1.981,1.9622,1.9375,1.9138,1.9288,1.9325,1.9242,1.9008,1.8791,1.8606,1.892,1.9202,1.942,1.9536,1.9922,2.0401,2.0373,2.0625,2.1136,2.1556,2.2144,2.2852,2.3956,2.4986,2.6019,2.7827,2.904,2.9601,3.0151,3.0286,3.011,3.048,3.0721,3.0756,3.0983,3.1063,3.0918,3.1034,3.1054,3.0928,3.0928,3.0928,3.0879,2.9872,2.8473,2.6681,2.4043,2.1446,1.8963,1.6935,1.5428,0.0,0.0,0.0,0.0,0.0,0.0,0.0,0.0,0.0,0.0,0.0,1.422,1.5142,1.6556,1.755,1.7894,1.8499,1.8933,1.9046,1.9826,2.0627,2.1274,2.2822,2.4163,2.496,2.6098,2.7187,2.8027,2.832,2.8769,2.9668,2.9012,2.8496,2.8816,2.9004,2.9344,2.9794,3.0181,3.0541,3.1003,3.1811,3.248,3.2667,3.2956,3.3105,3.3086,3.3262,3.3308,3.3144,3.3262,3.3386,3.3386,3.3386,3.3386,3.3386,3.3386,3.3386,3.3386,3.3386,3.3386,2.0598,2.0864,2.0788,2.0815,2.0822,2.0167,1.9549,1.9095,1.912,1.9107,1.904,1.9095,1.9127,1.9159,1.9838,2.015,2.0166,2.0445,2.073,2.0972,2.0966,2.1262,2.1828,2.2485,2.3125,2.3774,2.4712,2.5353,2.5783,2.74,2.8398,2.871,2.9117,2.9325,2.9411,2.9776,3.018,3.0616,3.0577,3.0655,3.0752,3.085,3.0928,3.0928,3.0928,3.0928,3.0879,2.9556,2.8502,2.7744,2.5088,2.2863,2.1289,1.9513,1.8072,0.0,1.668,0.0,0.0,0.0,0.0,0.0,0.0,0.0,0.0,1.4822,1.5796,1.6935,1.8279,1.924,1.963,2.0383,2.0911,2.1081,2.1762,2.2571,2.3462,2.4659,2.5825,2.6968,2.8011,2.8973,2.9715,3.0156,3.0527,3.0918,3.0937,3.0673,3.0146,3.0117,3.0254,3.0332,3.0644,3.0967,3.1397,3.1885,3.2335,3.2707,3.2871,3.3008,3.3308,3.3367,3.3386,3.3367,3.3386,3.3386,3.3386,3.3386,3.3386,3.3386,3.3386,3.3386,3.3386,3.3386,3.3386,2.1351,2.1799,2.1332,2.1382,2.1806,2.1394,2.083,2.0202,2.0355,2.0419,2.0367,2.0695,2.0834,2.0867,2.1271,2.1443,2.1443,2.1492,2.1715,2.202,2.2212,2.2559,2.3,2.3539,2.4061,2.4525,2.5201,2.5865,2.6524,2.7631,2.8387,2.879,2.925,2.9554,2.976,0.0,0.0,0.0,2.9125,2.9221,3.006,3.0616,3.0928,3.0928,3.0928,0.0,3.0879,3.0045,2.9136,2.8202,2.661,0.0,0.0,0.0,0.0,0.0,0.0,0.0,0.0,0.0,0.0,0.0,1.98,1.871,1.6546,1.7408,1.8642,1.9868,2.0353,2.102,2.2031,2.2497,2.3013,2.3556,2.4448,2.5397,2.6372,2.7398,2.8366,2.9122,2.9907,3.0586,3.1035,3.1201,3.1445,3.1866,3.1964,3.1885,3.1729,3.1162,3.0898,3.1172,3.1094,3.1074,3.1435,3.1894,3.2374,3.2715,3.3086,3.3269,3.3367,3.3386,3.3386,3.3386,3.3386,3.3386,3.3386,3.3386,3.3386,3.3386,3.3386,3.3386,3.3386,3.3386,3.3386,2.2112,0.0,2.2584,2.2819,0.0,2.3215,2.3069,2.2662,2.1914,2.1727,2.2004,2.2215,2.2283,2.23,2.2646,2.2671,2.2494,2.2679,2.2917,2.3234,2.3382,2.3625,2.3947,2.4386,2.4783,2.5165,2.5838,2.6399,2.6983,2.7869,2.8457,2.8787,2.8904,2.9122,2.9367,2.8539,2.8573,2.9509,2.9431,2.9873,3.0749,3.1285,3.1455,3.1211,3.1191,0.0,0.0,0.0,0.0,0.0,0.0,0.0,0.0,2.5663,0.0,2.4485,2.396,2.3489,2.316,2.3304,2.3502,2.3658,2.3874,2.2587,1.9331,1.9833,2.0742,2.1704,2.259,2.35,2.4438,2.5371,2.6089,2.6581,2.7267,2.7907,2.8502,2.9365,3.0007,3.0364,3.122,3.1914,3.2109,3.2313,3.2489,3.2754,3.2793,3.2773,3.2715,3.2081,3.1621,3.1816,3.168,3.1631,3.1816,3.2218,3.2519,3.2793,3.3144,3.3347,3.3386,3.3386,3.3386,3.3386,3.3386,3.3386,3.3386,3.3386,3.3386,3.3386,3.3386,3.3386,3.3386,3.3386,3.3386,2.2886,2.3095,2.3791,2.4231,2.4463,2.5026,2.5406,2.553,0.0,0.0,0.0,2.4105,2.4166,2.4184,2.4474,2.4403,2.4114,2.4269,2.4506,2.4747,2.4693,2.4774,2.5005,2.5325,2.563,2.5937,2.658,2.7082,2.7501,2.8163,2.8658,2.8928,2.8753,2.8801,2.9015,2.8525,2.8768,2.9732,3.0165,3.0757,3.145,3.1813,3.1807,3.1406,3.1406,3.125,3.0898,3.0316,3.0132,3.0363,2.9193,2.8605,2.8813,2.8126,2.7629,2.7445,2.7389,2.7176,2.6894,2.7166,2.724,2.696,2.7232,2.5987,2.2641,2.2562,2.3009,2.3718,2.504,2.6127,2.6793,2.8093,2.9069,2.935,2.9726,3.0065,3.0325,3.0963,3.1382,3.1474,3.2266,3.291,3.2891,3.3164,3.3386,3.3367,3.3308,3.3386,3.3289,3.2715,3.2237,3.2159,3.2101,3.2179,3.2335,3.2539,3.2812,3.293,3.3172,3.3367,3.3386,3.3386,3.3386,3.3386,3.3386,3.3386,3.3386,3.3386,3.3386,3.3386,3.3386,3.3386,3.3386,3.3386,3.3386,2.3566,2.4334,2.4182,2.4714,2.5734,2.6088,2.6961,2.8023,2.6464,2.609,2.6693,2.7264,2.7496,2.7534,2.7623,2.7632,2.7549,2.7088,2.6909,2.6937,2.6644,2.653,2.6605,2.6839,2.7017,2.7074,2.7448,2.7971,2.8514,2.8673,2.906,2.9672,2.971,2.971,2.9768,2.9946,3.0273,3.0773,2.9984,2.9909,3.0546,3.0908,3.1055,3.0976,3.0996,3.0957,3.0898,3.0791,3.0645,3.0402,3.0189,3.0256,3.0562,2.9974,2.9716,2.991,2.9384,2.9013,2.8984,2.9013,2.9193,2.9448,2.9524,2.868,2.6765,2.6279,2.6526,2.7466,2.7791,2.8211,2.8917,2.9806,3.0485,3.0802,3.1148,3.1634,3.2182,3.2419,3.2594,3.2891,3.3203,3.3269,3.3301,3.3359,3.3386,3.3386,3.3386,3.3386,3.3308,3.3008,3.2578,3.2296,3.2198,3.2355,3.2637,3.2734,3.2949,3.3281,3.3328,3.3386,3.3386,3.3386,3.3386,3.3386,3.3386,3.3386,3.3386,3.3386,3.3386,3.3386,3.3386,3.3386,3.3386,3.3386,3.3386,2.4269,2.491,2.5474,2.6155,2.688,2.7658,2.8756,2.9824,2.9355,2.8899,2.8642,2.8994,2.9022,2.8851,2.9231,2.9203,2.8766,2.8512,2.8389,2.8342,2.8021,2.7879,2.785,2.7793,2.7793,2.7812,2.8157,2.8504,2.8806,2.9204,2.9674,3.0167,3.0333,3.044,3.047,3.0587,3.0752,3.0946,3.0497,3.0612,3.1364,3.1522,3.1484,3.125,3.123,3.1113,3.0928,3.0928,3.0937,3.1004,3.0791,3.0849,3.1227,3.1234,3.1283,3.1403,3.1515,3.156,3.156,3.156,3.1637,3.183,3.1849,3.1507,3.0721,2.9126,2.8493,2.9229,2.962,3.007,3.0628,3.1535,3.2169,3.2324,3.2518,3.2677,3.2781,3.3027,3.3125,3.3125,3.325,3.3386,3.3386,3.3386,3.3386,3.3386,3.3386,3.3386,3.3386,3.3262,3.3066,3.2891,3.2883,3.291,3.3086,3.3125,3.3191,3.3367,3.3386,3.3386,3.3386,3.3386,3.3386,3.3386,3.3386,3.3386,3.3386,3.3386,3.3386,3.3386,3.3386,3.3386,3.3386,3.3386,3.3386,2.4949,2.5533,2.6692,2.7491,2.8152,2.9435,3.0438,3.1152,3.1584,3.1259,3.0529,3.0604,3.0488,3.0199,3.0577,3.0393,2.9869,2.9657,2.9533,2.9448,2.9193,2.9041,2.8956,2.8699,2.8585,2.8622,2.8903,2.911,2.9235,2.9741,3.0186,3.0509,3.0762,3.0928,3.0928,3.0928,3.0928,3.0918,3.0955,3.1255,3.1885,3.1905,3.1719,3.1406,3.1367,3.1211,3.0947,3.0928,3.1055,3.1328,3.1055,3.1074,3.1504,3.1964,3.2237,3.2394,3.3008,3.3386,3.3386,3.3386,3.3386,3.3386,3.3323,3.3292,3.3092,3.1263,3.0145,3.0607,3.1153,3.1582,3.1949,3.2743,3.3386,3.3386,3.3386,3.323,3.3027,3.3242,3.332,3.3027,3.3242,3.3386,3.3386,3.3386,3.3386,3.3386,3.3386,3.3386,3.3386,3.3386,3.3386,3.3386,3.3386,3.3347,3.3386,3.3367,3.3367,3.3386,3.3386,3.3386,3.3386,3.3386,3.3386,3.3386,3.3386,3.3386,3.3386,3.3386,3.3386,3.3386,3.3386,3.3386,3.3386,3.3386,3.3386,2.5349,2.6479,2.719,2.8331,2.9753,3.1122,3.1752,3.19,3.2315,3.2474,3.2295,3.2675,3.2715,3.2665,3.2078,3.1762,3.1604,3.1064,3.0577,3.0296,3.0276,3.0082,2.9829,2.9731,2.9749,2.9731,2.9768,2.9915,3.0149,3.0295,3.0538,3.082,3.0879,3.0928,3.0928,3.0928,3.0928,3.0928,3.0918,3.0928,3.0996,3.1045,3.1025,3.0957,3.0957,3.0937,3.0928,3.0928,3.0947,3.0937,3.0937,3.1094,3.1504,3.1964,3.2374,3.2715,3.3164,3.3386,3.3386,3.3386,3.3386,3.3355,3.3102,3.2943,3.2912,3.2111,3.1818,3.227,3.2525,3.2513,3.2723,3.3082,3.3323,3.3292,3.3355,3.3367,3.3328,3.3367,3.3367,3.3347,3.3347,3.3386,3.3386,3.3386,3.3386,3.3386,3.3386,3.3386,3.3386,3.3386,3.3386,3.3386,3.3386,3.3386,3.3386,3.3386,3.3386,3.3386,3.3386,3.3386,3.3386,3.3386,3.3386,3.3386,3.3386,3.3386,3.3386,3.3386,3.3386,3.3386,3.3386,3.3386,3.3386,3.3386,3.3386,2.6128,2.719,2.8212,2.9431,3.0742,3.1446,3.1801,3.2038,3.25,3.2723,3.2743,3.3133,3.3017,3.2592,3.2682,3.2613,3.2336,3.1781,3.1554,3.1505,3.0976,3.0713,3.0684,3.0362,3.0216,3.0186,3.0186,3.0274,3.0421,3.0616,3.0762,3.0898,3.0928,3.0928,3.0928,3.1054,3.1141,3.1141,3.1141,3.1141,3.1141,3.0986,3.0928,3.0928,3.0928,3.0928,3.0928,3.0928,3.0996,3.123,3.125,3.1465,3.1894,3.2305,3.2617,3.2812,3.3184,3.3386,3.3386,3.3228,3.3102,3.3102,3.2804,3.2613,3.2613,3.2334,3.2302,3.2485,3.2356,3.2203,3.2241,3.2586,3.2804,3.2835,3.2994,3.3102,3.3102,3.3292,3.3386,3.3386,3.3386,3.3386,3.3386,3.3386,3.3386,3.3386,3.3386,3.3386,3.3386,3.3386,3.3386,3.3386,3.3386,3.3386,3.3386,3.3386,3.3386,3.3386,3.3386,3.3386,3.3386,3.3386,3.3386,3.3386,3.3386,3.3386,3.3386,3.3386,3.3386,3.3386,3.3386,3.3386,3.3386,3.3386,3.3386,2.6766,2.7912,2.9342,3.0402,3.121,3.1643,3.1909,3.2116,3.2598,3.2844,3.2832,3.3049,3.2804,3.2382,3.29,3.2955,3.265,3.2296,3.2217,3.2276,3.1604,3.1406,3.1445,3.0898,3.0655,3.0626,3.0567,3.0538,3.0567,3.0762,3.0928,3.0928,3.0928,3.0928,3.0957,3.115,3.1296,3.1315,3.1414,3.1503,3.1484,3.1319,3.1221,3.1074,3.1074,3.1113,3.126,3.125,3.1367,3.168,3.168,3.1894,3.2324,3.2575,3.2646,3.2719,3.2978,3.3102,3.3121,3.288,3.2772,3.2721,3.2453,3.2262,3.2262,3.2198,3.2134,3.2097,3.1853,3.1734,3.1973,3.2251,3.2422,3.2422,3.2645,3.2772,3.2753,3.2994,3.3133,3.3228,3.3228,3.3292,3.3355,3.3386,3.3386,3.3386,3.3386,3.3386,3.3386,3.3386,3.3386,3.3386,3.3386,3.3386,3.3386,3.3386,3.3386,3.3386,3.3386,3.3386,3.3386,3.3386,3.3386,3.3386,3.3386,3.3386,3.3386,3.3386,3.3386,3.3386,3.3386,3.3386,3.3386,3.3449,3.3513,2.7008,2.8659,3.045,3.1054,3.1015,3.2008,3.2402,3.2218,3.2664,3.2873,3.2841,3.2594,3.2466,3.2403,3.2688,3.2824,3.2777,3.2609,3.2462,3.2302,3.2256,3.2195,3.1919,3.1484,3.1257,3.118,3.0966,3.0869,3.0889,3.0918,3.0928,3.0918,3.0957,3.0937,3.0957,3.1191,3.1315,3.1405,3.1751,3.1959,3.1969,3.2055,3.1875,3.1503,3.1455,3.166,3.2042,3.212,3.214,3.2179,3.2148,3.2324,3.2684,3.2483,3.2363,3.2422,3.2466,3.2485,3.2485,3.2453,3.2422,3.239,3.207,3.191,3.1846,3.1621,3.1442,3.1442,3.1405,3.1593,3.2091,3.2205,3.2326,3.2326,3.239,3.2422,3.2422,3.2517,3.2613,3.2867,3.2943,3.3102,3.3355,3.3386,3.3386,3.3386,3.3386,3.3386,3.3386,3.3386,3.3386,3.3386,3.3386,3.3386,3.3386,3.3386,3.3386,3.3386,3.3386,3.3386,3.3386,3.3386,3.3386,3.3386,3.3386,3.3386,3.3386,3.3386,3.3386,3.3386,3.3386,3.3386,3.3513,3.3702,3.3827,2.8689,3.0314,3.083,3.1269,3.1643,3.1864,3.206,3.2278,3.2472,3.2581,3.2581,3.2453,3.2422,3.2403,3.2492,3.2668,3.285,3.2754,3.2774,3.2826,3.2492,3.2305,3.2355,3.1959,3.1643,3.1427,3.123,3.1191,3.1309,3.1562,3.1579,3.1369,3.1339,3.1249,3.1159,3.156,3.1799,3.1849,3.2216,3.2275,3.2065,3.1919,3.178,3.1712,3.1858,3.2042,3.2198,3.2198,3.2224,3.2281,3.227,3.237,3.2516,3.2416,3.2346,3.2403,3.2422,3.2422,3.239,3.2198,3.207,3.2038,3.1557,3.1267,3.1202,3.0976,3.075,3.075,3.075,3.0912,3.1106,3.1474,3.1731,3.1795,3.1942,3.2089,3.2134,3.2262,3.2453,3.2581,3.2721,3.3007,3.326,3.3386,3.3386,3.3386,3.3386,3.3386,3.3386,3.3386,3.3386,3.3386,3.3386,3.3386,3.3386,3.3386,3.3386,3.3386,3.3386,3.3386,3.3386,3.3386,3.3386,3.3386,3.3386,3.3386,3.3386,3.3386,3.3386,3.3386,3.3386,3.3481,3.367,3.3859,3.4016,2.9903,3.1034,3.0995,3.1123,3.1436,3.1491,3.1554,3.1803,3.2087,3.2155,3.2061,3.2059,3.2051,3.2102,3.2198,3.2358,3.2575,3.2623,3.2852,3.3124,3.2589,3.2516,3.2711,3.2395,3.2078,3.1829,3.1515,3.1445,3.1539,3.1739,3.1631,3.1275,3.1294,3.111,3.0957,3.1428,3.1783,3.1844,3.2205,3.2344,3.2118,3.1977,3.1908,3.2004,3.2176,3.227,3.227,3.227,3.2293,3.2293,3.2237,3.2087,3.1937,3.191,3.1878,3.1782,3.175,3.175,3.175,3.1557,3.1396,3.1396,3.1041,3.075,3.0717,3.0523,3.0411,3.0411,3.0411,3.0411,3.0458,3.0815,3.112,3.1249,3.1557,3.175,3.175,3.1942,3.2147,3.239,3.2581,3.2848,3.3133,3.3102,3.3038,3.307,3.3089,3.3102,3.3197,3.3228,3.3292,3.3386,3.3386,3.3386,3.3386,3.3386,3.3386,3.3386,3.3386,3.3386,3.3386,3.3386,3.3386,3.3386,3.3386,3.3386,3.3386,3.3386,3.3386,3.3386,3.3418,3.3481,3.3733,3.3985,3.4204,3.0548,3.0918,3.0869,3.0723,3.0633,3.0975,3.0956,3.0895,3.1477,3.1612,3.1394,3.1418,3.1451,3.1506,3.1782,3.191,3.2006,3.2205,3.2537,3.2815,3.2719,3.2824,3.3094,3.274,3.2503,3.2423,3.1886,3.1581,3.1558,3.1389,3.1119,3.0723,3.0692,3.0536,3.0153,3.0823,3.1112,3.1268,3.1832,3.214,3.221,3.215,3.2168,3.2224,3.22,3.2231,3.2269,3.2314,3.2327,3.2269,3.2014,3.1584,3.1055,3.0976,3.0782,3.0638,3.0476,3.0476,3.0508,3.0541,3.0573,3.0523,3.0443,3.0361,3.0313,3.0281,3.0216,3.015,3.0216,3.0281,3.0248,3.0378,3.0555,3.0879,3.1184,3.1377,3.1377,3.141,3.1667,3.2198,3.239,3.2549,3.274,3.2689,3.2549,3.2549,3.2549,3.2613,3.2867,3.2931,3.307,3.326,3.3386,3.3386,3.3386,3.3386,3.3386,3.3386,3.3386,3.3386,3.3386,3.3386,3.3386,3.3386,3.3386,3.3386,3.3386,3.3386,3.3386,3.3386,3.3449,3.3576,3.389,3.4204,3.4517,3.0781,3.0869,3.0655,3.0565,3.0526,3.046,3.0508,3.0665,3.0754,3.0801,3.0948,3.0982,3.1153,3.1373,3.1506,3.1557,3.157,3.1699,3.1987,3.2447,3.2492,3.2542,3.2674,3.268,3.2544,3.2246,3.1907,3.1607,3.1458,3.1527,3.1376,3.0876,3.0505,3.0357,3.0219,3.0455,3.0653,3.1009,3.1409,3.1546,3.1322,3.1355,3.1267,3.1041,3.1009,3.1009,3.1041,3.1667,3.1827,3.1428,3.1267,3.1009,3.0638,3.0573,3.0508,3.0411,3.0411,3.0411,3.0411,3.0378,3.0346,3.0346,3.0133,2.9887,2.9643,2.9481,2.9252,2.907,2.9169,2.93,2.9366,2.9741,3.01,3.0523,3.0847,3.1073,3.1087,3.1249,3.1589,3.1942,3.2038,3.2198,3.2453,3.2422,3.2358,3.2358,3.2358,3.2422,3.2549,3.274,3.2912,3.3038,3.3197,3.3386,3.3386,3.3386,3.3386,3.3386,3.3386,3.3386,3.3386,3.3386,3.3386,3.3386,3.3386,3.3386,3.3386,3.3386,3.3386,3.3386,3.3418,3.3702,3.4141,3.4423,3.4641,3.1006,3.1045,3.0361,3.0044,2.998,2.9809,2.9696,2.9721,2.9797,2.9886,2.9994,3.0316,3.057,3.0805,3.095,3.1023,3.1023,3.1041,3.1235,3.1685,3.2102,3.2262,3.2403,3.2535,3.2474,3.2188,3.1829,3.155,3.1347,3.1299,3.1008,3.0345,3.0017,2.98,2.9731,2.9817,3.0086,3.0487,3.0834,3.0933,3.0766,3.0724,3.062,3.0429,3.0404,3.0311,3.0263,3.0778,3.0993,3.0725,3.0566,3.0324,3.0026,2.9856,2.9868,2.9965,2.9894,2.9839,2.9937,2.9824,2.9861,2.9882,2.9653,2.9424,2.926,2.9077,2.8876,2.8776,2.8893,2.896,2.891,2.9125,2.9536,2.9759,3.0361,3.0717,3.0879,3.1087,3.1428,3.175,3.1814,3.191,3.2102,3.207,3.2038,3.2038,3.2038,3.2102,3.223,3.2517,3.2676,3.2899,3.3197,3.3323,3.3386,3.3386,3.3386,3.3386,3.3386,3.3386,3.3386,3.3386,3.3386,3.3386,3.3386,3.3386,3.3386,3.3386,3.3386,3.3386,3.3418,3.3733,3.411,3.4298,3.4579,3.1157,3.1207,3.0033,2.9272,2.9007,2.9016,2.8708,2.8275,2.8795,2.8999,2.8897,2.9511,2.9835,2.9928,3.033,3.0508,3.0411,3.0476,3.0541,3.0782,3.1331,3.191,3.2275,3.2237,3.2181,3.2117,3.1611,3.1295,3.111,3.0665,2.9998,2.9395,2.922,2.9025,2.8933,2.9041,2.9352,2.9832,3.0171,3.0316,3.0299,3.0318,3.0306,3.0259,3.0242,3.0082,2.9782,2.9733,2.9919,3.0169,2.9834,2.9493,2.9253,2.8954,2.9043,2.9312,2.8993,2.9141,2.9221,2.9141,2.9043,2.9261,2.9009,2.8871,2.8998,2.893,2.8878,2.8809,2.8945,2.8949,2.8703,2.8739,2.8792,2.8959,2.9778,3.0411,3.0815,3.0861,3.1106,3.1492,3.1557,3.146,3.1704,3.1492,3.1377,3.141,3.141,3.1589,3.1846,3.2166,3.2485,3.274,3.2994,3.3197,3.3197,3.3386,3.3386,3.3386,3.3386,3.3386,3.3386,3.3386,3.3386,3.3386,3.3386,3.3386,3.3386,3.3386,3.3386,3.3386,3.3544,3.3765,3.4016,3.4235,3.4548,3.0648,3.0039,2.9409,2.8797,2.8289,2.8294,2.8186,2.8007,2.8202,2.8372,2.8627,2.9119,2.946,2.9825,3.0165,3.0411,3.0346,3.0378,3.0411,3.0443,3.0638,3.1267,3.175,3.1525,3.146,3.1557,3.0976,3.0502,3.0207,3.0047,2.9547,2.8855,2.8586,2.8495,2.8648,2.8479,2.8771,2.9316,2.9505,2.963,2.9613,2.9631,2.9597,2.9597,2.9597,2.9374,2.8997,2.8718,2.8734,2.9065,2.8773,2.8528,2.8491,2.8618,2.8724,2.8829,2.9053,2.9157,2.9174,2.8903,2.8781,2.8829,2.8503,2.8191,2.8044,2.8076,2.7937,2.7818,2.7887,2.8044,2.7984,2.8143,2.8388,2.8784,2.941,3.0055,3.0378,3.0541,3.0638,3.0735,3.0735,3.0782,3.0815,3.0815,3.0782,3.0976,3.1055,3.1152,3.1474,3.1814,3.2134,3.2294,3.2549,3.2816,3.307,3.3292,3.3386,3.3386,3.3386,3.3386,3.3386,3.3386,3.3386,3.3386,3.3386,3.3386,3.3386,3.3386,3.3386,3.3386,3.3449,3.3607,3.3922,3.4173,3.4485,3.0384,2.9823,2.8985,2.8328,2.7809,2.7518,2.7328,2.722,2.7207,2.734,2.7599,2.7961,2.834,2.872,2.926,2.962,2.9741,2.9872,2.9937,2.997,3.01,3.0588,3.1009,3.0815,3.0815,3.0879,3.0263,2.995,2.9747,2.9379,2.8854,2.8467,2.8064,2.8018,2.8177,2.8213,2.8411,2.8987,2.9172,2.9306,2.9306,2.9297,2.918,2.911,2.9035,2.8852,2.8467,2.8089,2.8007,2.8181,2.8146,2.8099,2.8119,2.8169,2.8281,2.8405,2.8553,2.8613,2.8717,2.8441,2.8347,2.8338,2.8091,2.794,2.7872,2.7832,2.7691,2.7636,2.7726,2.772,2.7652,2.7791,2.7991,2.8223,2.8736,2.9327,2.987,3.0035,3.0145,3.0171,3.0263,3.0411,3.0378,3.0378,3.0476,3.062,3.0685,3.0879,3.112,3.146,3.1717,3.1878,3.2166,3.2517,3.2689,3.2867,3.2994,3.3038,3.3165,3.3216,3.3292,3.3323,3.3386,3.3386,3.3386,3.3386,3.3386,3.3386,3.3386,3.3386,3.3386,3.3513,3.3827,3.411,3.4423,3.0094,2.9976,2.8604,2.784,2.7429,2.6864,2.653,2.6175,2.6219,2.6205,2.6335,2.6525,2.7064,2.7238,2.8151,2.8487,2.8807,2.9086,2.9185,2.9283,2.9463,2.9789,3.0035,3.023,3.023,3.0183,2.958,2.9392,2.9278,2.8638,2.8246,2.8058,2.774,2.7629,2.7768,2.797,2.831,2.8757,2.9141,2.9225,2.9177,2.9139,2.8991,2.8659,2.8553,2.84,2.8049,2.7722,2.7581,2.756,2.7833,2.7909,2.7909,2.7666,2.7773,2.8011,2.7967,2.797,2.8047,2.7932,2.7733,2.7945,2.7758,2.7651,2.7761,2.7806,2.777,2.7719,2.7949,2.7716,2.7575,2.7568,2.7652,2.7792,2.7997,2.8429,2.8989,2.9446,2.9695,2.9749,3.006,3.0203,3.0301,3.0266,3.0248,3.0296,3.0361,3.0523,3.075,3.1009,3.1267,3.146,3.1814,3.2198,3.2326,3.239,3.2485,3.2581,3.2772,3.2899,3.307,3.3165,3.3323,3.3386,3.3386,3.3386,3.3386,3.3386,3.3386,3.3386,3.3386,3.3544,3.3765,3.4016,3.4298,2.8894,2.8603,2.7953,2.7378,2.6846,2.6653,2.6378,2.6053,2.6053,2.5975,2.6119,2.6432,2.6764,2.7174,2.7536,2.803,2.8296,2.8461,2.8527,2.8527,2.856,2.8659,2.8889,2.9283,2.9513,2.945,2.9143,2.8806,2.8569,2.8544,2.8275,2.7761,2.762,2.7586,2.7623,2.7876,2.8274,2.8691,2.9079,2.9083,2.8853,2.881,2.864,2.8263,2.7982,2.7843,2.768,2.7347,2.7136,2.7179,2.723,2.7347,2.7332,2.7475,2.7596,2.7689,2.7875,2.7993,2.8008,2.7747,2.7593,2.7638,2.738,2.7164,2.7209,2.7274,2.7274,2.7238,2.7238,2.7266,2.7214,2.7458,2.7532,2.761,2.7824,2.8017,2.8111,2.8558,2.905,2.9259,2.9278,2.9261,2.9511,2.9389,2.9502,2.9824,3.0003,3.0133,3.0328,3.0555,3.0782,3.1009,3.1267,3.1621,3.1685,3.1846,3.2038,3.2166,3.2358,3.2517,3.2689,3.3007,3.3133,3.326,3.3386,3.3386,3.3386,3.3386,3.3386,3.3386,3.3386,3.3481,3.3639,3.389,3.4173,2.79,2.7703,2.7133,2.6713,2.6328,2.5849,2.5548,2.5388,2.5212,2.5149,2.5197,2.5372,2.5722,2.6216,2.6616,2.7035,2.7503,2.7733,2.7766,2.7832,2.7915,2.8015,2.8048,2.8378,2.8676,2.8943,2.8725,2.8492,2.8443,2.824,2.7957,2.7593,2.742,2.7311,2.7384,2.7695,2.7913,2.8166,2.8527,2.8599,2.8454,2.8418,2.8274,2.7876,2.7514,2.7311,2.7274,2.7129,2.7034,2.6998,2.6998,2.6998,2.7034,2.7202,2.7311,2.7347,2.7456,2.7565,2.7514,2.742,2.7318,2.7347,2.7093,2.7071,2.6998,2.6998,2.6998,2.6998,2.7034,2.7034,2.6998,2.7129,2.7311,2.7347,2.7492,2.7584,2.7676,2.8095,2.8496,2.8731,2.8778,2.8986,2.9074,2.8925,2.896,2.936,2.9591,2.9689,2.9757,3.0003,3.0296,3.0523,3.075,3.0944,3.1041,3.1267,3.1589,3.1782,3.2006,3.2102,3.223,3.2581,3.2912,3.307,3.326,3.3386,3.3386,3.3386,3.3386,3.3386,3.3386,3.3386,3.3544,3.389,3.4173,2.6822,2.6757,2.61,2.5766,2.5595,2.4816,2.4463,2.4404,2.4144,2.4208,2.4146,2.4115,2.467,2.5052,2.5449,2.5917,2.6483,2.6773,2.6923,2.7067,2.7251,2.7318,2.74,2.7547,2.7856,2.8451,2.8313,2.8289,2.8232,2.7971,2.7649,2.7448,2.7202,2.7093,2.7093,2.7384,2.7659,2.7768,2.8057,2.813,2.8057,2.8021,2.784,2.7492,2.7238,2.7071,2.7071,2.7034,2.6998,2.6998,2.6998,2.6998,2.6998,2.6998,2.6998,2.702,2.7093,2.7129,2.7129,2.7056,2.7071,2.6998,2.6998,2.6998,2.6998,2.6998,2.6998,2.6998,2.6998,2.6998,2.6998,2.7056,2.7034,2.7034,2.7034,2.7165,2.7433,2.7763,2.7965,2.8239,2.8338,2.8502,2.88,2.8842,2.8882,2.8905,2.9143,2.9261,2.9307,2.9483,2.9797,2.9987,3.0165,3.0555,3.0685,3.075,3.1106,3.1364,3.1589,3.1717,3.1814,3.2166,3.2549,3.2912,3.3102,3.3228,3.3355,3.3386,3.3386,3.3386,3.3386,3.3386,3.3607,3.3953,3.4173,2.5041,2.4993,2.4666,2.4337,2.4035,2.3824,2.3805,2.374,2.3742,2.3867,2.4069,2.4131,2.4297,2.4648,2.4742,2.5172,2.5753,2.5973,2.6083,2.6267,2.6432,2.6465,2.653,2.6814,2.7075,2.7369,2.7616,2.7815,2.7854,2.7649,2.746,2.7151,2.7056,2.6998,2.7093,2.7347,2.7514,2.755,2.7819,2.7876,2.7731,2.7659,2.7529,2.7202,2.7056,2.7034,2.6998,2.6998,2.6998,2.6998,2.6998,2.6998,2.6998,2.6998,2.6998,2.6998,2.6998,2.6998,2.6998,2.6998,2.6998,2.6998,2.6998,2.6998,2.6998,2.6998,2.6998,2.6998,2.6998,2.6998,2.6998,2.6998,2.6998,2.6998,2.7034,2.702,2.7114,2.7273,2.7524,2.7896,2.792,2.7994,2.835,2.8586,2.855,2.8664,2.8927,2.8935,2.8892,2.9094,2.9394,2.9488,2.9528,3.0003,3.0411,3.0426,3.062,3.0912,3.1138,3.1313,3.1492,3.1782,3.2134,3.2613,3.2912,3.3102,3.3228,3.3355,3.3386,3.3386,3.3386,3.3386,3.3576,3.3796,3.411,2.3937,2.3812,2.3702,2.3609,2.358,2.3406,2.3452,2.3575,2.3444,2.3521,2.3765,2.3856,2.4125,2.4501,2.4588,2.4871,2.5218,2.5319,2.5424,2.5592,2.5727,2.5843,2.5907,2.633,2.6767,2.7057,2.727,2.7459,2.7583,2.7605,2.7369,2.7093,2.6998,2.6998,2.7034,2.7165,2.7274,2.7347,2.7456,2.7492,2.7311,2.7311,2.7165,2.7056,2.6998,2.6998,2.6998,2.6998,2.6998,2.6998,2.6998,2.6998,2.6998,2.6998,2.6998,2.6998,2.6998,2.6998,2.6998,2.6998,2.6998,2.6998,2.6998,2.6998,2.6998,2.6998,2.6998,2.6998,2.6998,2.6998,2.6998,2.6998,2.6998,2.6998,2.6998,2.6998,2.6998,2.6998,2.7238,2.7565,2.7668,2.7783,2.8085,2.8226,2.8181,2.8353,2.8694,2.8678,2.8541,2.8834,2.9142,2.9412,2.9543,2.9718,3.0127,3.0173,3.0266,3.049,3.0782,3.0976,3.1152,3.1492,3.1942,3.2453,3.274,3.2943,3.3228,3.3386,3.3386,3.3386,3.3386,3.3418,3.3481,3.367,3.3985,2.3003,2.2781,2.2823,2.2957,2.3142,2.3082,2.3188,2.3417,2.3318,2.344,2.3676,2.3752,2.4001,2.4368,2.4514,2.4661,2.4968,2.5002,2.5065,2.5221,2.539,2.5506,2.5697,2.6117,2.6567,2.6718,2.7048,2.7224,2.7497,2.7478,2.726,2.7093,2.6998,2.6998,2.7034,2.7056,2.6998,2.6998,2.6998,2.6998,2.6998,2.6998,2.6998,2.6998,2.6998,2.6998,2.6998,2.6998,2.6998,2.6998,2.6998,2.6998,2.6998,2.6998,2.6998,2.6998,2.6998,2.6998,2.6998,2.6998,2.6998,2.6998,2.6998,2.6998,2.6998,2.6998,2.6998,2.6998,2.6998,2.6998,2.6998,2.6998,2.6998,2.6998,2.6998,2.6998,2.6998,2.6998,2.6998,2.7238,2.7347,2.7499,2.7728,2.7915,2.7911,2.7972,2.8286,2.8467,2.8405,2.8777,2.911,2.951,2.9716,2.9695,2.9824,2.9901,2.9994,3.0198,3.0523,3.0782,3.0976,3.1216,3.175,3.223,3.2549,3.2753,3.3102,3.3386,3.3386,3.3386,3.3386,3.3418,3.3449,3.3639,3.3922,2.1792,2.1784,2.1783,2.1805,2.2015,2.251,2.2868,2.3217,2.3451,2.3724,2.406,2.4027,2.4118,2.425,2.4232,2.4412,2.4617,2.4763,2.4895,2.5105,2.5153,2.5221,2.529,2.5765,2.613,2.6402,2.6797,2.7186,2.742,2.7238,2.7093,2.7034,2.6998,2.6998,2.6998,2.6998,2.6998,2.6998,2.6998,2.6998,2.6998,2.6998,2.6998,2.6998,2.6998,2.6998,2.6998,2.6998,2.6998,2.6998,2.6998,2.6998,2.6998,2.6998,2.6998,2.6998,2.6998,2.6998,2.6998,2.6998,2.6998,2.6998,2.6998,2.6998,2.6998,2.6998,2.6998,2.6998,2.6998,2.6998,2.6998,2.6998,2.6998,2.6998,2.6998,2.6998,2.6998,2.6998,2.6998,2.7034,2.7202,2.7129,2.7223,2.7463,2.7629,2.7759,2.7879,2.8054,2.8306,2.8722,2.8932,2.9275,2.9745,2.9783,2.968,2.9728,2.9806,2.9944,3.0216,3.0573,3.0782,3.1041,3.1492,3.1942,3.2294,3.2689,3.307,3.3292,3.3355,3.3386,3.3386,3.3386,3.3386,3.3639,3.3879,2.2117,2.2103,2.211,2.2378,2.2746,2.3035,2.335,2.3637,2.3818,2.409,2.4335,2.4382,2.4485,2.4602,2.4675,2.4749,2.4866,2.4899,2.4939,2.509,2.5086,2.5086,2.5247,2.5681,2.6003,2.6179,2.6603,2.7012,2.7165,2.7129,2.6998,2.6998,2.6998,2.6998,2.6998,2.6998,2.6998,2.6998,2.6998,2.6998,2.6998,2.6998,2.6998,2.6998,2.6998,2.6998,2.6998,2.6998,2.6998,2.6998,2.6998,2.6998,2.6998,2.6998,2.6998,2.6998,2.6998,2.6998,2.6998,2.6998,2.6998,2.6998,2.6998,2.6998,2.6998,2.6998,2.6998,2.6998,2.6998,2.6998,2.6998,2.6998,2.6998,2.6998,2.6998,2.6998,2.6998,2.6998,2.6998,2.6998,2.6998,2.6998,2.6998,2.7165,2.7332,2.7405,2.7556,2.7755,2.8162,2.8699,2.8833,2.8895,2.9425,2.9879,2.9732,2.9631,2.973,2.9824,2.9892,3.0251,3.0573,3.0912,3.1331,3.1782,3.2198,3.2594,3.3038,3.326,3.3386,3.3386,3.3386,3.3425,3.3445,3.3476,3.3761,2.2935,2.2987,2.2835,2.3093,2.3612,2.3767,2.3974,2.4203,2.432,2.4514,2.4675,2.4734,2.4866,2.5075,2.5158,2.5196,2.524,2.5322,2.5288,2.5255,2.5187,2.5153,2.531,2.5666,2.6018,2.6032,2.6676,2.699,2.7034,2.6998,2.6998,2.6998,2.6998,2.6998,2.6998,2.6998,2.6998,2.6998,2.6998,2.6998,2.6998,2.6998,2.6998,2.6998,2.6998,2.6998,2.6998,2.6998,2.6998,2.6998,2.6998,2.6998,2.6998,2.6998,2.6998,2.6998,2.6998,2.6998,2.6998,2.6998,2.6998,2.6998,2.6998,2.6998,2.6998,2.6998,2.6998,2.6998,2.6998,2.6998,2.6998,2.6998,2.6998,2.6998,2.6998,2.6998,2.6998,2.6998,2.6998,2.6998,2.6998,2.6998,2.6998,2.6998,2.7056,2.7056,2.7202,2.7441,2.7913,2.8454,2.8674,2.8692,2.9171,2.9635,2.9636,2.9577,2.9665,2.9765,2.984,3.0095,3.0523,3.0822,3.1138,3.1621,3.207,3.2262,3.2498,3.2975,3.3386,3.3386,3.3406,3.3484,3.3555,3.3562,3.3902,2.4099,2.4313,2.3742,2.3561,2.3687,2.4291,2.454,2.4587,2.4866,2.4983,2.4998,2.5075,2.5109,2.5187,2.5423,2.5573,2.5607,2.5861,2.5775,2.5641,2.5524,2.539,2.5476,2.5726,2.6067,2.6099,2.6676,2.6969,2.6998,2.6998,2.6998,2.6998,2.6998,2.6998,2.6998,2.6998,2.6998,2.6998,2.6998,2.6998,2.6998,2.6998,2.6998,2.6998,2.6998,2.6998,2.6998,2.6998,2.6998,2.6998,2.6998,2.6998,2.6998,2.6998,2.6998,2.6998,2.6998,2.6998,2.6998,2.6998,2.6998,2.6998,2.6998,2.6998,2.6998,2.6998,2.6998,2.6998,2.6998,2.6998,2.6998,2.6998,2.6998,2.6998,2.6998,2.6998,2.6998,2.6998,2.6998,2.6998,2.6998,2.6998,2.6998,2.6998,2.6998,2.702,2.702,2.7274,2.7529,2.7985,2.831,2.8562,2.8988,2.9289,2.942,2.9525,2.976,2.9936,3.0036,3.0315,3.069,3.0924,3.1038,3.1331,3.175,3.1878,3.2102,3.2645,3.307,3.3292,3.3464,3.3596,3.3913,3.4121,3.4601,2.4374,2.4515,2.4506,2.4505,2.4567,2.4784,2.491,2.4924,2.5042,2.51,2.5134,2.5288,2.539,2.5491,2.5727,2.591,2.5944,2.6011,2.6011,2.5977,2.5876,2.5693,2.5729,2.5948,2.6278,2.6249,2.6661,2.6998,2.6998,2.6998,2.6998,2.6998,2.6998,2.6998,2.6998,2.6998,2.6998,2.6998,2.6998,2.6998,2.6998,2.6998,2.6998,2.6998,2.6998,2.6998,2.6998,2.6998,2.6998,2.6998,2.6998,2.6998,2.6998,2.6998,2.6998,2.6998,2.6998,2.6998,2.7027,2.7013,2.6998,2.6998,2.6998,2.6998,2.6998,2.6998,2.6998,2.6998,2.6998,2.6998,2.6998,2.6998,2.6998,2.6998,2.6998,2.6998,2.6998,2.6998,2.6998,2.6998,2.6998,2.6998,2.6998,2.6998,2.6998,2.7034,2.702,2.7093,2.7311,2.7529,2.7876,2.8166,2.8563,2.9046,2.9186,2.952,2.9847,2.9997,3.0139,3.0444,3.0707,3.0844,3.0996,3.1222,3.1534,3.1833,3.2156,3.2491,3.274,3.2899,3.3341,3.3798,3.4167,3.4609,3.5113,2.4665,2.4713,2.4984,2.51,2.51,2.51,2.51,2.51,2.5086,2.5153,2.5255,2.5607,2.5727,2.5828,2.6097,2.6264,2.6331,2.6398,2.6365,2.6298,2.6264,2.6124,2.6178,2.6284,2.6513,2.6429,2.6683,2.6998,2.6998,2.6998,2.6998,2.6998,2.6998,2.6998,2.6998,2.6998,2.6998,2.6998,2.6998,2.6998,2.6998,2.6998,2.6998,2.6998,2.6998,2.6998,2.6998,2.6998,2.6998,2.6998,2.6998,2.6998,2.6998,2.6998,2.6998,2.6998,2.6998,2.7027,2.7115,2.7144,2.7086,2.7013,2.7144,2.7086,2.7013,2.6998,2.6998,2.6998,2.6998,2.6998,2.6998,2.6998,2.6998,2.6998,2.6998,2.6998,2.6998,2.6998,2.6998,2.6998,2.6998,2.6998,2.6998,2.6998,2.6998,2.6998,2.7034,2.702,2.7093,2.7274,2.7492,2.7768,2.8057,2.8563,2.9015,2.9321,2.9601,2.9977,3.0147,3.0361,3.0633,3.0778,3.1121,3.1529,3.1764,3.1962,3.2227,3.2548,3.2518,3.2459,3.3129,3.3946,3.4673,3.515,3.5414,2.5052,2.51,2.5086,2.5119,2.5119,2.51,2.5119,2.5168,2.5187,2.5322,2.5626,2.5944,2.6112,2.6213,2.6499,2.6666,2.6733,2.6934,2.6934,2.67,2.6726,2.6682,2.6668,2.6742,2.6894,2.7,2.7082,2.7093,2.6998,2.6998,2.6998,2.6998,2.6998,2.6998,2.6998,2.6998,2.6998,2.6998,2.6998,2.6998,2.6998,2.6998,2.6998,2.6998,2.6998,2.6998,2.6998,2.6998,2.6998,2.6998,2.6998,2.6998,2.6998,2.6998,2.7013,2.7056,2.7042,2.7174,2.7422,2.7466,2.7378,2.7203,2.7378,2.7349,2.71,2.7013,2.7013,2.7027,2.6998,2.6998,2.6998,2.6998,2.6998,2.6998,2.6998,2.6998,2.6998,2.6998,2.6998,2.6998,2.6998,2.6998,2.6998,2.6998,2.6998,2.6998,2.6998,2.6998,2.6998,2.7107,2.7238,2.7456,2.7695,2.8057,2.8527,2.9046,2.9397,2.9796,3.0144,3.03,3.0582,3.0839,3.1227,3.1711,3.1935,3.2019,3.2283,3.26,3.2701,3.2884,3.3484,3.4233,3.5015,3.558,3.5773,2.51,2.5119,2.5322,2.5423,2.539,2.5187,2.5221,2.5438,2.5659,2.5843,2.5996,2.6331,2.6499,2.6599,2.6849,2.7016,2.705,2.7067,2.7067,2.7065,2.7237,2.7176,2.7199,2.7358,2.7448,2.7259,2.7227,2.7202,2.6998,2.6998,2.6998,2.6998,2.6998,2.6998,2.6998,2.6998,2.6998,2.6998,2.6998,2.6998,2.6998,2.6998,2.6998,2.6998,2.6998,2.6998,2.6998,2.6998,2.6998,2.6998,2.6998,2.6998,2.7013,2.7027,2.7115,2.7247,2.732,2.7466,2.7773,2.792,2.7911,2.7751,2.7648,2.7642,2.7364,2.732,2.7203,2.7071,2.7056,2.7042,2.6998,2.6998,2.6998,2.6998,2.6998,2.6998,2.6998,2.6998,2.6998,2.6998,2.6998,2.6998,2.6998,2.6998,2.6998,2.6998,2.6998,2.6998,2.6998,2.6998,2.7093,2.7238,2.7456,2.7659,2.8021,2.8491,2.8938,2.9306,2.9761,3.0109,3.0418,3.0718,3.1064,3.1419,3.1737,3.2052,3.238,3.2707,3.3137,3.3515,3.3937,3.4566,3.5451,3.582,3.5913,2.5356,2.5457,2.5674,2.576,2.5727,2.5524,2.5607,2.5828,2.6145,2.6359,2.6568,2.6887,2.7134,2.7233,2.7304,2.7358,2.7358,2.7391,2.7391,2.7439,2.7707,2.7807,2.7953,2.7994,2.794,2.7666,2.7509,2.7456,2.7238,2.7071,2.6998,2.6998,2.6998,2.6998,2.6998,2.6998,2.6998,2.6998,2.6998,2.6998,2.6998,2.6998,2.6998,2.6998,2.6998,2.6998,2.6998,2.6998,2.6998,2.7013,2.7013,2.7056,2.7115,2.7188,2.732,2.7539,2.7788,2.7905,2.8101,2.8403,2.8364,2.8277,2.816,2.7926,2.7678,2.7604,2.7554,2.7408,2.7232,2.7174,2.7174,2.7144,2.7027,2.7027,2.6998,2.6998,2.6998,2.6998,2.6998,2.6998,2.6998,2.6998,2.6998,2.6998,2.6998,2.6998,2.6998,2.6998,2.6998,2.6998,2.6998,2.7093,2.7238,2.7456,2.7695,2.7985,2.8418,2.883,2.927,2.9725,3.0048,3.0271,3.0698,3.115,3.153,3.1925,3.2435,3.2825,3.3332,3.3737,3.4107,3.4849,3.5821,3.6035,3.6035,2.5794,2.6063,2.6112,2.6112,2.6112,2.6176,2.6176,2.6145,2.6563,2.6902,2.7217,2.7505,2.7749,2.8005,2.7834,2.7707,2.7707,2.7707,2.7707,2.7802,2.809,2.8341,2.8458,2.8436,2.8411,2.831,2.8057,2.7674,2.755,2.7165,2.6998,2.6998,2.6998,2.6998,2.6998,2.6998,2.6998,2.6998,2.6998,2.6998,2.6998,2.7042,2.7086,2.7115,2.7144,2.7174,2.7174,2.7174,2.7144,2.7115,2.7056,2.7232,2.7364,2.7481,2.7671,2.7897,2.8204,2.835,2.8437,2.8725,2.8783,2.8681,2.8525,2.8262,2.8043,2.7926,2.7838,2.7721,2.7598,2.7539,2.7495,2.7276,2.7071,2.7056,2.7049,2.7049,2.6998,2.6998,2.6998,2.6998,2.6998,2.6998,2.6998,2.6998,2.6998,2.6998,2.6998,2.6998,2.6998,2.6998,2.6998,2.7034,2.7129,2.7202,2.7456,2.7695,2.7913,2.831,2.8758,2.9198,2.9485,2.9861,3.0281,3.0759,3.1334,3.1931,3.2607,3.3155,3.3619,3.401,3.4395,3.495,3.5826,3.5982,3.6016,2.6011,2.613,2.6398,2.6532,2.6597,2.7032,2.6967,2.6646,2.7152,2.7492,2.7571,2.791,2.8135,2.8167,2.8088,2.8056,2.804,2.8056,2.8056,2.8217,2.844,2.8681,2.8786,2.8854,2.8849,2.8604,2.8253,2.7864,2.758,2.7216,2.7013,2.6998,2.6998,2.6998,2.7013,2.6998,2.7027,2.7042,2.7056,2.7071,2.713,2.7247,2.7291,2.7364,2.751,2.7517,2.7546,2.7561,2.7561,2.7575,2.7437,2.7495,2.7736,2.7642,2.7671,2.8218,2.8564,2.8754,2.8769,2.8842,2.8886,2.8886,2.8783,2.8584,2.8364,2.8233,2.8174,2.8043,2.7897,2.7809,2.7744,2.7554,2.7349,2.7283,2.721,2.7056,2.7042,2.6998,2.6998,2.6998,2.6998,2.6998,2.6998,2.6998,2.6998,2.6998,2.6998,2.6998,2.6998,2.6998,2.6998,2.6998,2.7034,2.7129,2.7202,2.742,2.7586,2.784,2.8253,2.8614,2.8871,2.925,2.9783,3.0354,3.0958,3.1947,3.305,3.3411,3.3486,3.4306,3.4785,3.5252,3.5704,3.586,3.6035,2.6398,2.6566,2.6918,2.7185,2.7398,2.7919,2.7868,2.7621,2.7806,2.7945,2.8154,2.836,2.8503,2.8646,2.8535,2.844,2.844,2.844,2.844,2.8535,2.8805,2.8932,2.9091,2.9171,2.9107,2.8846,2.8521,2.8191,2.7869,2.7467,2.7188,2.7188,2.7137,2.7137,2.7196,2.7232,2.7291,2.7305,2.7305,2.7276,2.7393,2.7539,2.7627,2.77,2.7868,2.7911,2.7941,2.7941,2.7926,2.7911,2.7715,2.7817,2.8072,2.8066,2.8125,2.8637,2.8739,2.8856,2.8856,2.8871,2.8886,2.8886,2.8886,2.8783,2.8671,2.8569,2.852,2.8417,2.8218,2.8087,2.797,2.7876,2.7671,2.7518,2.732,2.7144,2.7071,2.7013,2.6998,2.6998,2.6998,2.6998,2.6998,2.6998,2.6998,2.6998,2.6998,2.6998,2.6998,2.6998,2.6998,2.6998,2.6998,2.7034,2.7129,2.7202,2.7311,2.7492,2.7746,2.8072,2.831,2.8635,2.9066,2.9819,3.0603,3.163,3.2631,3.2958,3.3246,3.4168,3.4895,3.516,3.5539,3.5913,3.6035,2.7,2.73,2.7649,2.8029,2.8411,2.8723,2.8872,2.8838,2.8581,2.8576,2.887,2.893,2.9106,2.9202,2.9058,2.8892,2.884,2.884,2.8805,2.8856,2.9171,2.9329,2.9345,2.9361,2.938,2.9174,2.8836,2.8404,2.831,2.7881,2.751,2.7495,2.7276,2.7291,2.7481,2.751,2.7627,2.7794,2.7744,2.7686,2.7794,2.7897,2.7917,2.7955,2.8014,2.8043,2.8043,2.8014,2.7947,2.7999,2.7999,2.8131,2.8306,2.8622,2.8769,2.8827,2.8871,2.8871,2.8886,2.8886,2.8886,2.8886,2.8886,2.8871,2.8812,2.8798,2.871,2.8681,2.8496,2.8437,2.8373,2.8169,2.7964,2.7744,2.7554,2.7349,2.7203,2.71,2.6998,2.6998,2.6998,2.6998,2.6998,2.6998,2.6998,2.6998,2.6998,2.6998,2.7034,2.7034,2.7071,2.7071,2.7034,2.7034,2.7034,2.7071,2.7071,2.7202,2.742,2.7492,2.771,2.8036,2.8346,2.921,3.0104,3.1012,3.1895,3.2331,3.3124,3.4306,3.4907,3.5026,3.5375,3.5874,3.6035,2.7965,2.8064,2.8393,2.879,2.9155,2.9484,2.9616,2.9666,2.9802,2.9764,2.9682,2.9859,2.988,2.9699,2.9651,2.9479,2.9246,2.9198,2.919,2.9286,2.9524,2.9615,2.9659,2.9606,2.9623,2.9398,2.9001,2.8476,2.8245,2.7974,2.7794,2.7794,2.7634,2.7678,2.7794,2.7809,2.7955,2.8247,2.8204,2.8066,2.8014,2.8189,2.8291,2.835,2.8408,2.8578,2.8593,2.8622,2.8651,2.8651,2.8394,2.8364,2.8394,2.87,2.8871,2.8886,2.8886,2.8886,2.8886,2.8886,2.8886,2.8886,2.8886,2.8886,2.8886,2.8886,2.8886,2.8856,2.8827,2.8783,2.8695,2.8461,2.8204,2.8022,2.7803,2.7583,2.7364,2.7174,2.7013,2.6998,2.6998,2.6998,2.6998,2.6998,2.6998,2.6998,2.6998,2.7034,2.7056,2.7093,2.718,2.718,2.7056,2.702,2.7056,2.7093,2.7129,2.7071,2.7202,2.7202,2.7202,2.7601,2.8093,2.8743,2.9552,3.0622,3.1492,3.1948,3.2881,3.4287,3.4846,3.4964,3.5462,3.5982,3.6035,2.851,2.8593,2.9109,2.9495,2.9865,3.0218,3.0386,3.0453,3.0771,3.0857,3.0584,3.0484,3.0299,3.0157,3.0104,3.0033,2.9764,2.964,2.9572,2.9629,2.9688,2.9758,2.9781,2.9818,2.9702,2.953,2.9092,2.8619,2.8333,2.816,2.8131,2.8101,2.8043,2.7999,2.8087,2.8145,2.8277,2.8622,2.8622,2.8505,2.8291,2.852,2.8637,2.871,2.8783,2.8886,2.8886,2.8886,2.8886,2.8871,2.8695,2.8651,2.8681,2.8812,2.8886,2.8886,2.8886,2.8886,2.8886,2.8886,2.8886,2.8886,2.8886,2.8886,2.8886,2.8886,2.8886,2.8871,2.8871,2.8827,2.8827,2.8666,2.8491,2.8247,2.8072,2.7897,2.7539,2.7188,2.7056,2.6998,2.6998,2.6998,2.6998,2.6998,2.6998,2.6998,2.6998,2.7165,2.7202,2.7238,2.7311,2.7384,2.7384,2.742,2.7601,2.7492,2.7347,2.7238,2.7129,2.7202,2.7347,2.7514,2.7876,2.8707,2.9568,3.0496,3.1246,3.1896,3.3021,3.4499,3.4808,3.4917,3.5491,3.6035,3.6035,2.9075,2.9158,2.9782,3.0241,3.0583,3.0908,3.1062,3.1113,3.1422,3.1559,3.1453,3.0918,3.0634,3.0477,3.0477,3.0442,3.0335,3.0049,2.9978,2.986,2.9917,2.9963,2.9918,2.986,2.9794,2.9599,2.9253,2.9073,2.8924,2.8723,2.8591,2.847,2.833,2.8174,2.8379,2.8481,2.8622,2.8769,2.8827,2.8856,2.8871,2.8886,2.8856,2.8871,2.8886,2.8886,2.8886,2.8886,2.8886,2.8886,2.8856,2.8842,2.8827,2.8871,2.8871,2.8886,2.8886,2.8886,2.8886,2.8886,2.8886,2.8886,2.8886,2.8886,2.8886,2.8886,2.8886,2.8886,2.8886,2.8886,2.8886,2.8842,2.8681,2.8511,2.835,2.8116,2.7671,2.7247,2.7144,2.7042,2.6998,2.6998,2.6998,2.6998,2.6998,2.6998,2.7093,2.7311,2.7456,2.7529,2.7601,2.7819,2.7913,2.8021,2.8057,2.7876,2.7674,2.7456,2.7347,2.742,2.7492,2.7659,2.8093,2.8887,2.9747,3.0674,3.1492,3.2225,3.3475,3.464,3.4818,3.4984,3.5583,3.6035,3.6035,3.031,3.0599,3.0736,3.0993,3.1355,3.1457,3.1492,3.1509,3.156,3.1595,3.1627,3.1742,3.1492,3.0904,3.0904,3.0814,3.0667,3.0453,3.0154,2.9919,3.0264,3.027,3.0256,3.0218,2.9959,2.9701,2.9517,2.9434,2.9407,2.9293,2.9264,2.918,2.887,2.8749,2.8739,2.8798,2.8798,2.8886,2.8886,2.8886,2.8886,2.8886,2.8886,2.8886,2.8886,2.8886,2.8886,2.8886,2.8886,2.8886,2.8886,2.8886,2.8886,2.8886,2.8886,2.8886,2.8886,2.8886,2.8886,2.8886,2.8886,2.8886,2.8886,2.8886,2.8886,2.8886,2.8886,2.8886,2.8886,2.8886,2.8886,2.8886,2.8783,2.8695,2.8578,2.8154,2.77,2.7452,2.7291,2.7144,2.7013,2.7013,2.6998,2.6998,2.6998,2.6998,2.6998,2.7238,2.7601,2.7731,2.784,2.8202,2.8454,2.8274,2.8166,2.8166,2.7949,2.7731,2.755,2.755,2.7659,2.7876,2.8382,2.9354,3.014,3.1029,3.1791,3.2642,3.3544,3.4564,3.481,3.5085,3.5704,3.6035,3.6035]},{"header":{"parameterUnit":"m.s-1","parameterCategory":1,"la1":31.0,"la2":29.5877,"lo1":-88.7671,"lo2":-86.6584,"dy":0.0162,"dx":0.0185,"nx":115,"ny":88,"refTime":"2023-11-02T00:00:00:Z","depth":0,"parameterNumber":3,"parameterNumberName":"V-component_of_WINDS"},"data":[0.0,0.0,0.0,0.0,0.0,0.0,0.0,0.0,0.0,0.0,0.0,0.0,0.0,0.0,0.0,0.0,0.0,0.0,0.0,0.0,0.0,0.0,0.0,0.0,0.0,0.0,0.0,0.0,0.0,0.0,0.0,0.0,0.0,0.0,0.0,0.0,0.0,0.0,0.0,0.0,0.0,0.0,0.0,0.0,0.0,0.0,0.0,0.0,0.0,0.0,0.0,0.0,0.0,0.0,0.0,0.0,0.0,0.0,0.0,0.0,0.0,0.0,0.0,0.0,0.0,0.0,0.0,0.0,0.0,0.0,0.0,0.0,0.0,0.0,0.0,0.0,0.0,0.0,0.0,0.0,0.0,0.0,0.0,0.0,0.0,0.0,0.0,0.0,0.0,0.0,0.0,0.0,0.0,0.0,0.0,0.0,0.0,0.0,0.0,0.0,0.0,0.0,0.0,0.0,0.0,0.0,0.0,0.0,0.0,0.0,0.0,0.0,0.0,0.0,0.0,0.0,0.0,0.0,0.0,0.0,0.0,0.0,0.0,0.0,0.0,0.0,0.0,0.0,0.0,0.0,0.0,0.0,0.0,0.0,0.0,0.0,0.0,0.0,0.0,0.0,0.0,0.0,0.0,0.0,0.0,0.0,0.0,0.0,0.0,0.0,0.0,0.0,0.0,0.0,0.0,0.0,0.0,0.0,0.0,0.0,0.0,0.0,0.0,0.0,0.0,0.0,0.0,0.0,0.0,0.0,0.0,0.0,0.0,0.0,0.0,0.0,0.0,0.0,0.0,0.0,0.0,0.0,0.0,0.0,0.0,0.0,0.0,0.0,0.0,0.0,0.0,0.0,0.0,0.0,0.0,0.0,0.0,0.0,0.0,0.0,0.0,0.0,0.0,0.0,0.0,0.0,0.0,0.0,0.0,0.0,0.0,0.0,0.0,0.0,0.0,0.0,0.0,0.0,0.0,0.0,0.0,0.0,0.0,0.0,0.0,0.0,0.0,0.0,0.0,0.0,0.0,0.0,0.0,0.0,0.0,0.0,0.0,0.0,0.0,0.0,0.0,0.0,0.0,0.0,0.0,0.0,0.0,0.0,0.0,0.0,0.0,0.0,0.0,0.0,0.0,0.0,0.0,0.0,0.0,0.0,0.0,0.0,0.0,0.0,0.0,0.0,0.0,0.0,0.0,0.0,0.0,0.0,0.0,0.0,0.0,0.0,0.0,0.0,0.0,0.0,0.0,0.0,0.0,0.0,0.0,0.0,0.0,0.0,0.0,0.0,0.0,0.0,0.0,0.0,0.0,0.0,0.0,0.0,0.0,0.0,0.0,0.0,0.0,0.0,0.0,0.0,0.0,0.0,0.0,0.0,0.0,0.0,0.0,0.0,0.0,0.0,0.0,0.0,0.0,0.0,0.0,0.0,0.0,0.0,0.0,0.0,0.0,0.0,0.0,0.0,0.0,0.0,0.0,0.0,0.0,0.0,0.0,0.0,0.0,0.0,0.0,0.0,0.0,0.0,0.0,0.0,0.0,0.0,0.0,0.0,0.0,0.0,0.0,0.0,0.0,0.0,0.0,0.0,0.0,0.0,0.0,0.0,0.0,0.0,0.0,0.0,0.0,0.0,0.0,0.0,0.0,0.0,0.0,0.0,0.0,0.0,0.0,0.0,0.0,0.0,0.0,0.0,0.0,0.0,0.0,0.0,0.0,0.0,0.0,0.0,0.0,0.0,0.0,0.0,0.0,0.0,0.0,0.0,0.0,0.0,0.0,0.0,0.0,0.0,0.0,0.0,0.0,0.0,0.0,0.0,0.0,0.0,0.0,0.0,0.0,0.0,0.0,0.0,0.0,0.0,0.0,0.0,0.0,0.0,0.0,0.0,0.0,0.0,0.0,0.0,0.0,0.0,0.0,0.0,0.0,0.0,0.0,0.0,0.0,0.0,0.0,0.0,0.0,0.0,0.0,0.0,0.0,0.0,0.0,0.0,0.0,0.0,0.0,0.0,0.0,0.0,0.0,0.0,0.0,0.0,0.0,0.0,0.0,0.0,0.0,0.0,0.0,0.0,0.0,0.0,0.0,0.0,0.0,0.0,0.0,0.0,0.0,0.0,0.0,0.0,0.0,0.0,0.0,0.0,0.0,0.0,0.0,0.0,0.0,0.0,0.0,0.0,0.0,0.0,0.0,0.0,0.0,0.0,0.0,0.0,0.0,0.0,0.0,0.0,0.0,0.0,0.0,0.0,0.0,0.0,0.0,0.0,0.0,0.0,0.0,0.0,0.0,0.0,0.0,0.0,0.0,0.0,0.0,0.0,0.0,0.0,0.0,0.0,0.0,0.0,0.0,0.0,0.0,0.0,0.0,0.0,0.0,0.0,0.0,0.0,0.0,0.0,0.0,0.0,0.0,0.0,0.0,0.0,0.0,0.0,0.0,0.0,0.0,0.0,0.0,0.0,0.0,0.0,0.0,0.0,0.0,0.0,0.0,0.0,0.0,0.0,0.0,0.0,0.0,0.0,0.0,0.0,0.0,0.0,0.0,0.0,0.0,0.0,0.0,0.0,0.0,0.0,0.0,0.0,0.0,0.0,0.0,0.0,0.0,0.0,0.0,0.0,0.0,0.0,0.0,0.0,0.0,0.0,0.0,0.0,0.0,0.0,0.0,0.0,0.0,0.0,0.0,0.0,0.0,0.0,0.0,0.0,0.0,0.0,0.0,0.0,0.0,0.0,0.0,0.0,0.0,0.0,0.0,0.0,0.0,0.0,0.0,0.0,0.0,0.0,0.0,0.0,0.0,0.0,0.0,0.0,0.0,0.0,0.0,0.0,0.0,0.0,0.0,0.0,0.0,0.0,0.0,0.0,0.0,0.0,0.0,0.0,0.0,0.0,0.0,0.0,0.0,0.0,0.0,0.0,0.0,0.0,0.0,0.0,0.0,0.0,0.0,0.0,0.0,0.0,0.0,0.0,0.0,0.0,0.0,0.0,0.0,0.0,0.0,0.0,0.0,0.0,0.0,0.0,0.0,0.0,0.0,0.0,0.0,0.0,0.0,0.0,0.0,0.0,0.0,0.0,0.0,0.0,0.0,0.0,0.0,0.0,0.0,0.0,0.0,0.0,0.0,0.0,0.0,0.0,0.0,0.0,0.0,0.0,0.0,0.0,0.0,0.0,0.0,0.0,0.0,0.0,0.0,0.0,0.0,0.0,0.0,0.0,0.0,0.0,0.0,0.0,0.0,0.0,0.0,0.0,0.0,0.0,0.0,0.0,0.0,0.0,0.0,0.0,0.0,0.0,0.0,0.0,0.0,0.0,0.0,0.0,0.0,0.0,0.0,0.0,0.0,0.0,0.0,0.0,0.0,0.0,0.0,0.0,0.0,0.0,0.0,0.0,0.0,0.0,0.0,0.0,0.0,0.0,0.0,0.0,0.0,0.0,0.0,0.0,0.0,0.0,0.0,0.0,0.0,0.0,0.0,0.0,0.0,0.0,0.0,0.0,0.0,0.0,0.0,0.0,0.0,0.0,0.0,0.0,0.0,0.0,0.0,0.0,0.0,0.0,0.0,0.0,0.0,0.0,0.0,0.0,0.0,0.0,0.0,0.0,0.0,0.0,0.0,0.0,0.0,0.0,0.0,0.0,0.0,0.0,0.0,0.0,0.0,0.0,0.0,0.0,0.0,0.0,0.0,0.0,0.0,0.0,0.0,0.0,0.0,0.0,0.0,0.0,0.0,0.0,0.0,0.0,0.0,0.0,0.0,0.0,0.0,0.0,0.0,0.0,0.0,0.0,0.0,0.0,0.0,0.0,0.0,0.0,0.0,0.0,0.0,0.0,0.0,0.0,0.0,0.0,0.0,0.0,0.0,0.0,0.0,0.0,0.0,0.0,0.0,0.0,0.0,0.0,0.0,0.0,0.0,0.0,0.0,0.0,0.0,0.0,0.0,0.0,0.0,0.0,0.0,0.0,0.0,0.0,0.0,0.0,0.0,0.0,0.0,0.0,0.0,0.0,0.0,0.0,0.0,0.0,0.0,0.0,0.0,0.0,0.0,0.0,0.0,0.0,0.0,0.0,0.0,0.0,0.0,0.0,0.0,0.0,0.0,0.0,0.0,0.0,0.0,0.0,0.0,0.0,0.0,0.0,0.0,0.0,0.0,0.0,0.0,0.0,0.0,0.0,0.0,0.0,0.0,0.0,0.0,0.0,0.0,0.0,0.0,0.0,0.0,0.0,0.0,0.0,0.0,0.0,0.0,0.0,0.0,0.0,1.3235,0.0,0.0,0.0,0.0,0.0,0.0,0.0,0.0,0.0,0.0,0.0,0.0,0.0,0.0,0.0,0.0,0.0,0.0,0.0,0.0,0.0,0.0,0.0,0.0,0.0,0.0,0.0,0.0,0.0,0.0,0.0,0.0,0.0,0.0,0.0,0.0,0.0,0.0,0.0,0.0,0.0,0.0,0.0,0.0,0.0,0.0,0.0,0.0,0.0,0.0,0.0,0.0,0.0,0.0,0.0,0.0,0.0,0.0,0.0,0.0,0.0,0.0,0.0,0.0,0.0,0.0,0.0,0.0,0.0,0.0,0.0,0.0,0.0,0.0,0.0,0.0,0.0,0.0,0.0,0.0,0.0,0.0,0.0,0.0,0.0,0.0,0.0,0.0,0.0,0.0,0.0,0.0,0.0,0.0,0.0,0.0,0.0,0.0,0.0,0.0,0.0,0.0,0.0,0.0,0.0,0.0,0.0,0.0,0.0,0.0,1.3476,1.3472,1.3472,1.3425,1.3404,0.0,0.0,0.0,0.0,0.0,0.0,0.0,0.0,0.0,0.0,0.0,0.0,0.0,0.0,0.0,0.0,0.0,0.0,0.0,0.0,0.0,0.0,0.0,0.0,0.0,0.0,0.0,0.0,0.0,0.0,0.0,0.0,0.0,0.0,0.0,0.0,0.0,0.0,0.0,0.0,0.0,0.0,0.0,0.0,0.0,0.0,0.0,0.0,0.0,0.0,0.0,0.0,0.0,0.0,0.0,0.0,0.0,0.0,0.0,0.0,0.0,0.0,0.0,0.0,0.0,0.0,0.0,0.0,0.0,0.0,0.0,0.0,0.0,0.0,0.0,0.0,0.0,0.0,0.0,0.0,0.0,0.0,0.0,0.0,0.0,0.0,0.0,0.0,0.0,0.0,0.0,0.0,0.0,0.0,0.0,0.0,0.0,0.0,0.0,0.0,0.0,0.0,0.0,0.0,0.0,0.0,0.0,0.0,0.0,0.0,0.0,0.0,1.3483,1.3398,1.3165,0.0,0.0,0.0,0.0,0.0,0.0,0.0,0.0,0.0,0.0,0.0,0.0,0.0,0.0,0.0,0.0,0.0,0.0,0.0,0.0,0.0,0.0,0.0,0.0,0.0,0.0,0.0,0.0,0.0,0.0,0.0,0.0,0.0,0.0,0.0,0.0,0.0,0.0,0.0,0.0,0.0,0.0,0.0,0.0,0.0,0.0,0.0,0.0,0.0,0.0,0.0,0.0,0.0,0.0,0.0,0.0,0.0,0.0,0.0,0.0,0.0,0.0,0.0,0.0,0.0,0.0,0.0,0.0,0.0,0.0,0.0,0.0,0.0,0.0,0.0,0.0,0.0,0.0,0.0,0.0,0.0,0.0,0.0,0.0,0.0,0.0,0.0,0.0,0.0,0.0,0.0,0.0,0.0,0.0,0.0,0.0,0.0,0.0,0.0,0.0,0.0,0.0,0.0,0.0,0.0,0.0,0.0,0.0,0.0,0.0,1.3483,1.3483,1.3483,0.0,1.2554,0.0,0.0,0.0,0.0,0.0,0.0,0.0,0.0,0.0,0.0,0.0,0.0,0.0,0.0,0.0,0.0,0.0,0.0,0.0,0.0,0.0,0.0,0.0,0.0,0.0,0.0,0.0,0.0,0.0,0.0,0.0,0.0,0.0,0.0,0.0,0.0,0.0,0.0,0.0,0.0,0.0,0.0,0.0,0.0,0.0,0.0,0.0,0.0,0.0,0.0,0.0,0.0,0.0,0.0,0.0,0.0,0.0,0.0,0.0,0.0,0.0,0.0,0.0,0.0,0.0,0.0,0.0,0.0,0.0,0.0,0.0,0.0,0.0,0.0,0.0,0.0,0.0,0.0,0.0,0.0,0.0,0.0,0.0,0.0,0.0,0.0,0.0,0.0,0.0,0.0,0.0,0.0,0.0,0.0,0.0,0.0,0.0,0.0,0.0,0.0,0.0,0.0,0.0,0.0,0.0,0.0,0.0,0.0,0.0,0.0,1.36,1.3576,1.3538,1.3003,0.0,0.0,0.0,0.0,0.0,0.0,0.0,0.0,0.0,0.0,0.0,0.0,0.0,0.0,0.0,0.0,0.0,0.0,0.0,0.0,0.0,0.0,0.0,0.0,0.0,0.0,0.0,0.0,0.0,0.0,0.0,0.0,0.0,0.0,0.0,0.0,0.0,0.0,0.0,0.0,0.0,0.0,0.0,0.0,0.0,0.0,0.0,0.0,0.0,0.0,0.0,0.0,0.0,0.0,0.0,0.0,0.0,0.0,0.0,0.0,0.0,0.0,0.0,0.0,0.0,0.0,0.0,0.0,0.0,0.0,0.0,0.0,0.0,0.0,0.0,0.0,0.0,0.0,0.0,0.0,0.0,0.0,0.0,0.0,0.0,0.0,0.0,0.0,0.0,0.0,0.0,0.0,0.0,0.0,0.0,0.0,0.0,0.0,0.0,0.0,0.0,0.0,0.0,0.0,0.0,0.0,0.0,0.0,0.0,0.0,1.4034,1.4006,1.3986,1.3944,1.3159,1.1491,0.0,0.0,0.0,0.0,0.0,0.0,0.0,0.0,0.0,0.0,0.0,0.0,0.0,0.0,0.0,0.0,0.0,0.0,0.0,0.0,0.0,0.0,0.0,0.0,0.0,0.0,0.0,0.0,0.0,0.0,0.0,0.0,0.0,0.0,0.0,0.0,0.0,0.0,0.0,0.0,0.0,0.0,0.0,0.0,0.0,0.0,0.0,0.0,0.0,0.0,0.0,0.0,0.0,0.0,0.0,0.0,0.0,0.0,0.0,0.0,0.0,0.0,0.0,0.0,0.0,0.0,0.0,0.0,0.0,0.0,0.0,0.0,0.0,0.0,0.0,0.0,0.0,0.0,0.0,0.0,0.0,0.0,0.0,0.0,0.0,0.0,0.0,0.0,0.0,0.0,0.0,0.0,0.0,0.0,0.0,0.0,0.0,0.0,0.0,0.0,0.0,0.0,0.0,0.0,0.0,0.0,0.0,0.0,1.4873,1.489,1.4858,1.4853,1.4858,1.3783,0.0,0.0,0.0,0.0,0.0,0.0,0.0,0.0,0.0,0.0,0.0,0.0,0.0,0.0,0.0,0.0,0.0,0.0,0.0,0.0,0.0,0.0,0.0,0.0,0.0,0.0,0.0,0.0,0.0,0.0,0.0,0.0,0.0,0.0,0.0,0.0,0.0,0.0,0.0,0.0,0.0,0.0,0.0,0.0,0.0,0.0,0.0,0.0,0.0,0.0,0.0,0.0,0.0,0.0,0.0,0.0,0.0,0.0,0.0,0.0,0.0,0.0,0.0,0.0,0.0,0.0,0.0,0.0,0.0,0.0,0.0,0.0,0.0,0.0,0.0,0.0,0.0,0.0,0.0,0.0,0.0,0.0,0.0,0.0,0.0,0.0,0.0,0.0,0.0,0.0,0.0,0.0,0.0,0.0,0.0,0.0,0.0,0.0,0.0,0.0,0.0,0.0,0.0,0.0,0.0,0.0,0.0,0.0,0.0,1.5015,1.5401,1.5597,1.558,1.5149,1.4341,0.0,0.0,0.0,0.0,0.0,0.0,0.0,0.0,0.0,0.0,0.0,0.0,0.0,0.0,0.0,0.0,0.0,0.0,0.0,0.0,0.0,0.0,0.0,0.0,0.0,0.0,0.0,0.0,0.0,0.0,0.0,0.0,0.0,0.0,0.0,0.0,0.0,0.0,0.0,0.0,0.0,0.0,0.0,0.0,0.0,0.0,0.0,0.0,0.0,0.0,0.0,0.0,0.0,0.0,0.0,0.0,0.0,0.0,0.0,0.0,0.0,0.0,0.0,0.0,0.0,0.0,0.0,0.0,0.0,0.0,0.0,0.0,0.0,0.0,0.0,0.0,0.0,0.0,0.0,0.0,0.0,0.0,0.0,0.0,0.0,0.0,0.0,0.0,0.0,0.0,0.0,0.0,0.0,0.0,0.0,0.0,0.0,0.0,0.0,0.0,0.0,0.0,0.0,0.0,0.0,0.0,0.0,0.0,0.0,1.6059,0.0,1.6958,1.6715,1.6245,1.5363,0.0,0.0,0.0,0.0,0.0,0.0,0.0,0.0,0.0,0.0,0.0,0.0,0.0,0.0,0.0,0.0,0.0,0.0,0.0,0.0,0.0,0.0,0.0,0.0,0.0,0.0,0.0,0.0,0.0,0.0,0.0,0.0,0.0,0.0,0.0,0.0,0.0,0.0,0.0,0.0,0.0,0.0,0.0,0.0,0.0,0.0,0.0,0.0,0.0,0.0,0.0,0.0,0.0,0.0,0.0,0.0,0.0,0.0,0.0,0.0,0.0,0.0,0.0,0.0,0.0,0.0,0.0,0.0,0.0,0.0,0.0,0.0,0.0,0.0,0.0,0.0,0.0,0.0,0.0,0.0,0.0,0.0,0.0,0.0,0.0,0.0,0.0,0.0,0.0,0.0,0.0,0.0,0.0,0.0,0.0,0.0,0.0,0.0,0.0,0.0,0.0,0.0,0.0,0.0,0.0,0.0,0.0,0.0,1.6325,1.8242,1.9022,1.8979,1.8272,1.8225,1.6899,0.0,0.0,0.0,0.0,0.0,0.0,0.0,0.0,0.0,0.0,0.0,0.0,0.0,0.0,0.0,0.0,0.0,0.0,0.0,0.0,0.0,0.0,0.0,0.0,0.0,0.0,0.0,0.0,0.0,0.0,0.0,0.0,0.0,0.0,0.0,0.0,0.0,0.0,0.0,0.0,0.0,0.0,0.0,0.0,0.0,0.0,0.0,0.0,0.0,0.0,0.0,0.0,0.0,0.0,0.0,0.0,0.0,0.0,0.0,0.0,0.0,0.0,0.0,0.0,0.0,0.0,0.0,0.0,0.0,0.0,0.0,0.0,0.0,0.0,0.0,0.0,0.0,0.0,0.0,0.0,0.0,0.0,0.0,0.0,0.0,0.0,0.0,0.0,0.0,0.0,0.0,0.0,0.0,0.0,0.0,0.0,0.0,0.0,0.0,0.0,0.0,0.0,0.0,0.0,0.0,0.0,0.0,0.0,0.0,2.0217,2.0393,2.037,2.0069,1.9216,1.7988,0.0,0.0,0.0,0.0,0.0,0.0,0.0,0.0,0.0,0.0,0.0,0.0,0.0,0.0,0.0,0.0,0.0,0.0,0.0,0.0,0.0,0.0,0.0,0.0,0.0,0.0,0.0,0.0,0.0,0.0,0.0,0.0,0.0,0.0,0.0,0.0,0.0,0.0,0.0,0.0,0.0,0.0,0.0,0.0,0.0,0.0,0.0,0.0,0.0,0.0,0.0,0.0,0.0,0.0,0.0,0.0,0.0,0.0,0.0,0.0,0.0,0.0,0.0,0.0,0.0,0.0,0.0,0.0,0.0,0.0,0.0,0.0,0.0,0.0,0.0,0.0,0.0,0.0,0.0,0.0,0.0,0.0,0.0,0.0,0.0,0.0,0.0,0.0,0.0,0.0,0.0,0.0,0.0,0.0,0.0,0.0,0.0,0.0,0.0,0.0,0.0,0.0,0.0,0.0,0.0,0.0,0.0,0.0,0.0,2.3047,2.2573,2.2189,2.1928,2.0989,1.9645,1.7956,0.0,0.0,0.0,0.0,0.0,0.0,0.0,0.0,0.0,0.0,0.0,0.0,0.0,0.0,0.0,0.0,0.0,0.0,0.0,0.0,0.0,0.0,0.0,0.0,0.0,0.0,0.0,0.0,0.0,0.0,0.0,0.0,0.0,0.0,0.0,0.0,0.0,0.0,0.0,0.0,0.0,0.0,0.0,0.0,0.0,0.0,0.0,0.0,0.0,0.0,0.0,0.0,0.0,0.0,0.0,0.0,0.0,0.0,0.0,0.0,0.0,0.0,0.0,0.0,0.0,0.0,0.0,0.0,0.0,0.0,0.0,0.0,0.0,0.0,0.0,0.0,0.0,0.0,0.0,0.0,0.0,0.0,0.0,0.0,0.0,0.0,0.0,0.0,0.0,0.0,0.0,0.0,0.0,0.0,0.0,0.0,0.0,0.0,0.0,0.0,0.0,0.0,0.0,0.0,0.0,0.0,0.0,0.0,2.6581,2.5476,2.4571,2.3944,2.3333,2.1841,0.0,0.0,0.0,0.0,0.0,0.0,0.0,0.0,0.0,0.0,0.0,0.0,0.0,0.0,0.0,0.0,0.0,0.0,0.0,0.0,0.0,0.0,0.0,0.0,0.0,0.0,0.0,0.0,0.0,0.0,0.0,0.0,0.0,0.0,0.0,0.0,0.0,0.0,0.0,0.0,0.0,0.0,0.0,0.0,0.0,0.0,0.0,0.0,0.0,0.0,0.0,0.0,0.0,0.0,0.0,0.0,0.0,0.0,0.0,0.0,0.0,0.0,0.0,0.0,0.0,0.0,0.0,0.0,0.0,0.0,0.0,0.0,0.0,0.0,0.0,0.0,0.0,0.0,0.0,0.0,0.0,0.0,0.0,0.0,0.0,0.0,0.0,0.0,0.0,0.0,0.0,0.0,0.0,0.0,0.0,0.0,0.0,0.0,0.0,0.0,0.0,0.0,0.0,0.0,0.0,0.0,0.0,0.0,0.0,2.9181,2.9277,2.8428,2.664,2.54,2.3487,0.0,0.0,0.0,0.0,0.0,0.0,0.0,0.0,0.0,0.0,0.0,0.0,0.0,0.0,0.0,0.0,0.0,0.0,0.0,0.0,0.0,0.0,0.0,0.0,0.0,0.0,0.0,0.0,0.0,0.0,0.0,0.0,0.0,0.0,0.0,0.0,0.0,0.0,0.0,0.0,0.0,0.0,0.0,0.0,0.0,0.0,0.0,0.0,0.0,0.0,0.0,0.0,0.0,0.0,0.0,0.0,0.0,0.0,0.0,0.0,0.0,0.0,0.0,0.0,0.0,0.0,0.0,0.0,0.0,0.0,0.0,0.0,0.0,0.0,0.0,0.0,0.0,0.0,0.0,0.0,0.0,0.0,0.0,0.0,0.0,0.0,0.0,0.0,0.0,0.0,0.0,0.0,0.0,0.0,0.0,0.0,0.0,0.0,0.0,0.0,0.0,0.0,0.0,0.0,0.0,0.0,0.0,0.0,2.8346,3.0142,3.0761,3.0567,2.9527,2.7605,2.5402,0.0,0.0,0.0,0.0,0.0,0.0,0.0,0.0,0.0,0.0,0.0,0.0,0.0,0.0,0.0,0.0,0.0,0.0,0.0,0.0,0.0,0.0,0.0,0.0,0.0,0.0,0.0,0.0,0.0,0.0,0.0,0.0,0.0,0.0,0.0,0.0,0.0,0.0,0.0,0.0,0.0,0.0,0.0,0.0,0.0,0.0,0.0,0.0,0.0,0.0,0.0,0.0,0.0,0.0,0.0,0.0,0.0,0.0,0.0,0.0,0.0,0.0,0.0,0.0,0.0,0.0,0.0,0.0,0.0,0.0,0.0,0.0,0.0,0.0,0.0,0.0,0.0,0.0,0.0,0.0,0.0,0.0,0.0,0.0,0.0,0.0,0.0,0.0,0.0,0.0,0.0,0.0,0.0,0.0,0.0,0.0,0.0,0.0,0.0,0.0,0.0,0.0,0.0,0.0,0.0,0.0,0.0,0.0,2.8744,3.0287,3.1052,3.1692,3.2184,2.9768,2.7296,0.0,0.0,0.0,0.0,0.0,0.0,0.0,0.0,0.0,0.0,0.0,0.0,0.0,0.0,0.0,0.0,0.0,0.0,0.0,0.0,0.0,0.0,0.0,0.0,0.0,0.0,0.0,0.0,0.0,0.0,0.0,0.0,0.0,0.0,0.0,0.0,0.0,0.0,0.0,0.0,0.0,0.0,0.0,0.0,0.0,0.0,0.0,0.0,0.0,0.0,0.0,0.0,0.0,0.0,0.0,0.0,0.0,0.0,0.0,0.0,0.0,0.0,0.0,0.0,0.0,0.0,0.0,0.0,0.0,0.0,0.0,0.0,0.0,0.0,0.0,0.0,0.0,0.0,0.0,0.0,0.0,0.0,0.0,0.0,0.0,0.0,0.0,0.0,0.0,0.0,0.0,0.0,0.0,0.0,0.0,0.0,0.0,0.0,0.0,0.0,0.0,0.0,0.0,0.0,0.0,0.0,0.0,0.0,3.074,3.2452,3.2668,3.3018,3.35,3.0977,2.8426,0.0,0.0,0.0,0.0,0.0,0.0,0.0,0.0,0.0,0.0,0.0,0.0,0.0,0.0,0.0,0.0,0.0,0.0,0.0,0.0,0.0,0.0,0.0,0.0,0.0,0.0,0.0,0.0,0.0,0.0,0.0,0.0,0.0,0.0,0.0,0.0,0.0,0.0,0.0,0.0,0.0,0.0,0.0,0.0,0.0,0.0,0.0,0.0,1.9717,0.0,0.0,0.0,0.0,0.0,0.0,0.0,0.0,0.0,0.0,0.0,0.0,0.0,0.0,0.0,0.0,0.0,0.0,0.0,0.0,0.0,0.0,0.0,0.0,0.0,0.0,0.0,0.0,0.0,0.0,0.0,0.0,0.0,0.0,0.0,0.0,0.0,0.0,0.0,0.0,0.0,0.0,0.0,0.0,0.0,0.0,0.0,0.0,0.0,0.0,0.0,0.0,0.0,0.0,0.0,0.0,0.0,0.0,0.0,3.2112,3.3634,3.3906,3.3982,3.3834,3.1964,2.9655,0.0,0.0,0.0,0.0,0.0,0.0,0.0,0.0,0.0,0.0,0.0,0.0,0.0,0.0,0.0,0.0,0.0,0.0,0.0,0.0,0.0,0.0,0.0,0.0,0.0,0.0,0.0,0.0,0.0,0.0,0.0,0.0,0.0,0.0,0.0,0.0,0.0,0.0,0.0,0.0,0.0,0.0,0.0,0.0,0.0,0.0,0.0,0.0,0.0,0.0,0.0,0.0,0.0,0.0,0.0,0.0,0.0,0.0,0.0,0.0,0.0,0.0,0.0,0.0,0.0,0.0,0.0,0.0,0.0,0.0,0.0,0.0,0.0,0.0,0.0,0.0,0.0,0.0,0.0,0.0,0.0,0.0,0.0,0.0,0.0,0.0,0.0,0.0,0.0,0.0,0.0,0.0,0.0,0.0,0.0,0.0,0.0,0.0,0.0,0.0,0.0,0.0,0.0,0.0,0.0,0.0,0.0,3.1274,3.3109,3.4483,3.4851,3.4707,3.4018,3.279,3.0728,2.7794,0.0,0.0,0.0,0.0,0.0,0.0,0.0,0.0,0.0,0.0,0.0,0.0,0.0,0.0,0.0,0.0,0.0,0.0,0.0,0.0,0.0,0.0,0.0,0.0,0.0,0.0,0.0,0.0,0.0,0.0,0.0,0.0,0.0,0.0,0.0,0.0,0.0,0.0,1.6028,1.8464,0.0,0.0,0.0,0.0,0.0,0.0,0.0,0.0,2.2352,0.0,0.0,0.0,0.0,0.0,0.0,0.0,0.0,0.0,0.0,0.0,0.0,0.0,0.0,0.0,0.0,0.0,0.0,0.0,0.0,0.0,0.0,0.0,0.0,0.0,0.0,0.0,0.0,0.0,0.0,0.0,0.0,0.0,0.0,0.0,0.0,0.0,0.0,0.0,0.0,0.0,0.0,0.0,0.0,0.0,0.0,0.0,0.0,0.0,0.0,0.0,0.0,0.0,0.0,0.0,0.0,3.0509,3.2464,3.4125,3.5523,3.5614,3.5291,3.4482,3.3297,3.1174,2.7978,0.0,0.0,0.0,0.0,0.0,0.0,0.0,0.0,0.0,0.0,0.0,0.0,0.0,0.0,0.0,0.0,0.0,0.0,0.0,0.0,0.0,0.0,0.0,0.0,0.0,0.0,0.0,0.0,0.0,0.0,0.0,0.0,0.0,0.0,0.0,0.0,0.0,0.0,0.0,2.1121,2.2654,0.0,0.0,0.0,0.0,0.0,0.0,0.0,0.0,2.3504,0.0,0.0,0.0,0.0,0.0,0.0,0.0,0.0,0.0,0.0,0.0,0.0,0.0,0.0,0.0,0.0,0.0,0.0,0.0,0.0,0.0,0.0,0.0,0.0,0.0,0.0,0.0,0.0,0.0,0.0,0.0,0.0,0.0,0.0,0.0,0.0,0.0,0.0,0.0,0.0,0.0,0.0,0.0,0.0,0.0,0.0,0.0,0.0,0.0,0.0,0.0,0.0,0.0,0.0,0.0,3.1341,3.3513,3.5317,3.6826,3.6894,3.6451,3.5554,3.4188,3.1811,0.0,0.0,0.0,0.0,0.0,0.0,0.0,0.0,0.0,0.0,0.0,0.0,0.0,0.0,0.0,0.0,0.0,0.0,0.0,0.0,0.0,0.0,0.0,0.0,0.0,0.0,0.0,0.0,0.0,0.0,0.0,0.0,0.0,0.0,0.0,0.0,0.0,0.0,0.0,0.0,2.267,2.4631,2.551,0.0,0.0,0.0,0.0,0.0,0.0,2.5448,2.5195,0.0,0.0,0.0,0.0,0.0,0.0,0.0,0.0,0.0,0.0,0.0,0.0,0.0,0.0,0.0,0.0,0.0,0.0,0.0,0.0,0.0,0.0,0.0,0.0,0.0,0.0,0.0,0.0,0.0,0.0,0.0,0.0,0.0,0.0,0.0,0.0,0.0,0.0,0.0,0.0,0.0,0.0,0.0,0.0,0.0,0.0,0.0,0.0,0.0,0.0,0.0,0.0,0.0,0.0,0.0,3.1999,3.4336,3.6306,3.7911,3.7979,3.7533,3.662,3.4984,3.2485,0.0,0.0,0.0,0.0,0.0,0.0,0.0,0.0,0.0,0.0,0.0,0.0,0.0,0.0,0.0,0.0,0.0,0.0,0.0,0.0,0.0,0.0,0.0,0.0,0.0,0.0,0.0,0.0,0.0,0.0,0.0,0.0,0.0,0.0,0.0,0.0,0.0,0.0,0.0,0.0,0.0,2.6273,2.6954,2.7717,0.0,0.0,0.0,0.0,2.6441,2.7216,0.0,0.0,0.0,0.0,0.0,0.0,0.0,0.0,0.0,0.0,0.0,0.0,0.0,0.0,0.0,0.0,0.0,0.0,0.0,0.0,0.0,0.0,0.0,0.0,0.0,0.0,0.0,0.0,0.0,0.0,0.0,0.0,0.0,0.0,0.0,0.0,0.0,0.0,0.0,0.0,0.0,0.0,0.0,0.0,0.0,0.0,0.0,0.0,0.0,0.0,0.0,0.0,0.0,0.0,0.0,0.0,3.2274,3.4662,3.6629,3.8175,3.8248,3.7941,3.7269,3.5565,3.2818,0.0,0.0,0.0,0.0,0.0,0.0,0.0,0.0,0.0,0.0,0.0,0.0,0.0,0.0,0.0,0.0,0.0,0.0,0.0,0.0,0.0,0.0,0.0,0.0,0.0,0.0,0.0,0.0,0.0,0.0,0.0,0.0,0.0,0.0,0.0,0.0,0.0,0.0,0.0,0.0,0.0,2.7196,2.8367,2.9242,2.9458,0.0,0.0,2.8916,2.9308,2.9337,0.0,0.0,0.0,0.0,0.0,0.0,0.0,0.0,0.0,0.0,0.0,0.0,0.0,0.0,0.0,0.0,0.0,0.0,0.0,0.0,0.0,0.0,0.0,0.0,0.0,0.0,0.0,0.0,0.0,0.0,0.0,0.0,0.0,0.0,0.0,0.0,0.0,0.0,0.0,0.0,0.0,0.0,0.0,0.0,0.0,0.0,0.0,0.0,0.0,0.0,0.0,0.0,0.0,0.0,0.0,3.0163,3.3997,3.5994,3.7709,3.9181,3.8807,3.8158,3.7306,3.5715,3.3216,0.0,0.0,0.0,0.0,0.0,0.0,0.0,0.0,0.0,0.0,0.0,0.0,0.0,0.0,0.0,0.0,0.0,0.0,0.0,0.0,0.0,0.0,0.0,0.0,0.0,0.0,0.0,0.0,0.0,0.0,0.0,0.0,0.0,0.0,0.0,0.0,0.0,0.0,0.0,0.0,0.0,0.0,2.8217,3.0076,0.0,0.0,0.0,3.099,3.116,0.0,0.0,0.0,0.0,0.0,0.0,0.0,0.0,0.0,0.0,0.0,0.0,0.0,0.0,0.0,0.0,0.0,0.0,0.0,0.0,0.0,0.0,0.0,0.0,0.0,0.0,0.0,0.0,0.0,0.0,0.0,0.0,0.0,0.0,0.0,0.0,0.0,0.0,0.0,0.0,0.0,0.0,0.0,0.0,0.0,0.0,0.0,0.0,0.0,0.0,0.0,0.0,0.0,0.0,0.0,0.0,0.0,3.5078,3.6965,3.8574,3.9883,3.936,3.8629,3.7688,3.6073,0.0,0.0,0.0,0.0,0.0,0.0,0.0,0.0,0.0,0.0,0.0,0.0,0.0,0.0,0.0,0.0,0.0,0.0,0.0,0.0,0.0,0.0,0.0,0.0,0.0,0.0,0.0,0.0,0.0,0.0,0.0,0.0,0.0,0.0,0.0,0.0,0.0,0.0,0.0,0.0,0.0,0.0,2.7687,2.8466,3.0773,3.2216,0.0,0.0,3.2641,3.2478,3.1975,3.1347,0.0,0.0,0.0,0.0,0.0,0.0,0.0,0.0,0.0,0.0,0.0,0.0,0.0,0.0,0.0,0.0,0.0,0.0,0.0,0.0,0.0,0.0,0.0,0.0,0.0,0.0,0.0,0.0,0.0,0.0,0.0,0.0,0.0,0.0,0.0,0.0,0.0,0.0,0.0,0.0,0.0,0.0,0.0,0.0,0.0,0.0,0.0,0.0,0.0,0.0,0.0,0.0,0.0,0.0,0.0,3.456,3.6932,3.8757,3.987,3.9859,3.9544,3.895,3.6851,3.4344,0.0,0.0,0.0,0.0,0.0,0.0,0.0,0.0,0.0,0.0,0.0,0.0,0.0,0.0,0.0,0.0,0.0,0.0,0.0,0.0,0.0,0.0,0.0,0.0,0.0,0.0,0.0,0.0,0.0,0.0,0.0,0.0,0.0,0.0,0.0,0.0,0.0,0.0,0.0,0.0,0.0,2.8689,2.9938,3.1495,3.2471,0.0,0.0,3.3444,3.3151,3.3559,3.356,3.2629,0.0,0.0,0.0,0.0,0.0,0.0,0.0,0.0,0.0,0.0,0.0,0.0,0.0,0.0,0.0,0.0,0.0,0.0,0.0,0.0,0.0,0.0,0.0,0.0,0.0,0.0,0.0,0.0,0.0,0.0,0.0,0.0,0.0,0.0,0.0,0.0,0.0,0.0,0.0,0.0,0.0,0.0,0.0,0.0,0.0,0.0,0.0,0.0,0.0,0.0,0.0,0.0,0.0,3.3739,3.7687,3.8919,4.0444,4.2126,4.1719,4.0919,3.9842,3.8178,3.6117,0.0,0.0,0.0,0.0,0.0,0.0,0.0,0.0,0.0,0.0,0.0,0.0,0.0,0.0,0.0,0.0,0.0,0.0,0.0,0.0,0.0,0.0,0.0,0.0,0.0,0.0,0.0,0.0,1.6353,1.7344,1.8567,0.0,0.0,0.0,0.0,0.0,0.0,0.0,0.0,0.0,0.0,2.8945,3.0342,3.2111,0.0,0.0,3.4292,3.5015,3.4833,3.4851,3.4598,3.3747,3.2577,0.0,0.0,0.0,0.0,0.0,0.0,0.0,0.0,0.0,0.0,0.0,0.0,0.0,0.0,0.0,0.0,0.0,0.0,0.0,0.0,0.0,0.0,0.0,0.0,0.0,0.0,0.0,0.0,0.0,0.0,0.0,0.0,0.0,0.0,0.0,0.0,0.0,0.0,0.0,0.0,0.0,0.0,0.0,0.0,0.0,0.0,0.0,0.0,0.0,0.0,0.0,0.0,3.5679,4.0359,4.1002,4.23,4.4216,4.3617,4.2702,4.1568,4.011,3.8399,0.0,0.0,0.0,0.0,0.0,0.0,0.0,0.0,0.0,0.0,0.0,0.0,0.0,0.0,0.0,0.0,0.0,0.0,0.0,0.0,0.0,0.0,0.0,0.0,0.0,0.0,0.0,0.0,1.7895,1.8882,2.0127,0.0,0.0,0.0,0.0,0.0,0.0,0.0,0.0,0.0,0.0,2.9735,3.1162,3.2973,3.4179,3.4132,3.5379,3.629,3.6166,3.5989,3.5615,3.4935,0.0,0.0,0.0,0.0,0.0,0.0,0.0,0.0,0.0,0.0,0.0,0.0,0.0,0.0,0.0,0.0,0.0,0.0,0.0,0.0,0.0,0.0,0.0,0.0,0.0,0.0,0.0,0.0,0.0,0.0,2.095,0.0,0.0,0.0,0.0,0.0,0.0,0.0,0.0,0.0,0.0,0.0,0.0,0.0,0.0,0.0,0.0,0.0,0.0,0.0,0.0,0.0,0.0,3.8189,4.1728,4.2894,4.4136,4.5533,4.5389,4.4962,4.4297,4.2834,4.1175,3.935,0.0,0.0,0.0,0.0,0.0,0.0,0.0,0.0,0.0,0.0,0.0,0.0,0.0,0.0,0.0,0.0,0.0,0.0,0.0,0.0,0.0,0.0,0.0,0.0,0.0,0.0,1.8906,2.0148,2.1181,0.0,0.0,0.0,0.0,0.0,0.0,0.0,0.0,0.0,0.0,3.0484,3.1412,3.2694,3.4117,3.5091,3.4939,3.6174,3.7051,3.6957,3.6931,3.6724,0.0,0.0,0.0,0.0,0.0,0.0,0.0,0.0,0.0,0.0,0.0,0.0,0.0,0.0,0.0,0.0,0.0,0.0,0.0,0.0,0.0,0.0,0.0,0.0,0.0,0.0,0.0,2.3866,2.5347,0.0,0.0,0.0,0.0,0.0,0.0,0.0,0.0,0.0,0.0,0.0,2.9367,2.8862,0.0,0.0,0.0,0.0,0.0,0.0,0.0,0.0,0.0,0.0,0.0,0.0,4.0788,4.4245,4.5307,4.6452,4.787,4.7758,4.7389,4.6721,4.5787,4.4233,4.2079,0.0,0.0,0.0,0.0,0.0,0.0,0.0,0.0,0.0,0.0,0.0,0.0,0.0,0.0,0.0,0.0,0.0,0.0,0.0,0.0,0.0,0.0,0.0,0.0,0.0,2.0088,0.0,0.0,0.0,0.0,0.0,0.0,0.0,0.0,0.0,0.0,0.0,2.8856,3.0543,3.215,3.3558,3.451,3.5723,3.6703,0.0,0.0,0.0,0.0,0.0,0.0,0.0,0.0,0.0,0.0,0.0,0.0,0.0,0.0,3.7673,3.5147,3.5267,3.6135,3.7284,0.0,0.0,0.0,0.0,0.0,0.0,0.0,0.0,0.0,0.0,0.0,0.0,0.0,0.0,2.7364,0.0,2.8889,0.0,0.0,0.0,0.0,0.0,0.0,0.0,0.0,3.1466,3.202,3.2919,3.2573,3.2683,0.0,3.4047,3.3385,0.0,0.0,0.0,0.0,0.0,0.0,0.0,0.0,4.3404,4.6589,4.7543,4.8538,4.9645,4.9605,4.9353,4.8956,4.8199,4.68,4.4608,4.3473,4.1476,0.0,0.0,0.0,0.0,0.0,0.0,0.0,0.0,0.0,0.0,0.0,0.0,0.0,0.0,0.0,0.0,0.0,0.0,0.0,0.0,0.0,0.0,0.0,2.2463,0.0,0.0,0.0,0.0,0.0,0.0,0.0,0.0,0.0,2.8425,2.9576,3.1099,3.2544,3.4373,3.5835,3.653,0.0,0.0,0.0,0.0,0.0,0.0,0.0,4.1847,4.1403,4.1222,4.13,4.1778,4.2541,4.3215,4.3521,0.0,0.0,4.0304,4.036,4.1424,4.2702,4.3955,4.5119,4.6123,4.7127,4.8051,0.0,0.0,0.0,0.0,0.0,0.0,0.0,0.0,2.9941,3.0882,0.0,3.1477,0.0,0.0,0.0,0.0,0.0,3.2178,0.0,0.0,3.4867,3.5656,3.6423,3.6539,3.698,3.7627,3.845,3.9177,3.9629,3.7809,0.0,0.0,0.0,0.0,0.0,0.0,4.6044,4.8604,4.9579,5.0382,5.0909,5.081,5.081,5.0942,5.0079,4.8796,4.7175,4.6741,4.5381,4.286,3.8978,0.0,0.0,0.0,0.0,0.0,0.0,0.0,0.0,0.0,0.0,0.0,0.0,0.0,0.0,0.0,0.0,0.0,0.0,0.0,0.0,2.431,0.0,0.0,0.0,0.0,0.0,0.0,0.0,0.0,0.0,0.0,3.1562,3.2577,3.4032,3.5464,0.0,0.0,0.0,0.0,4.0822,4.0801,4.1787,4.2601,4.2667,4.3282,4.3701,4.3614,0.0,0.0,4.5621,4.6994,4.8183,4.9094,4.9742,4.9194,4.5494,4.5762,4.7094,4.8746,4.8695,4.8845,5.0058,5.0557,5.0839,3.6046,0.0,0.0,0.0,0.0,3.2112,3.3252,3.5439,3.4842,3.536,3.6595,3.5838,0.0,0.0,0.0,0.0,0.0,0.0,3.6023,3.6638,3.728,3.7804,3.824,3.8356,3.8897,3.9888,4.1117,4.2251,4.3302,4.4552,4.3885,4.1502,0.0,0.0,0.0,0.0,4.8545,5.0121,5.1179,5.1774,5.1972,5.2042,5.2129,5.2318,5.2051,5.1544,5.0775,5.0156,4.826,4.4962,4.1766,0.0,0.0,0.0,0.0,0.0,0.0,0.0,0.0,0.0,0.0,0.0,0.0,0.0,0.0,0.0,0.0,0.0,0.0,0.0,2.5428,2.6678,2.7592,0.0,0.0,0.0,0.0,0.0,0.0,0.0,0.0,0.0,3.5926,3.5374,3.5543,0.0,0.0,3.9918,4.1131,4.1977,4.2878,4.3877,4.4181,0.0,0.0,4.5925,4.6343,4.75,4.8693,4.9458,4.9358,5.0543,5.1412,5.1161,5.2081,5.2716,5.2384,5.1026,5.0642,5.1663,5.2636,5.3376,5.3879,5.4858,5.5721,4.226,3.87,3.6777,3.6253,3.6699,3.6201,3.6918,3.8483,3.7685,3.7959,3.8921,3.8151,3.7545,3.705,3.6988,0.0,0.0,0.0,3.859,3.911,3.915,3.9589,4.0314,4.0504,4.1064,4.2084,4.3464,4.462,4.5607,4.7955,4.8066,4.6065,0.0,0.0,4.8089,4.9184,5.0182,5.1162,5.1972,5.2427,5.248,5.2624,5.2764,5.2886,5.2972,5.2874,5.2522,5.1964,5.0459,4.7929,4.4202,3.9939,0.0,0.0,0.0,0.0,0.0,0.0,0.0,0.0,0.0,0.0,0.0,2.0409,0.0,0.0,0.0,0.0,2.5992,2.7126,2.8227,2.9336,0.0,0.0,0.0,0.0,0.0,0.0,0.0,3.5422,3.6752,3.8171,3.9445,3.8824,3.8633,3.9512,4.0946,4.23,4.3504,0.0,4.5284,4.6178,4.6587,4.7236,4.8423,4.8776,4.9293,5.0627,5.1597,5.2453,5.2689,5.3629,5.4319,5.4338,5.4961,5.5737,5.6282,5.5113,5.4234,5.4844,5.5471,5.5996,5.6334,5.6998,5.7543,4.7498,4.6194,4.1609,3.9714,3.9752,3.9667,3.9758,3.9853,3.9205,3.9305,3.9907,3.9073,3.9132,3.9893,4.0652,0.0,3.9907,4.0295,4.0797,4.1517,4.0693,4.1126,4.2533,4.2777,4.3336,4.4156,4.5448,4.645,4.7221,4.9102,5.0257,5.0707,5.0524,5.0396,5.038,5.0703,5.1179,5.1832,5.2256,5.25,5.2659,5.2834,5.2938,5.2938,5.3127,5.3127,5.2972,5.2539,5.1877,5.0843,4.6116,4.1754,3.8096,0.0,0.0,0.0,0.0,0.0,0.0,0.0,0.0,0.0,0.0,0.0,0.0,0.0,0.0,0.0,2.911,0.0,3.1305,3.2196,0.0,0.0,0.0,3.5392,3.5986,3.7161,3.8092,3.8481,0.0,0.0,4.2388,4.2672,4.274,4.2909,4.3924,4.5007,4.5838,4.6952,4.7855,4.7989,4.8926,4.9955,5.0626,5.1464,5.2234,5.2972,5.3257,5.3948,5.5131,5.6008,5.6889,5.7372,5.7832,5.7814,5.7866,5.7679,5.79,5.7712,5.7306,5.707,5.7611,5.7374,5.7205,4.9535,4.9018,4.7156,4.5335,4.3644,4.3534,4.311,4.2556,4.2284,4.1916,4.1428,4.0627,4.0046,3.9706,3.9883,4.0192,4.0552,4.0646,4.1407,4.2646,4.2483,4.2895,4.3813,4.3814,4.4495,4.5786,4.6399,4.7616,4.9326,5.0476,5.1335,5.1874,5.2301,5.2168,5.1595,5.1564,5.1682,5.1967,5.2655,5.3076,5.3213,5.3161,5.3179,5.3348,5.3399,5.3399,5.3348,5.2806,5.1584,4.9463,4.6304,4.2704,3.8683,3.5264,0.0,0.0,0.0,0.0,0.0,0.0,0.0,0.0,0.0,2.5296,2.6223,0.0,2.8827,0.0,3.1425,3.3003,3.3792,3.5193,0.0,0.0,3.8419,3.9205,3.9206,4.0712,4.1749,4.1625,4.2594,4.389,4.55,4.5751,4.636,4.7951,4.6616,4.6094,4.7902,4.8462,4.9107,5.0089,5.0517,5.0958,5.1749,5.3363,5.4539,5.4792,5.5842,5.6658,5.6491,5.7065,5.7455,5.7205,5.7543,5.7832,5.79,5.79,5.79,5.79,5.7764,5.7697,5.7866,5.7764,5.7679,5.0744,5.056,4.9631,4.8424,4.7097,4.5946,4.4692,4.3559,4.345,4.2963,4.21,4.1649,4.1233,4.0887,4.1517,4.2075,4.2491,4.2868,4.3464,4.419,4.3815,4.4043,4.4752,4.4941,4.5655,4.6788,4.7592,4.8514,4.965,5.0986,5.1789,5.2055,5.2686,5.2788,5.2349,5.2134,5.2219,5.2606,5.3062,5.3332,5.3416,5.3349,5.3382,5.3501,5.3501,5.3501,5.3484,5.2665,5.1433,4.9786,4.6934,4.391,4.0723,3.787,3.5376,0.0,0.0,0.0,0.0,0.0,0.0,0.0,0.0,0.0,0.0,0.0,3.1938,3.2893,3.4906,3.6335,3.6689,3.8566,3.9917,4.0382,4.1742,4.2527,4.2207,4.3608,4.4619,4.4627,4.5778,4.709,4.8545,4.9052,4.983,5.1386,5.0186,4.9357,4.9848,5.0236,5.0761,5.1539,5.1947,5.237,5.3095,5.4478,5.5625,5.6014,5.6795,5.734,5.7306,5.7611,5.7764,5.7408,5.7611,5.79,5.79,5.79,5.79,5.79,5.79,5.79,5.79,5.79,5.79,5.1712,5.1479,5.0498,5.0021,4.9807,4.7582,4.5638,4.4047,4.3908,4.336,4.2577,4.2638,4.2709,4.2781,4.4232,4.4862,4.4898,4.5586,4.5886,4.5819,4.509,4.5081,4.5764,4.6228,4.6828,4.7552,4.8698,4.9292,4.9332,5.1128,5.1965,5.1928,5.2595,5.2971,5.2923,5.2629,5.2804,5.35,5.3297,5.3297,5.3466,5.3501,5.3501,5.3501,5.3501,5.3501,5.3484,5.244,5.1552,5.0898,4.8065,4.5606,4.3769,4.1025,3.8811,0.0,3.6442,0.0,0.0,0.0,0.0,0.0,0.0,0.0,0.0,3.3936,3.5427,3.6841,3.8757,3.9944,3.9971,4.2081,4.3474,4.3523,4.4929,4.5707,4.5432,4.6437,4.7317,4.7665,4.8824,5.0119,5.1404,5.2232,5.2875,5.3551,5.3585,5.3061,5.2148,5.2164,5.2401,5.2536,5.3078,5.3568,5.4312,5.5158,5.5936,5.6578,5.6934,5.7171,5.7764,5.7866,5.79,5.7866,5.79,5.79,5.79,5.79,5.79,5.79,5.79,5.79,5.79,5.79,5.79,5.3263,5.2954,5.1499,5.0758,5.045,4.9351,4.7978,4.6462,4.5584,4.474,4.399,4.457,4.4807,4.4878,4.581,4.6247,4.6247,4.6354,4.6767,4.7357,4.7095,4.7363,4.8018,4.793,4.8325,4.9055,4.9062,4.9686,5.0885,5.1625,5.2283,5.2819,5.3592,5.3871,5.3757,0.0,0.0,0.0,5.2814,5.2716,5.3814,5.3635,5.3501,5.3501,5.3501,0.0,5.3484,5.2836,5.2227,5.1672,5.0178,0.0,0.0,0.0,0.0,0.0,0.0,0.0,0.0,0.0,0.0,0.0,4.054,3.8898,3.5687,3.7225,3.8974,4.0289,4.1444,4.2508,4.3532,4.5308,4.6665,4.7181,4.8438,4.9444,4.9729,5.033,5.0912,5.1473,5.2195,5.2976,5.3754,5.411,5.4465,5.5124,5.5293,5.5158,5.4887,5.3906,5.3518,5.3991,5.3856,5.3822,5.4516,5.5243,5.6003,5.6664,5.7306,5.7697,5.7866,5.79,5.79,5.79,5.79,5.79,5.79,5.79,5.79,5.79,5.79,5.79,5.79,5.79,5.79,5.4134,0.0,5.2964,5.248,0.0,5.1236,5.0401,4.9513,4.7536,4.633,4.581,4.6185,4.6326,4.6361,4.7148,4.7266,4.6961,4.7349,4.7711,4.8035,4.8007,4.8105,4.8426,4.8644,4.8969,4.9256,4.9833,5.0509,5.1218,5.2207,5.2822,5.3088,5.3513,5.3706,5.3528,5.3044,5.3247,5.4207,5.3715,5.3962,5.4906,5.4737,5.4414,5.4059,5.4025,0.0,0.0,0.0,0.0,0.0,0.0,0.0,0.0,4.8778,0.0,4.6661,4.5966,4.5242,4.4489,4.4766,4.5147,4.5507,4.5923,4.4389,4.0246,4.1349,4.2645,4.3652,4.5,4.6247,4.7258,4.9063,5.0318,5.059,5.1553,5.2142,5.1953,5.2636,5.3172,5.3194,5.4279,5.5277,5.5615,5.6039,5.6343,5.6731,5.6799,5.6765,5.6664,5.5496,5.4769,5.5108,5.4871,5.4718,5.5108,5.5733,5.6325,5.6799,5.7408,5.7832,5.79,5.79,5.79,5.79,5.79,5.79,5.79,5.79,5.79,5.79,5.79,5.79,5.79,5.79,5.79,5.4745,5.4657,5.4229,5.3949,5.3758,5.2764,5.2235,5.1913,0.0,0.0,0.0,4.7823,4.788,4.7915,4.8687,4.8679,4.8168,4.8877,4.9151,4.903,4.9057,4.9017,4.8943,4.9569,4.9764,4.9693,5.0856,5.1474,5.1518,5.2758,5.3335,5.3278,5.3373,5.3391,5.3231,5.2741,5.3054,5.4264,5.456,5.4991,5.5587,5.538,5.5023,5.4397,5.4397,5.4126,5.3518,5.3041,5.3056,5.3599,5.2061,5.1539,5.2317,5.1134,5.0427,5.0483,5.038,5.0051,4.9404,4.9968,5.0105,4.959,5.0154,4.9004,4.5411,4.5625,4.6275,4.7056,4.8618,4.9858,5.0523,5.2353,5.3468,5.3359,5.4044,5.4169,5.3531,5.4381,5.4907,5.4583,5.5886,5.7002,5.6968,5.7442,5.79,5.7866,5.7764,5.79,5.773,5.6664,5.5767,5.5631,5.553,5.5665,5.5936,5.6359,5.6833,5.7036,5.7527,5.7866,5.79,5.79,5.79,5.79,5.79,5.79,5.79,5.79,5.79,5.79,5.79,5.79,5.79,5.79,5.79,5.5433,5.5058,5.4313,5.3686,5.3205,5.2901,5.2418,5.168,5.0299,4.9524,4.9291,4.9825,5.0054,5.0123,5.1008,5.1359,5.127,5.1692,5.1829,5.1815,5.201,5.2068,5.2074,5.2041,5.2037,5.2008,5.2032,5.233,5.2791,5.3016,5.3384,5.3806,5.3874,5.3874,5.3842,5.3609,5.3918,5.4668,5.3677,5.3406,5.3989,5.3873,5.3788,5.3653,5.3687,5.3619,5.3518,5.3399,5.3483,5.3667,5.3428,5.3614,5.4294,5.3728,5.3335,5.3137,5.267,5.234,5.2222,5.234,5.2598,5.3126,5.3263,5.2345,5.0139,4.9424,4.9691,5.0916,5.1317,5.1756,5.2438,5.391,5.4785,5.4652,5.5264,5.5842,5.6024,5.6293,5.6598,5.6968,5.7509,5.7697,5.7679,5.778,5.79,5.79,5.79,5.79,5.7764,5.7171,5.6427,5.5868,5.5699,5.5969,5.6528,5.6697,5.707,5.7645,5.7798,5.79,5.79,5.79,5.79,5.79,5.79,5.79,5.79,5.79,5.79,5.79,5.79,5.79,5.79,5.79,5.79,5.6066,5.5785,5.5099,5.4606,5.4209,5.3773,5.3238,5.2647,5.2552,5.2001,5.134,5.2038,5.2156,5.1849,5.2532,5.2413,5.1629,5.1769,5.1881,5.1862,5.2081,5.2157,5.2172,5.2203,5.2203,5.2237,5.254,5.2841,5.3122,5.3439,5.3671,5.3799,5.375,5.3735,5.3718,5.3651,5.3737,5.4076,5.3972,5.4176,5.4737,5.4736,5.4532,5.4126,5.4093,5.389,5.3501,5.3501,5.372,5.4178,5.3805,5.3906,5.4635,5.4856,5.4873,5.4805,5.528,5.5569,5.5569,5.5569,5.5705,5.6045,5.6079,5.5689,5.4787,5.268,5.1869,5.2935,5.3299,5.3763,5.4481,5.5808,5.6571,5.6483,5.6822,5.6956,5.6851,5.7205,5.7374,5.7374,5.7663,5.79,5.79,5.79,5.79,5.79,5.79,5.79,5.79,5.7611,5.7273,5.6968,5.6883,5.7002,5.7306,5.7374,5.7561,5.7866,5.79,5.79,5.79,5.79,5.79,5.79,5.79,5.79,5.79,5.79,5.79,5.79,5.79,5.79,5.79,5.79,5.79,5.6451,5.6189,5.5648,5.5214,5.488,5.4425,5.4005,5.3687,5.443,5.4211,5.3414,5.3956,5.3887,5.3377,5.3702,5.3177,5.2127,5.1888,5.1869,5.1917,5.2061,5.219,5.2238,5.2379,5.2442,5.2511,5.3025,5.3268,5.3288,5.3723,5.3833,5.3651,5.3551,5.3501,5.3501,5.3501,5.3501,5.3551,5.4161,5.4754,5.5158,5.5192,5.4938,5.4397,5.4329,5.4059,5.3534,5.3501,5.3788,5.4262,5.3788,5.3822,5.4566,5.5293,5.5767,5.6037,5.7171,5.79,5.79,5.79,5.79,5.79,5.7936,5.7954,5.7753,5.5468,5.4035,5.4582,5.4992,5.5467,5.6112,5.7143,5.79,5.79,5.79,5.7629,5.7205,5.7577,5.7712,5.7205,5.7577,5.79,5.79,5.79,5.79,5.79,5.79,5.79,5.79,5.79,5.79,5.79,5.79,5.7832,5.79,5.7866,5.7866,5.79,5.79,5.79,5.79,5.79,5.79,5.79,5.79,5.79,5.79,5.79,5.79,5.79,5.79,5.79,5.79,5.79,5.79,5.6273,5.575,5.5363,5.4788,5.4163,5.4245,5.4241,5.429,5.4998,5.5267,5.51,5.5058,5.4988,5.4836,5.4458,5.419,5.3921,5.3467,5.3297,5.3412,5.3513,5.3578,5.3674,5.3774,5.3808,5.3774,5.3842,5.3761,5.363,5.3682,5.3634,5.3517,5.3484,5.3501,5.3501,5.3501,5.3501,5.3501,5.3551,5.3636,5.3687,5.3704,5.367,5.3619,5.3619,5.3585,5.3501,5.3501,5.3534,5.3585,5.3585,5.3856,5.4566,5.5293,5.6003,5.6664,5.7442,5.79,5.79,5.79,5.79,5.7918,5.8063,5.8153,5.8171,5.7411,5.6814,5.6604,5.6548,5.6599,5.6749,5.7444,5.7936,5.7954,5.7918,5.7866,5.7798,5.7866,5.7866,5.7832,5.7832,5.79,5.79,5.79,5.79,5.79,5.79,5.79,5.79,5.79,5.79,5.79,5.79,5.79,5.79,5.79,5.79,5.79,5.79,5.79,5.79,5.79,5.79,5.79,5.79,5.79,5.79,5.79,5.79,5.79,5.79,5.79,5.79,5.79,5.79,5.5872,5.5363,5.485,5.4205,5.3652,5.4193,5.4394,5.439,5.5659,5.6252,5.6286,5.6601,5.6262,5.5469,5.5552,5.5366,5.4895,5.4224,5.3904,5.3888,5.3653,5.3534,5.3551,5.3734,5.3816,5.3833,5.3833,5.3783,5.3701,5.3635,5.3551,5.3518,5.3501,5.3501,5.3501,5.3382,5.3331,5.3331,5.3331,5.3331,5.3331,5.3467,5.3501,5.3501,5.3501,5.3501,5.3501,5.3501,5.3687,5.4093,5.4126,5.4499,5.5243,5.5953,5.6494,5.6833,5.7476,5.79,5.79,5.7991,5.8063,5.8063,5.8277,5.8384,5.8384,5.8182,5.7976,5.7784,5.7408,5.7136,5.7204,5.7816,5.8277,5.8259,5.8169,5.8063,5.8063,5.7954,5.79,5.79,5.79,5.79,5.79,5.79,5.79,5.79,5.79,5.79,5.79,5.79,5.79,5.79,5.79,5.79,5.79,5.79,5.79,5.79,5.79,5.79,5.79,5.79,5.79,5.79,5.79,5.79,5.79,5.79,5.79,5.79,5.79,5.79,5.79,5.79,5.79,5.5569,5.5003,5.4253,5.3667,5.3382,5.4395,5.4783,5.4933,5.6461,5.7175,5.7227,5.7823,5.7468,5.6585,5.6556,5.6298,5.5707,5.4964,5.4557,5.4386,5.3921,5.3584,5.3516,5.3518,5.3567,5.3584,5.3617,5.3634,5.3617,5.3551,5.3501,5.3501,5.3501,5.3501,5.3484,5.3281,5.3196,5.3229,5.3398,5.3481,5.3583,5.3906,5.4008,5.3822,5.3822,5.389,5.4076,5.4126,5.4329,5.4871,5.4871,5.5243,5.5987,5.6564,5.6974,5.7247,5.7773,5.8063,5.8097,5.8189,5.8294,5.8278,5.8472,5.8578,5.8578,5.8613,5.8648,5.858,5.8135,5.7843,5.7756,5.8183,5.849,5.849,5.8366,5.8294,5.826,5.8169,5.8045,5.7991,5.7991,5.7954,5.7918,5.79,5.79,5.79,5.79,5.79,5.79,5.79,5.79,5.79,5.79,5.79,5.79,5.79,5.79,5.79,5.79,5.79,5.79,5.79,5.79,5.79,5.79,5.79,5.79,5.79,5.79,5.79,5.79,5.79,5.79,5.7863,5.7827,5.5452,5.4617,5.3684,5.3382,5.3585,5.4816,5.549,5.5733,5.7368,5.8103,5.8121,5.835,5.8421,5.8232,5.7265,5.6781,5.6628,5.5776,5.5455,5.5458,5.4488,5.4116,5.4188,5.3583,5.3263,5.3399,5.3433,5.3534,5.3568,5.3551,5.3501,5.3551,5.3619,5.3585,5.3619,5.3483,5.3229,5.3448,5.397,5.4256,5.434,5.5104,5.5209,5.4702,5.455,5.4837,5.5428,5.5564,5.5597,5.5665,5.5683,5.5987,5.6681,5.6977,5.7494,5.8266,5.8421,5.8455,5.8455,5.8472,5.849,5.8508,5.8684,5.8771,5.8806,5.8927,5.8978,5.8978,5.8909,5.872,5.8494,5.8476,5.8543,5.8543,5.8508,5.849,5.849,5.8437,5.8384,5.8241,5.8153,5.8063,5.7918,5.79,5.79,5.79,5.79,5.79,5.79,5.79,5.79,5.79,5.79,5.79,5.79,5.79,5.79,5.79,5.79,5.79,5.79,5.79,5.79,5.79,5.79,5.79,5.79,5.79,5.79,5.79,5.79,5.79,5.7827,5.7717,5.7643,5.4601,5.3716,5.3467,5.3618,5.4124,5.526,5.6094,5.6689,5.7836,5.8401,5.8401,5.8472,5.849,5.8456,5.8093,5.7815,5.7622,5.6731,5.6268,5.6147,5.5437,5.5049,5.4929,5.4256,5.3988,5.4024,5.3551,5.3619,5.4228,5.4668,5.4974,5.5094,5.5111,5.5162,5.5213,5.494,5.4801,5.4818,5.4965,5.5067,5.5189,5.5635,5.6028,5.6336,5.5669,5.5428,5.5699,5.5699,5.5955,5.6552,5.6604,5.6996,5.7766,5.7957,5.813,5.8456,5.849,5.849,5.8508,5.8613,5.8684,5.8701,5.8961,5.9115,5.9149,5.9268,5.9386,5.9386,5.9386,5.9302,5.92,5.8961,5.8823,5.8789,5.8753,5.8718,5.8648,5.8578,5.8472,5.8401,5.8278,5.8117,5.7972,5.79,5.79,5.79,5.79,5.79,5.79,5.79,5.79,5.79,5.79,5.79,5.79,5.79,5.79,5.79,5.79,5.79,5.79,5.79,5.79,5.79,5.79,5.79,5.79,5.79,5.79,5.79,5.79,5.7845,5.7735,5.7625,5.7532,5.3946,5.3349,5.3416,5.3703,5.4244,5.5519,5.6201,5.6643,5.7961,5.8459,5.8288,5.8511,5.8649,5.8666,5.8613,5.8525,5.8315,5.7661,5.7261,5.7013,5.6375,5.5966,5.5671,5.4996,5.473,5.4784,5.4379,5.4465,5.5042,5.5602,5.5978,5.6133,5.6167,5.6269,5.6354,5.6047,5.5892,5.5857,5.5921,5.6021,5.6195,5.659,5.7122,5.7515,5.7016,5.6604,5.6604,5.6604,5.686,5.7443,5.7564,5.7961,5.8667,5.8771,5.8788,5.884,5.8858,5.8858,5.8858,5.8961,5.9047,5.9047,5.9234,5.9386,5.9403,5.9503,5.9604,5.9604,5.9604,5.9604,5.9536,5.9352,5.9149,5.9081,5.8961,5.8858,5.8858,5.8753,5.8597,5.8508,5.8401,5.8207,5.8045,5.8063,5.8099,5.8081,5.8115,5.8063,5.8009,5.7991,5.7954,5.79,5.79,5.79,5.79,5.79,5.79,5.79,5.79,5.79,5.79,5.79,5.79,5.79,5.79,5.79,5.79,5.79,5.79,5.79,5.7881,5.7845,5.7698,5.7551,5.742,5.3583,5.3416,5.3399,5.3618,5.4074,5.5451,5.5774,5.5808,5.7672,5.8221,5.7895,5.8548,5.8841,5.8944,5.884,5.8771,5.8718,5.8476,5.8247,5.8001,5.7247,5.6781,5.6534,5.579,5.5386,5.5388,5.5788,5.5962,5.6064,5.6338,5.6576,5.6659,5.6898,5.7204,5.7009,5.6916,5.6491,5.6628,5.6985,5.7171,5.7221,5.7926,5.8407,5.851,5.839,5.8372,5.844,5.8371,5.8319,5.844,5.8581,5.8858,5.9183,5.9268,5.9369,5.9488,5.9571,5.9571,5.9554,5.9538,5.9521,5.9503,5.9588,5.9586,5.9654,5.967,5.9703,5.9736,5.9703,5.967,5.9687,5.9621,5.9486,5.9319,5.9115,5.9012,5.9012,5.8995,5.8858,5.8613,5.8508,5.8419,5.8312,5.8296,5.8419,5.8419,5.8419,5.8384,5.8241,5.8205,5.8081,5.7972,5.79,5.79,5.79,5.79,5.79,5.79,5.79,5.79,5.79,5.79,5.79,5.79,5.79,5.79,5.79,5.79,5.79,5.79,5.7863,5.779,5.7606,5.742,5.7233,5.345,5.3399,5.3567,5.4023,5.4717,5.5379,5.5753,5.6113,5.7087,5.7549,5.7825,5.8116,5.8513,5.8926,5.8944,5.8961,5.8909,5.884,5.8684,5.8386,5.8093,5.7886,5.7677,5.6819,5.6085,5.5852,5.654,5.7021,5.7193,5.7689,5.8393,5.9233,5.9468,5.9982,6.0445,5.9932,5.9436,5.9251,5.8686,5.8479,5.8599,5.8892,5.9115,5.9234,5.9251,5.9251,5.9234,5.8858,5.8771,5.903,5.9115,5.9251,5.9488,5.9521,5.9554,5.9604,5.9604,5.9604,5.9604,5.9621,5.9637,5.9637,5.9701,5.9781,5.9946,6.0113,6.0225,6.0269,6.0222,6.0158,6.0126,5.9897,5.9718,5.9503,5.9336,5.9217,5.9166,5.9081,5.8944,5.8753,5.8701,5.8613,5.8472,5.849,5.8525,5.8525,5.8525,5.849,5.8419,5.8312,5.8171,5.8099,5.8009,5.79,5.79,5.79,5.79,5.79,5.79,5.79,5.79,5.79,5.79,5.79,5.79,5.79,5.79,5.79,5.79,5.79,5.7881,5.7717,5.7458,5.7289,5.7158,5.3907,5.3839,5.3869,5.427,5.4929,5.5333,5.5704,5.6044,5.6711,5.7105,5.7313,5.785,5.8335,5.8784,5.9061,5.92,5.92,5.9234,5.9132,5.8892,5.8666,5.8578,5.8456,5.78,5.7252,5.6965,5.7568,5.8033,5.8187,5.9098,6.0044,6.0862,6.146,6.1955,6.2595,6.2077,6.16,6.1315,6.0353,5.9819,5.9817,5.9575,5.9453,5.9639,5.9914,6.0136,6.0204,6.0162,6.0096,6.0058,6.0314,6.0655,6.0803,6.0625,6.0401,6.0266,6.004,5.9849,5.98,5.99,6.0056,6.0264,6.0463,6.0749,6.1088,6.1305,6.14,6.1447,6.1435,6.1231,6.0952,6.072,6.0391,5.9932,5.9586,5.9403,5.9319,5.9166,5.903,5.8858,5.8823,5.8771,5.8666,5.8684,5.8701,5.8701,5.8701,5.8666,5.8596,5.8437,5.8348,5.8223,5.8009,5.7936,5.79,5.79,5.79,5.79,5.79,5.79,5.79,5.79,5.79,5.79,5.79,5.79,5.79,5.79,5.79,5.79,5.7881,5.7698,5.7476,5.7364,5.7195,5.472,5.4601,5.4321,5.4335,5.4698,5.5444,5.5517,5.5344,5.6438,5.6685,5.6561,5.7607,5.8319,5.8579,5.9207,5.9554,5.9604,5.9571,5.9538,5.9369,5.9081,5.8771,5.8526,5.8458,5.8355,5.839,5.8755,5.9012,5.9287,6.0264,6.1251,6.1889,6.2663,6.314,6.3397,6.3176,6.2946,6.2633,6.1689,6.1138,6.1103,6.0395,5.9964,6.0032,6.0739,6.1254,6.1487,6.2161,6.2202,6.1429,6.2026,6.2534,6.2733,6.2269,6.1754,6.154,6.0956,6.0669,6.0413,6.0669,6.0975,6.152,6.1769,6.2179,6.2722,6.2754,6.2821,6.2852,6.2876,6.2616,6.2084,6.1895,6.1483,6.0713,6.0054,5.9604,5.9352,5.9284,5.92,5.8996,5.8961,5.9013,5.8927,5.8996,5.9012,5.8995,5.8995,5.8944,5.8806,5.8631,5.8455,5.8312,5.8169,5.8009,5.8009,5.79,5.79,5.79,5.79,5.79,5.79,5.79,5.79,5.79,5.79,5.79,5.79,5.79,5.79,5.79,5.7808,5.768,5.7532,5.7402,5.7214,5.5007,5.5253,5.4661,5.4589,5.4853,5.5158,5.517,5.5042,5.5425,5.5908,5.626,5.715,5.7897,5.8456,5.9203,5.9604,5.9637,5.9621,5.9604,5.9588,5.9488,5.9115,5.8858,5.8978,5.9013,5.8961,5.9268,5.9864,6.0669,6.1097,6.212,6.3776,6.4111,6.4664,6.5109,6.4628,6.4242,6.3866,6.3004,6.247,6.2435,6.221,6.2139,6.2139,6.2313,6.2547,6.2809,6.3752,6.3788,6.2777,6.2955,6.3238,6.334,6.3069,6.2848,6.2715,6.2482,6.2261,6.221,6.2336,6.2521,6.2715,6.2906,6.3132,6.3454,6.3525,6.3586,6.3596,6.3566,6.3454,6.3224,6.3025,6.2744,6.2348,6.0973,5.9872,5.9621,5.9538,5.9488,5.9437,5.9437,5.9369,5.9352,5.9352,5.9369,5.9268,5.9183,5.9132,5.8961,5.8823,5.8648,5.8561,5.8419,5.8225,5.8081,5.7954,5.79,5.79,5.79,5.79,5.79,5.79,5.79,5.79,5.79,5.79,5.79,5.79,5.79,5.79,5.7863,5.7772,5.7588,5.7439,5.7252,5.6399,5.6609,5.5681,5.5448,5.5623,5.5419,5.5339,5.5348,5.5398,5.5594,5.612,5.6856,5.7627,5.8398,5.909,5.9652,5.9897,5.9832,5.98,5.9783,5.9718,5.947,5.9251,5.9352,5.9352,5.9319,5.9636,6.0317,6.1244,6.1854,6.3133,6.4505,6.532,6.5807,6.6079,6.5766,6.534,6.4916,6.4104,6.357,6.357,6.3187,6.3026,6.3144,6.3436,6.3863,6.4505,6.5182,6.509,6.4332,6.4348,6.4624,6.4573,6.421,6.399,6.3892,6.3569,6.3242,6.3195,6.332,6.3576,6.3836,6.4031,6.4353,6.468,6.4782,6.4842,6.4908,6.4827,6.4617,6.4264,6.3821,6.352,6.3204,6.2155,6.1056,6.0487,6.0406,6.0133,5.9857,5.9636,5.9604,5.9621,5.9621,5.9571,5.9453,5.9419,5.9319,5.9149,5.9013,5.8875,5.8788,5.8631,5.8437,5.8296,5.8241,5.8169,5.8099,5.8027,5.8043,5.7954,5.7936,5.79,5.79,5.79,5.79,5.79,5.79,5.79,5.79,5.79,5.7827,5.7643,5.7476,5.7289,5.8274,5.8203,5.706,5.661,5.655,5.6086,5.5856,5.5893,5.5829,5.5879,5.6077,5.6721,5.7547,5.8329,5.902,5.964,6.0396,6.0218,6.0171,6.0123,5.9991,5.983,5.9751,5.9652,5.9652,5.972,6.0064,6.0851,6.1815,6.2931,6.4005,6.511,6.6052,6.6395,6.6421,6.6294,6.6192,6.5743,6.4975,6.4595,6.4488,6.4033,6.38,6.3993,6.451,6.5217,6.5879,6.6313,6.6076,6.5322,6.597,6.615,6.615,6.5574,6.5232,6.5003,6.4511,6.4041,6.3837,6.4143,6.4357,6.4946,6.5196,6.5538,6.6001,6.6109,6.6124,6.6103,6.6345,6.5893,6.5358,6.4555,6.4264,6.4204,6.3816,6.3111,6.2167,6.1649,6.1138,6.0242,6.0044,5.9841,5.9791,5.9722,5.9687,5.9619,5.9586,5.9503,5.9386,5.9251,5.9115,5.9013,5.8823,5.8613,5.8543,5.8508,5.8455,5.8401,5.8294,5.8223,5.8081,5.8027,5.7936,5.79,5.79,5.79,5.79,5.79,5.79,5.79,5.79,5.7808,5.768,5.7532,5.7364,5.8834,5.889,5.8033,5.7399,5.7002,5.6834,5.6488,5.595,5.595,5.5943,5.6092,5.6765,5.7558,5.8358,5.9051,5.9769,6.0508,6.0516,6.0485,6.0485,6.047,6.0423,6.0313,6.0123,6.001,6.0215,6.1014,6.1951,6.2962,6.383,6.4931,6.6001,6.6271,6.6497,6.6482,6.6376,6.6207,6.5985,6.5602,6.5514,6.5573,6.5379,6.5283,6.5489,6.5822,6.6093,6.6416,6.6638,6.664,6.6538,6.6559,6.6638,6.6602,6.6332,6.6112,6.6031,6.5868,6.5648,6.5684,6.5667,6.5902,6.601,6.6202,6.6502,6.661,6.6668,6.6668,6.6683,6.6683,6.6544,6.6313,6.6085,6.5758,6.5641,6.555,6.5212,6.4363,6.3396,6.2655,6.2213,6.1642,6.1261,6.1098,6.0592,6.032,5.99,5.9767,5.9701,5.9602,5.9486,5.9369,5.9251,5.9115,5.8927,5.8892,5.8806,5.8701,5.8631,5.8525,5.8437,5.8296,5.8117,5.8045,5.7972,5.79,5.79,5.79,5.79,5.79,5.79,5.79,5.7845,5.7753,5.7606,5.7439,6.0002,6.0007,5.9281,5.8786,5.8445,5.7804,5.7297,5.6855,5.6462,5.632,5.6427,5.6819,5.7604,5.8709,5.9086,5.9754,6.07,6.0854,6.0838,6.0808,6.0727,6.0681,6.0666,6.0598,6.0544,6.0937,6.1514,6.2611,6.379,6.4562,6.5366,6.641,6.6608,6.6653,6.6623,6.6452,6.6361,6.6254,6.6099,6.6068,6.613,6.6146,6.6207,6.6376,6.6527,6.6653,6.6668,6.6727,6.6808,6.6822,6.6822,6.6822,6.6808,6.6697,6.6653,6.6638,6.6593,6.6548,6.6527,6.6608,6.6566,6.6638,6.6742,6.6793,6.6822,6.6822,6.6822,6.6822,6.6808,6.6808,6.6822,6.6727,6.6653,6.6638,6.6578,6.6286,6.5697,6.4711,6.3723,6.3318,6.2695,6.2427,6.2084,6.1679,6.1317,6.104,6.0755,6.062,5.9846,5.9767,5.9619,5.9503,5.9386,5.9285,5.9234,5.9115,5.8944,5.884,5.8718,5.8666,5.8596,5.8401,5.8171,5.8081,5.7972,5.79,5.79,5.79,5.79,5.79,5.79,5.79,5.7808,5.7606,5.7439,6.1047,6.099,6.0296,5.9973,5.9663,5.8552,5.7895,5.7666,5.714,5.6773,5.6799,5.6812,5.7595,5.8663,5.8791,5.9695,6.0726,6.1026,6.0917,6.1152,6.1028,6.0998,6.1004,6.1152,6.157,6.2071,6.2306,6.3259,6.4353,6.5105,6.5836,6.647,6.6697,6.6742,6.6742,6.6623,6.6467,6.6421,6.63,6.6269,6.63,6.6315,6.6391,6.6578,6.6683,6.6793,6.6793,6.6808,6.6822,6.6822,6.6822,6.6822,6.6822,6.6822,6.6822,6.6771,6.6742,6.6727,6.6727,6.6757,6.6793,6.6822,6.6822,6.6822,6.6822,6.6822,6.6822,6.6822,6.6822,6.6822,6.6822,6.6757,6.6808,6.6808,6.6808,6.6712,6.6434,6.5703,6.4895,6.4179,6.3836,6.3549,6.3286,6.2923,6.2561,6.2163,6.1879,6.1434,6.0675,6.0199,6.0175,5.9818,5.9685,5.9486,5.9419,5.9386,5.92,5.9064,5.8944,5.8875,5.8823,5.8631,5.8419,5.8171,5.8063,5.7991,5.7918,5.79,5.79,5.79,5.79,5.79,5.7772,5.7569,5.7439,6.0829,6.0806,6.0011,5.9302,5.875,5.8414,5.7916,5.7224,5.7054,5.6917,5.6875,5.6848,5.7414,5.8156,5.8201,5.9122,6.0488,6.0819,6.0984,6.1415,6.143,6.1415,6.1472,6.1945,6.2641,6.3323,6.3513,6.4066,6.5028,6.5836,6.6295,6.6676,6.6757,6.6822,6.6742,6.6638,6.6527,6.6512,6.6442,6.6376,6.6437,6.6467,6.6563,6.6697,6.6757,6.6808,6.6822,6.6822,6.6822,6.6822,6.6822,6.6822,6.6822,6.6822,6.6822,6.6822,6.6822,6.6822,6.6822,6.6822,6.6822,6.6822,6.6822,6.6822,6.6822,6.6822,6.6822,6.6822,6.6822,6.6822,6.6822,6.6822,6.6822,6.6822,6.6808,6.6771,6.6691,6.6457,6.6142,6.5519,6.5084,6.467,6.4429,6.4111,6.3656,6.3262,6.2927,6.2407,6.1695,6.1254,6.1024,6.0544,5.9959,5.9767,5.9604,5.9553,5.9453,5.9302,5.9183,5.9047,5.8996,5.884,5.8648,5.8384,5.8171,5.8063,5.7991,5.7918,5.79,5.79,5.79,5.79,5.779,5.7662,5.7476,6.0768,6.0355,5.9979,5.9553,5.9103,5.8667,5.8228,5.7714,5.7304,5.7314,5.7552,5.7683,5.8333,5.915,5.9452,6.0138,6.0882,6.1221,6.1473,6.1784,6.1728,6.1722,6.178,6.2407,6.3155,6.3839,6.4342,6.4984,6.5779,6.6235,6.6587,6.6742,6.6822,6.6822,6.6808,6.6712,6.6668,6.6638,6.6593,6.6578,6.6653,6.6653,6.6712,6.6757,6.6822,6.6822,6.6822,6.6822,6.6822,6.6822,6.6822,6.6822,6.6822,6.6822,6.6822,6.6822,6.6822,6.6822,6.6822,6.6822,6.6822,6.6822,6.6822,6.6822,6.6822,6.6822,6.6822,6.6822,6.6822,6.6822,6.6822,6.6822,6.6822,6.6822,6.6822,6.6822,6.6822,6.6822,6.6683,6.6548,6.6082,6.5652,6.5566,6.5208,6.4716,6.4342,6.3977,6.3385,6.2717,6.2368,6.2052,6.1492,6.0909,6.0345,6.0098,5.9944,5.9722,5.952,5.9369,5.9268,5.9132,5.8996,5.8753,5.8472,5.8312,5.8153,5.7991,5.79,5.79,5.79,5.79,5.7881,5.7845,5.7735,5.7551,6.0417,5.9833,5.965,5.9515,5.9317,5.8879,5.8586,5.8326,5.7987,5.8107,5.8601,5.8696,5.9312,6.0217,6.0579,6.0942,6.1702,6.1688,6.1747,6.1937,6.1868,6.1862,6.2037,6.2666,6.3452,6.4108,6.5198,6.5928,6.628,6.6542,6.6632,6.6742,6.6822,6.6822,6.6808,6.6757,6.6822,6.6822,6.6822,6.6822,6.6822,6.6822,6.6822,6.6822,6.6822,6.6822,6.6822,6.6822,6.6822,6.6822,6.6822,6.6822,6.6822,6.6822,6.6822,6.6822,6.6822,6.6822,6.6822,6.6822,6.6822,6.6822,6.6822,6.6822,6.6822,6.6822,6.6822,6.6822,6.6822,6.6822,6.6822,6.6822,6.6822,6.6822,6.6822,6.6822,6.6822,6.6822,6.6822,6.6683,6.6638,6.6491,6.6226,6.6063,6.5555,6.5402,6.5054,6.4505,6.3892,6.3511,6.3144,6.257,6.1953,6.1138,6.0728,6.0385,6.0077,5.9668,5.9503,5.9369,5.9268,5.9098,5.8858,5.8596,5.8419,5.826,5.8063,5.79,5.79,5.79,5.79,5.7881,5.7863,5.7753,5.7588,5.9369,5.9247,5.8456,5.8031,5.8202,5.864,5.8711,5.8658,5.9154,5.9465,5.9457,5.947,5.9602,5.9928,5.9977,6.0326,6.0833,6.1195,6.1521,6.1942,6.1964,6.1937,6.2204,6.3571,6.397,6.4535,6.5808,6.6451,6.6608,6.6683,6.6742,6.6808,6.6822,6.6822,6.6822,6.6822,6.6822,6.6822,6.6822,6.6822,6.6822,6.6822,6.6822,6.6822,6.6822,6.6822,6.6822,6.6822,6.6822,6.6822,6.6822,6.6822,6.6822,6.6822,6.6822,6.6822,6.6822,6.6822,6.6822,6.6822,6.6822,6.6822,6.6822,6.6822,6.6822,6.6822,6.6822,6.6822,6.6822,6.6822,6.6822,6.6822,6.6822,6.6822,6.6822,6.6822,6.6822,6.6822,6.6822,6.6808,6.6697,6.6727,6.6646,6.6506,6.6395,6.6298,6.6078,6.5494,6.5003,6.4606,6.4041,6.3412,6.2891,6.218,6.1363,6.1036,6.0606,6.0058,5.9703,5.9521,5.9369,5.9234,5.8996,5.8753,5.8561,5.8296,5.8081,5.7954,5.7918,5.79,5.79,5.79,5.79,5.7753,5.7658,5.9749,5.9712,5.9334,5.9067,5.8968,5.9233,5.9278,5.9248,5.9512,5.9908,6.0231,6.0254,6.0507,6.0797,6.0978,6.1159,6.1448,6.1435,6.163,6.1906,6.1992,6.1992,6.239,6.3563,6.4359,6.4794,6.5844,6.6648,6.6712,6.6727,6.6822,6.6822,6.6822,6.6822,6.6822,6.6822,6.6822,6.6822,6.6822,6.6822,6.6822,6.6822,6.6822,6.6822,6.6822,6.6822,6.6822,6.6822,6.6822,6.6822,6.6822,6.6822,6.6822,6.6822,6.6822,6.6822,6.6822,6.6822,6.6822,6.6822,6.6822,6.6822,6.6822,6.6822,6.6822,6.6822,6.6822,6.6822,6.6822,6.6822,6.6822,6.6822,6.6822,6.6822,6.6822,6.6822,6.6822,6.6822,6.6822,6.6822,6.6822,6.6822,6.6822,6.6712,6.6602,6.6572,6.6425,6.6088,6.5746,6.5513,6.4856,6.4144,6.3644,6.3173,6.2335,6.169,6.1295,6.0728,5.9953,5.9773,5.9521,5.9302,5.9081,5.884,5.8613,5.835,5.8099,5.7972,5.79,5.79,5.79,5.7967,5.8001,5.7983,5.7818,6.0736,6.0674,6.0272,5.9965,5.9846,5.9953,5.9997,5.9905,6.0194,6.0579,6.0978,6.1123,6.1448,6.1869,6.1878,6.1778,6.1887,6.1895,6.1909,6.1923,6.195,6.1964,6.2449,6.3526,6.4396,6.4432,6.6025,6.6699,6.6808,6.6822,6.6822,6.6822,6.6822,6.6822,6.6822,6.6822,6.6822,6.6822,6.6822,6.6822,6.6822,6.6822,6.6822,6.6822,6.6822,6.6822,6.6822,6.6822,6.6822,6.6822,6.6822,6.6822,6.6822,6.6822,6.6822,6.6822,6.6822,6.6822,6.6822,6.6822,6.6822,6.6822,6.6822,6.6822,6.6822,6.6822,6.6822,6.6822,6.6822,6.6822,6.6822,6.6822,6.6822,6.6822,6.6822,6.6822,6.6822,6.6822,6.6822,6.6822,6.6822,6.6822,6.6822,6.6822,6.6757,6.6757,6.6697,6.6557,6.6361,6.613,6.5652,6.4919,6.4662,6.4192,6.3374,6.2624,6.2107,6.1452,6.0676,6.0114,5.9985,5.9525,5.9183,5.8927,5.8684,5.8578,5.8403,5.8135,5.79,5.79,5.7934,5.8069,5.8118,5.8204,5.8278,6.2172,6.1921,6.0467,5.9908,5.9942,6.0501,6.0738,6.076,6.1448,6.1738,6.1774,6.1869,6.1856,6.195,6.1854,6.1834,6.182,6.1672,6.175,6.1806,6.1812,6.1868,6.2466,6.3376,6.4418,6.47,6.6025,6.675,6.6822,6.6822,6.6822,6.6822,6.6822,6.6822,6.6822,6.6822,6.6822,6.6822,6.6822,6.6822,6.6822,6.6822,6.6822,6.6822,6.6822,6.6822,6.6822,6.6822,6.6822,6.6822,6.6822,6.6822,6.6822,6.6822,6.6822,6.6822,6.6822,6.6822,6.6822,6.6822,6.6822,6.6822,6.6822,6.6822,6.6822,6.6822,6.6822,6.6822,6.6822,6.6822,6.6822,6.6822,6.6822,6.6822,6.6822,6.6822,6.6822,6.6822,6.6822,6.6822,6.6822,6.6822,6.6822,6.6822,6.6822,6.6771,6.6771,6.6668,6.6563,6.633,6.6192,6.5786,6.5685,6.5209,6.4463,6.377,6.31,6.2411,6.1668,6.1052,6.0558,6.0043,5.9544,5.9081,5.8858,5.8788,5.8666,5.8366,5.8081,5.7954,5.8035,5.841,5.8813,5.9099,5.9182,6.2275,6.2135,6.1425,6.1131,6.119,6.1439,6.1557,6.1593,6.1883,6.2028,6.2014,6.1909,6.1868,6.1826,6.1728,6.1694,6.168,6.1651,6.1651,6.1666,6.1708,6.1742,6.2404,6.3327,6.4332,6.4765,6.5989,6.6822,6.6822,6.6822,6.6822,6.6822,6.6822,6.6822,6.6822,6.6822,6.6822,6.6822,6.6822,6.6822,6.6822,6.6822,6.6822,6.6822,6.6822,6.6822,6.6822,6.6822,6.6822,6.6822,6.6822,6.6822,6.6822,6.6822,6.6822,6.6822,6.6822,6.6822,6.6895,6.6858,6.6822,6.6822,6.6822,6.6822,6.6822,6.6822,6.6822,6.6822,6.6822,6.6822,6.6822,6.6822,6.6822,6.6822,6.6822,6.6822,6.6822,6.6822,6.6822,6.6822,6.6822,6.6822,6.6822,6.6822,6.6822,6.6808,6.6771,6.6742,6.6653,6.6563,6.6376,6.6254,6.6083,6.5915,6.5169,6.4589,6.4008,6.3333,6.2659,6.199,6.1337,6.0699,6.0182,5.958,5.9151,5.9167,5.8993,5.8541,5.8312,5.8223,5.8556,5.906,5.9478,5.9945,6.0059,6.2118,6.2141,6.2033,6.2028,6.2028,6.2028,6.2028,6.2028,6.1992,6.1964,6.1923,6.182,6.1728,6.1686,6.1573,6.1501,6.1473,6.1444,6.1458,6.1487,6.1501,6.1731,6.2429,6.3358,6.4405,6.4903,6.5938,6.6822,6.6822,6.6822,6.6822,6.6822,6.6822,6.6822,6.6822,6.6822,6.6822,6.6822,6.6822,6.6822,6.6822,6.6822,6.6822,6.6822,6.6822,6.6822,6.6822,6.6822,6.6822,6.6822,6.6822,6.6822,6.6822,6.6822,6.6822,6.6822,6.6822,6.6895,6.7112,6.7184,6.704,6.6858,6.7184,6.704,6.6858,6.6822,6.6822,6.6822,6.6822,6.6822,6.6822,6.6822,6.6822,6.6822,6.6822,6.6822,6.6822,6.6822,6.6822,6.6822,6.6822,6.6822,6.6822,6.6822,6.6822,6.6822,6.6808,6.6771,6.6742,6.6668,6.6578,6.6421,6.63,6.6083,6.5844,6.528,6.4767,6.4378,6.3651,6.2856,6.2202,6.1563,6.0996,6.0566,6.0134,5.9719,5.9665,5.9713,5.9195,5.8558,5.908,5.9695,6.0359,6.0805,6.0878,6.2005,6.2028,6.1992,6.1978,6.1978,6.2028,6.1978,6.2,6.195,6.1895,6.177,6.168,6.1609,6.1566,6.1401,6.1328,6.1299,6.1211,6.1211,6.1314,6.1558,6.1917,6.2731,6.3675,6.4627,6.5387,6.6198,6.6742,6.6822,6.6822,6.6822,6.6822,6.6822,6.6822,6.6822,6.6822,6.6822,6.6822,6.6822,6.6822,6.6822,6.6822,6.6822,6.6822,6.6822,6.6822,6.6822,6.6822,6.6822,6.6822,6.6822,6.6822,6.6822,6.6822,6.6858,6.6967,6.6931,6.7257,6.7873,6.7981,6.7764,6.7329,6.7764,6.7692,6.7076,6.6858,6.6858,6.6895,6.6822,6.6822,6.6822,6.6822,6.6822,6.6822,6.6822,6.6822,6.6822,6.6822,6.6822,6.6822,6.6822,6.6822,6.6822,6.6822,6.6822,6.6822,6.6822,6.6822,6.6822,6.6778,6.6683,6.6593,6.6452,6.63,6.6099,6.5915,6.5545,6.5193,6.4645,6.3795,6.314,6.2536,6.2037,6.1571,6.1103,6.0618,6.0876,6.115,6.0386,5.9707,5.9866,6.043,6.1109,6.1549,6.1573,6.2028,6.1978,6.1895,6.1854,6.1868,6.195,6.1937,6.189,6.1756,6.1722,6.1615,6.1473,6.1401,6.1357,6.1291,6.1218,6.1203,6.1152,6.1152,6.1239,6.1718,6.2129,6.2928,6.3965,6.4861,6.5406,6.6138,6.6697,6.6822,6.6822,6.6822,6.6822,6.6822,6.6822,6.6822,6.6822,6.6822,6.6822,6.6822,6.6822,6.6822,6.6822,6.6822,6.6822,6.6822,6.6822,6.6822,6.6822,6.6822,6.6822,6.6822,6.6822,6.6858,6.6895,6.7112,6.7438,6.7619,6.7981,6.8742,6.9104,6.9192,6.8793,6.854,6.8416,6.7728,6.7619,6.7329,6.7003,6.6967,6.6931,6.6822,6.6822,6.6822,6.6822,6.6822,6.6822,6.6822,6.6822,6.6822,6.6822,6.6822,6.6822,6.6822,6.6822,6.6822,6.6822,6.6822,6.6822,6.6822,6.6822,6.6742,6.6683,6.6593,6.6467,6.6315,6.6115,6.5962,6.5629,6.5209,6.4662,6.4042,6.3508,6.2904,6.2334,6.1953,6.1571,6.1708,6.1756,6.1349,6.101,6.091,6.1095,6.1714,6.2042,6.2124,6.1882,6.184,6.1792,6.1714,6.1728,6.1812,6.182,6.1686,6.1595,6.1631,6.1839,6.1743,6.1849,6.1891,6.1688,6.1536,6.1536,6.1521,6.1521,6.1628,6.2322,6.2918,6.3622,6.4286,6.5033,6.5574,6.6106,6.6593,6.6683,6.6793,6.6822,6.6822,6.6822,6.6822,6.6822,6.6822,6.6822,6.6822,6.6822,6.6822,6.6822,6.6822,6.6822,6.6822,6.6822,6.6822,6.6822,6.6822,6.6822,6.6858,6.6858,6.6967,6.7112,6.7293,6.7619,6.8162,6.8778,6.9068,6.9663,7.0299,7.0315,7.0097,6.9808,6.9228,6.8612,6.8431,6.8199,6.7836,6.7402,6.7257,6.7257,6.7184,6.6895,6.6895,6.6822,6.6822,6.6822,6.6822,6.6822,6.6822,6.6822,6.6822,6.6822,6.6822,6.6822,6.6822,6.6822,6.6822,6.6822,6.6822,6.6822,6.6742,6.6683,6.6593,6.6452,6.633,6.6146,6.601,6.5645,6.5226,6.4992,6.4457,6.3821,6.3253,6.3152,6.291,6.2473,6.2224,6.1954,6.1734,6.1531,6.1832,6.2358,6.2415,6.2415,6.17,6.1587,6.1609,6.1609,6.1609,6.1666,6.1666,6.1595,6.1458,6.1779,6.2409,6.2325,6.2602,6.3086,6.2607,6.2322,6.2322,6.2322,6.2322,6.2536,6.3092,6.3749,6.4296,6.4818,6.534,6.5894,6.63,6.6503,6.6512,6.6712,6.6822,6.6822,6.6822,6.6822,6.6822,6.6822,6.6822,6.6822,6.6822,6.6822,6.6822,6.6931,6.704,6.7112,6.7184,6.7257,6.7257,6.7257,6.7184,6.7112,6.6967,6.7402,6.7728,6.8017,6.8488,6.9155,6.9916,7.0278,7.0496,7.1096,7.1241,7.0987,7.0713,7.0061,6.9518,6.9228,6.9011,6.8721,6.8307,6.8162,6.8054,6.751,6.7003,6.6967,6.6844,6.6844,6.6822,6.6822,6.6822,6.6822,6.6822,6.6822,6.6822,6.6822,6.6822,6.6822,6.6822,6.6822,6.6822,6.6822,6.6822,6.6808,6.6727,6.6697,6.6593,6.6452,6.6361,6.6192,6.6041,6.5677,6.5549,6.5335,6.4754,6.4398,6.4512,6.4218,6.3395,6.2933,6.2731,6.2476,6.213,6.2089,6.2445,6.24,6.2381,6.1651,6.1559,6.1444,6.1386,6.1443,6.1893,6.1836,6.1465,6.1798,6.2203,6.2382,6.2872,6.3285,6.3357,6.3178,6.3107,6.3071,6.3107,6.3107,6.3377,6.3877,6.4325,6.4749,6.5189,6.5661,6.5981,6.6259,6.655,6.6584,6.6734,6.6858,6.6822,6.6822,6.6822,6.6858,6.6822,6.6895,6.6931,6.6967,6.7003,6.7148,6.7438,6.7547,6.7728,6.809,6.8214,6.8286,6.8322,6.8322,6.8358,6.7909,6.8054,6.8757,6.8416,6.8488,6.9952,7.0698,7.1168,7.1205,7.1386,7.1494,7.1494,7.1241,7.0858,7.0315,6.9989,6.9844,6.9518,6.9155,6.8938,6.8669,6.8199,6.7692,6.7423,6.7242,6.6967,6.6931,6.6822,6.6822,6.6822,6.6822,6.6822,6.6822,6.6822,6.6822,6.6822,6.6822,6.6822,6.6822,6.6822,6.6822,6.6822,6.6808,6.6727,6.6697,6.6608,6.6497,6.6391,6.6259,6.6104,6.5907,6.5697,6.5542,6.528,6.4996,6.4515,6.3913,6.3505,6.2979,6.2937,6.2673,6.2546,6.2469,6.2425,6.2415,6.1444,6.1372,6.1176,6.1058,6.1176,6.1798,6.1864,6.1675,6.2363,6.2857,6.3234,6.3698,6.4019,6.4341,6.4091,6.3877,6.3877,6.3877,6.3877,6.4091,6.4697,6.4983,6.534,6.5518,6.576,6.6046,6.6484,6.6921,6.6972,6.7138,6.7293,6.7293,6.7061,6.7061,6.7206,6.7402,6.7547,6.7583,6.7583,6.751,6.78,6.8162,6.838,6.8561,6.9083,6.9192,6.9264,6.9264,6.9228,6.9192,6.8597,6.885,6.959,6.9466,6.9611,7.0879,7.1132,7.1422,7.1422,7.1458,7.1494,7.1494,7.1494,7.1241,7.1075,7.0822,7.0589,7.0335,6.9952,6.9626,6.9337,6.8995,6.8488,6.8002,6.7619,6.7184,6.7003,6.6858,6.6822,6.6822,6.6822,6.6822,6.6822,6.6822,6.6822,6.6822,6.6822,6.6822,6.6822,6.6822,6.6822,6.6822,6.6822,6.6808,6.6727,6.6697,6.6653,6.6578,6.6473,6.6336,6.6192,6.6052,6.5863,6.5526,6.5164,6.4672,6.4216,6.3565,6.3106,6.3012,6.2791,6.2464,6.2339,6.244,6.2415,6.1182,6.1049,6.0934,6.0975,6.0928,6.1773,6.2092,6.2108,6.3171,6.3901,6.4369,6.4599,6.4991,6.5205,6.4884,6.4702,6.4682,6.4682,6.4697,6.4717,6.5518,6.5875,6.5911,6.5946,6.628,6.6499,6.6816,6.7425,6.7719,6.7939,6.809,6.8054,6.751,6.7547,6.8017,6.809,6.838,6.8902,6.8669,6.8525,6.8902,6.9155,6.9316,6.93,6.9445,6.9518,6.9518,6.9445,6.9388,6.9409,6.9409,6.9735,7.017,7.0842,7.1205,7.135,7.1458,7.1458,7.1494,7.1494,7.1494,7.1494,7.1494,7.1458,7.1313,7.1277,7.106,7.0987,7.0641,7.0496,7.0227,6.972,6.9213,6.8669,6.8199,6.7692,6.7329,6.7076,6.6822,6.6822,6.6822,6.6822,6.6822,6.6822,6.6822,6.6822,6.6822,6.6822,6.6808,6.6808,6.6793,6.6793,6.6808,6.6808,6.6808,6.6793,6.6793,6.6697,6.6608,6.6578,6.6488,6.6351,6.6177,6.58,6.5395,6.4927,6.441,6.3711,6.3126,6.2937,6.265,6.2225,6.2208,6.2372,6.2415,6.0747,6.0788,6.1324,6.1829,6.2434,6.3229,6.3512,6.3618,6.446,6.4563,6.4386,6.4863,6.5283,6.5452,6.5345,6.5251,6.5399,6.5292,6.5467,6.5681,6.6216,6.6517,6.6712,6.6692,6.7027,6.751,6.7808,6.8115,6.8718,6.8913,6.8902,6.8902,6.8503,6.8612,6.8902,6.8938,6.93,7.0025,6.9916,6.9466,6.9445,6.988,7.0134,7.0278,7.0423,7.0734,7.077,7.0842,7.0915,7.0915,7.0387,7.0315,7.0387,7.1148,7.1458,7.1494,7.1494,7.1494,7.1494,7.1494,7.1494,7.1494,7.1494,7.1494,7.1494,7.1494,7.1494,7.1422,7.135,7.1241,7.1024,7.0444,6.9916,6.9358,6.8814,6.8271,6.7728,6.7257,6.6858,6.6822,6.6822,6.6822,6.6822,6.6822,6.6822,6.6822,6.6822,6.6808,6.6757,6.6742,6.6748,6.6748,6.6757,6.6771,6.6757,6.6742,6.6727,6.6793,6.6697,6.6697,6.6697,6.6533,6.6284,6.6005,6.5604,6.5112,6.4478,6.3642,6.3165,6.2903,6.2461,6.2036,6.2203,6.24,6.2415,6.114,6.1231,6.1895,6.2361,6.279,6.3531,6.3884,6.4025,6.4695,6.4784,6.4482,6.5004,6.5349,6.5415,6.5395,6.5428,6.5594,6.5607,6.5552,6.5869,6.6485,6.6839,6.7085,6.7368,6.7803,6.8219,6.8746,6.9198,6.9906,6.9808,6.9735,6.9663,6.9518,6.9409,6.9626,6.9771,7.0097,7.0842,7.0842,7.0553,7.0134,7.0589,7.0879,7.106,7.1241,7.1494,7.1494,7.1494,7.1494,7.1458,7.1024,7.0915,7.0987,7.1313,7.1494,7.1494,7.1494,7.1494,7.1494,7.1494,7.1494,7.1494,7.1494,7.1494,7.1494,7.1494,7.1494,7.1458,7.1458,7.135,7.135,7.0951,7.0517,7.0025,6.959,6.9155,6.8162,6.7293,6.6967,6.6822,6.6822,6.6822,6.6822,6.6822,6.6822,6.6822,6.6822,6.6712,6.6697,6.6683,6.6653,6.6623,6.6623,6.6608,6.6533,6.6578,6.6638,6.6683,6.6727,6.6697,6.6638,6.6527,6.6376,6.6021,6.564,6.5214,6.4511,6.3625,6.318,6.2965,6.2393,6.1794,6.2096,6.2415,6.2415,6.1911,6.2088,6.2614,6.2784,6.2792,6.3459,6.3775,6.388,6.4425,6.4706,6.4758,6.5188,6.5322,6.5266,6.5266,6.5282,6.5332,6.5464,6.5497,6.5808,6.6511,6.7004,6.7494,6.7862,6.8317,6.8997,6.9653,7.0405,7.1142,7.0759,7.0434,7.0356,7.0118,6.9844,7.0351,7.0604,7.0842,7.1205,7.135,7.1422,7.1458,7.1494,7.1422,7.1458,7.1494,7.1494,7.1494,7.1494,7.1494,7.1494,7.1422,7.1386,7.135,7.1458,7.1458,7.1494,7.1494,7.1494,7.1494,7.1494,7.1494,7.1494,7.1494,7.1494,7.1494,7.1494,7.1494,7.1494,7.1494,7.1494,7.1494,7.1386,7.0987,7.0677,7.0278,6.9699,6.8488,6.7438,6.7184,6.6931,6.6822,6.6822,6.6822,6.6822,6.6822,6.6822,6.6742,6.6653,6.6593,6.6563,6.6533,6.6442,6.6361,6.6315,6.63,6.6376,6.6503,6.6593,6.6638,6.6608,6.6578,6.6467,6.6284,6.5942,6.5559,6.513,6.4391,6.3502,6.3206,6.2977,6.2252,6.1756,6.2179,6.2415,6.2415,6.2664,6.3262,6.3369,6.3722,6.4197,6.4408,6.4478,6.4513,6.4619,6.4689,6.4934,6.5442,6.5563,6.5065,6.5065,6.5151,6.5393,6.5493,6.5502,6.5652,6.6697,6.7294,6.7857,6.8472,6.8799,6.9548,7.039,7.1059,7.1324,7.1159,7.1087,7.0995,7.1121,7.1044,7.1132,7.1277,7.1277,7.1494,7.1494,7.1494,7.1494,7.1494,7.1494,7.1494,7.1494,7.1494,7.1494,7.1494,7.1494,7.1494,7.1494,7.1494,7.1494,7.1494,7.1494,7.1494,7.1494,7.1494,7.1494,7.1494,7.1494,7.1494,7.1494,7.1494,7.1494,7.1494,7.1494,7.1494,7.1494,7.1494,7.1494,7.1494,7.1241,7.1024,7.0734,6.9684,6.8561,6.7945,6.7547,6.7184,6.6858,6.6858,6.6822,6.6822,6.6822,6.6822,6.6822,6.6683,6.6533,6.6437,6.6391,6.6238,6.613,6.6207,6.6254,6.6254,6.6345,6.6437,6.6512,6.6512,6.6467,6.6376,6.6161,6.5736,6.5379,6.4962,6.42,6.3464,6.317,6.284,6.2078,6.1698,6.2154,6.2415,6.2415]}]]